<?xml version="1.0" encoding="UTF-8" standalone="no" ?>
<gpx xmlns="http://www.topografix.com/GPX/1/1" xmlns:xsi="http://www.w3.org/2001/XMLSchema-instance" xsi:schemaLocation="http://www.topografix.com/GPX/1/1 http://www.topografix.com/GPX/1/1/gpx.xsd" version="1.1" creator="VisuGPX - https://www.visugpx.com">
  <metadata>
    <name>le col de la becasse</name>
    <desc><![CDATA[rando du 15/02/2013  09h à 12h temps superbe]]></desc>
  </metadata>
  <trk>
    <name><![CDATA[TR_130215-084437]]></name>
    <desc><![CDATA[Track recorded with MMTracker on Android]]></desc>
    <trkseg>
      <trkpt lat="43.18406" lon="5.59921">
        <ele>88</ele>
        <time>2013-02-15T08:44:39Z</time>
      </trkpt>
      <trkpt lat="43.18406" lon="5.59921">
        <ele>88</ele>
        <time>2013-02-15T08:44:44Z</time>
      </trkpt>
      <trkpt lat="43.18406" lon="5.59921">
        <ele>88</ele>
        <time>2013-02-15T08:44:49Z</time>
      </trkpt>
      <trkpt lat="43.18406" lon="5.59921">
        <ele>90</ele>
        <time>2013-02-15T08:44:54Z</time>
      </trkpt>
      <trkpt lat="43.18404" lon="5.59914">
        <ele>91</ele>
        <time>2013-02-15T08:44:59Z</time>
      </trkpt>
      <trkpt lat="43.18408" lon="5.59906">
        <ele>91</ele>
        <time>2013-02-15T08:45:04Z</time>
      </trkpt>
      <trkpt lat="43.18407" lon="5.59899">
        <ele>89</ele>
        <time>2013-02-15T08:45:09Z</time>
      </trkpt>
      <trkpt lat="43.18404" lon="5.59896">
        <ele>89</ele>
        <time>2013-02-15T08:45:14Z</time>
      </trkpt>
      <trkpt lat="43.18399" lon="5.59892">
        <ele>89</ele>
        <time>2013-02-15T08:45:19Z</time>
      </trkpt>
      <trkpt lat="43.18394" lon="5.5989">
        <ele>89</ele>
        <time>2013-02-15T08:45:24Z</time>
      </trkpt>
      <trkpt lat="43.1839" lon="5.59887">
        <ele>89</ele>
        <time>2013-02-15T08:45:29Z</time>
      </trkpt>
      <trkpt lat="43.18385" lon="5.59887">
        <ele>89</ele>
        <time>2013-02-15T08:45:34Z</time>
      </trkpt>
      <trkpt lat="43.18381" lon="5.59886">
        <ele>89</ele>
        <time>2013-02-15T08:45:39Z</time>
      </trkpt>
      <trkpt lat="43.18374" lon="5.59884">
        <ele>89</ele>
        <time>2013-02-15T08:45:44Z</time>
      </trkpt>
      <trkpt lat="43.1837" lon="5.5988">
        <ele>89</ele>
        <time>2013-02-15T08:45:49Z</time>
      </trkpt>
      <trkpt lat="43.18366" lon="5.59875">
        <ele>88</ele>
        <time>2013-02-15T08:45:54Z</time>
      </trkpt>
      <trkpt lat="43.18361" lon="5.59872">
        <ele>88</ele>
        <time>2013-02-15T08:45:59Z</time>
      </trkpt>
      <trkpt lat="43.18356" lon="5.59869">
        <ele>88</ele>
        <time>2013-02-15T08:46:04Z</time>
      </trkpt>
      <trkpt lat="43.18352" lon="5.59868">
        <ele>88</ele>
        <time>2013-02-15T08:46:09Z</time>
      </trkpt>
      <trkpt lat="43.18348" lon="5.59864">
        <ele>88</ele>
        <time>2013-02-15T08:46:14Z</time>
      </trkpt>
      <trkpt lat="43.18344" lon="5.59859">
        <ele>88</ele>
        <time>2013-02-15T08:46:19Z</time>
      </trkpt>
      <trkpt lat="43.1834" lon="5.59853">
        <ele>88</ele>
        <time>2013-02-15T08:46:24Z</time>
      </trkpt>
      <trkpt lat="43.18337" lon="5.59848">
        <ele>88</ele>
        <time>2013-02-15T08:46:29Z</time>
      </trkpt>
      <trkpt lat="43.18334" lon="5.59843">
        <ele>89</ele>
        <time>2013-02-15T08:46:34Z</time>
      </trkpt>
      <trkpt lat="43.18331" lon="5.59836">
        <ele>90</ele>
        <time>2013-02-15T08:46:39Z</time>
      </trkpt>
      <trkpt lat="43.18328" lon="5.59831">
        <ele>90</ele>
        <time>2013-02-15T08:46:44Z</time>
      </trkpt>
      <trkpt lat="43.18324" lon="5.59825">
        <ele>91</ele>
        <time>2013-02-15T08:46:49Z</time>
      </trkpt>
      <trkpt lat="43.18321" lon="5.5982">
        <ele>91</ele>
        <time>2013-02-15T08:46:54Z</time>
      </trkpt>
      <trkpt lat="43.1832" lon="5.59813">
        <ele>92</ele>
        <time>2013-02-15T08:46:59Z</time>
      </trkpt>
      <trkpt lat="43.18316" lon="5.59807">
        <ele>93</ele>
        <time>2013-02-15T08:47:04Z</time>
      </trkpt>
      <trkpt lat="43.18311" lon="5.59798">
        <ele>94</ele>
        <time>2013-02-15T08:47:09Z</time>
      </trkpt>
      <trkpt lat="43.1831" lon="5.59792">
        <ele>95</ele>
        <time>2013-02-15T08:47:14Z</time>
      </trkpt>
      <trkpt lat="43.1831" lon="5.59784">
        <ele>96</ele>
        <time>2013-02-15T08:47:19Z</time>
      </trkpt>
      <trkpt lat="43.18311" lon="5.59779">
        <ele>96</ele>
        <time>2013-02-15T08:47:24Z</time>
      </trkpt>
      <trkpt lat="43.18314" lon="5.59775">
        <ele>97</ele>
        <time>2013-02-15T08:47:29Z</time>
      </trkpt>
      <trkpt lat="43.1832" lon="5.59767">
        <ele>98</ele>
        <time>2013-02-15T08:47:34Z</time>
      </trkpt>
      <trkpt lat="43.18325" lon="5.59763">
        <ele>99</ele>
        <time>2013-02-15T08:47:39Z</time>
      </trkpt>
      <trkpt lat="43.18329" lon="5.59762">
        <ele>100</ele>
        <time>2013-02-15T08:47:44Z</time>
      </trkpt>
      <trkpt lat="43.18335" lon="5.59761">
        <ele>101</ele>
        <time>2013-02-15T08:47:49Z</time>
      </trkpt>
      <trkpt lat="43.18339" lon="5.5976">
        <ele>101</ele>
        <time>2013-02-15T08:47:54Z</time>
      </trkpt>
      <trkpt lat="43.18345" lon="5.59758">
        <ele>102</ele>
        <time>2013-02-15T08:47:59Z</time>
      </trkpt>
      <trkpt lat="43.1835" lon="5.59756">
        <ele>101</ele>
        <time>2013-02-15T08:48:04Z</time>
      </trkpt>
      <trkpt lat="43.18352" lon="5.59755">
        <ele>102</ele>
        <time>2013-02-15T08:48:09Z</time>
      </trkpt>
      <trkpt lat="43.1836" lon="5.59754">
        <ele>102</ele>
        <time>2013-02-15T08:48:14Z</time>
      </trkpt>
      <trkpt lat="43.18368" lon="5.59759">
        <ele>103</ele>
        <time>2013-02-15T08:48:19Z</time>
      </trkpt>
      <trkpt lat="43.18372" lon="5.59759">
        <ele>103</ele>
        <time>2013-02-15T08:48:24Z</time>
      </trkpt>
      <trkpt lat="43.18376" lon="5.59758">
        <ele>104</ele>
        <time>2013-02-15T08:48:29Z</time>
      </trkpt>
      <trkpt lat="43.18385" lon="5.59759">
        <ele>105</ele>
        <time>2013-02-15T08:48:34Z</time>
      </trkpt>
      <trkpt lat="43.18392" lon="5.5976">
        <ele>105</ele>
        <time>2013-02-15T08:48:39Z</time>
      </trkpt>
      <trkpt lat="43.18399" lon="5.59759">
        <ele>105</ele>
        <time>2013-02-15T08:48:44Z</time>
      </trkpt>
      <trkpt lat="43.18404" lon="5.59755">
        <ele>105</ele>
        <time>2013-02-15T08:48:49Z</time>
      </trkpt>
      <trkpt lat="43.18407" lon="5.59749">
        <ele>105</ele>
        <time>2013-02-15T08:48:54Z</time>
      </trkpt>
      <trkpt lat="43.18408" lon="5.59741">
        <ele>105</ele>
        <time>2013-02-15T08:48:59Z</time>
      </trkpt>
      <trkpt lat="43.18408" lon="5.59733">
        <ele>105</ele>
        <time>2013-02-15T08:49:04Z</time>
      </trkpt>
      <trkpt lat="43.18408" lon="5.59724">
        <ele>105</ele>
        <time>2013-02-15T08:49:09Z</time>
      </trkpt>
      <trkpt lat="43.1841" lon="5.59715">
        <ele>105</ele>
        <time>2013-02-15T08:49:14Z</time>
      </trkpt>
      <trkpt lat="43.18412" lon="5.59705">
        <ele>105</ele>
        <time>2013-02-15T08:49:19Z</time>
      </trkpt>
      <trkpt lat="43.18414" lon="5.59699">
        <ele>105</ele>
        <time>2013-02-15T08:49:24Z</time>
      </trkpt>
      <trkpt lat="43.18415" lon="5.5969">
        <ele>105</ele>
        <time>2013-02-15T08:49:29Z</time>
      </trkpt>
      <trkpt lat="43.18418" lon="5.59682">
        <ele>105</ele>
        <time>2013-02-15T08:49:34Z</time>
      </trkpt>
      <trkpt lat="43.18422" lon="5.59678">
        <ele>105</ele>
        <time>2013-02-15T08:49:39Z</time>
      </trkpt>
      <trkpt lat="43.18427" lon="5.59673">
        <ele>104</ele>
        <time>2013-02-15T08:49:44Z</time>
      </trkpt>
      <trkpt lat="43.18431" lon="5.5967">
        <ele>104</ele>
        <time>2013-02-15T08:49:49Z</time>
      </trkpt>
      <trkpt lat="43.18436" lon="5.59668">
        <ele>103</ele>
        <time>2013-02-15T08:49:54Z</time>
      </trkpt>
      <trkpt lat="43.18442" lon="5.59664">
        <ele>103</ele>
        <time>2013-02-15T08:49:59Z</time>
      </trkpt>
      <trkpt lat="43.18447" lon="5.59662">
        <ele>102</ele>
        <time>2013-02-15T08:50:04Z</time>
      </trkpt>
      <trkpt lat="43.18452" lon="5.59659">
        <ele>101</ele>
        <time>2013-02-15T08:50:09Z</time>
      </trkpt>
      <trkpt lat="43.18457" lon="5.59656">
        <ele>101</ele>
        <time>2013-02-15T08:50:14Z</time>
      </trkpt>
      <trkpt lat="43.18463" lon="5.59651">
        <ele>100</ele>
        <time>2013-02-15T08:50:19Z</time>
      </trkpt>
      <trkpt lat="43.1847" lon="5.59646">
        <ele>100</ele>
        <time>2013-02-15T08:50:24Z</time>
      </trkpt>
      <trkpt lat="43.18474" lon="5.59642">
        <ele>100</ele>
        <time>2013-02-15T08:50:29Z</time>
      </trkpt>
      <trkpt lat="43.18479" lon="5.59634">
        <ele>100</ele>
        <time>2013-02-15T08:50:34Z</time>
      </trkpt>
      <trkpt lat="43.18482" lon="5.59627">
        <ele>100</ele>
        <time>2013-02-15T08:50:39Z</time>
      </trkpt>
      <trkpt lat="43.18486" lon="5.59621">
        <ele>100</ele>
        <time>2013-02-15T08:50:45Z</time>
      </trkpt>
      <trkpt lat="43.18489" lon="5.59613">
        <ele>100</ele>
        <time>2013-02-15T08:50:50Z</time>
      </trkpt>
      <trkpt lat="43.18493" lon="5.59609">
        <ele>100</ele>
        <time>2013-02-15T08:50:55Z</time>
      </trkpt>
      <trkpt lat="43.18496" lon="5.59606">
        <ele>100</ele>
        <time>2013-02-15T08:51:00Z</time>
      </trkpt>
      <trkpt lat="43.18499" lon="5.59603">
        <ele>99</ele>
        <time>2013-02-15T08:51:05Z</time>
      </trkpt>
      <trkpt lat="43.18504" lon="5.59598">
        <ele>99</ele>
        <time>2013-02-15T08:51:10Z</time>
      </trkpt>
      <trkpt lat="43.18506" lon="5.59593">
        <ele>99</ele>
        <time>2013-02-15T08:51:15Z</time>
      </trkpt>
      <trkpt lat="43.1851" lon="5.59587">
        <ele>99</ele>
        <time>2013-02-15T08:51:20Z</time>
      </trkpt>
      <trkpt lat="43.18515" lon="5.59582">
        <ele>99</ele>
        <time>2013-02-15T08:51:25Z</time>
      </trkpt>
      <trkpt lat="43.1852" lon="5.59577">
        <ele>99</ele>
        <time>2013-02-15T08:51:30Z</time>
      </trkpt>
      <trkpt lat="43.18524" lon="5.59574">
        <ele>99</ele>
        <time>2013-02-15T08:51:35Z</time>
      </trkpt>
      <trkpt lat="43.18526" lon="5.59572">
        <ele>99</ele>
        <time>2013-02-15T08:51:40Z</time>
      </trkpt>
      <trkpt lat="43.18531" lon="5.59567">
        <ele>99</ele>
        <time>2013-02-15T08:51:45Z</time>
      </trkpt>
      <trkpt lat="43.18537" lon="5.59561">
        <ele>100</ele>
        <time>2013-02-15T08:51:50Z</time>
      </trkpt>
      <trkpt lat="43.18543" lon="5.59557">
        <ele>100</ele>
        <time>2013-02-15T08:51:55Z</time>
      </trkpt>
      <trkpt lat="43.1855" lon="5.5955">
        <ele>100</ele>
        <time>2013-02-15T08:52:00Z</time>
      </trkpt>
      <trkpt lat="43.18557" lon="5.59546">
        <ele>100</ele>
        <time>2013-02-15T08:52:05Z</time>
      </trkpt>
      <trkpt lat="43.18565" lon="5.5954">
        <ele>99</ele>
        <time>2013-02-15T08:52:10Z</time>
      </trkpt>
      <trkpt lat="43.1857" lon="5.59536">
        <ele>99</ele>
        <time>2013-02-15T08:52:15Z</time>
      </trkpt>
      <trkpt lat="43.18576" lon="5.59532">
        <ele>98</ele>
        <time>2013-02-15T08:52:20Z</time>
      </trkpt>
      <trkpt lat="43.18581" lon="5.5953">
        <ele>98</ele>
        <time>2013-02-15T08:52:25Z</time>
      </trkpt>
      <trkpt lat="43.18586" lon="5.59527">
        <ele>97</ele>
        <time>2013-02-15T08:52:30Z</time>
      </trkpt>
      <trkpt lat="43.18593" lon="5.59523">
        <ele>97</ele>
        <time>2013-02-15T08:52:35Z</time>
      </trkpt>
      <trkpt lat="43.18601" lon="5.5952">
        <ele>97</ele>
        <time>2013-02-15T08:52:40Z</time>
      </trkpt>
      <trkpt lat="43.18607" lon="5.59517">
        <ele>96</ele>
        <time>2013-02-15T08:52:45Z</time>
      </trkpt>
      <trkpt lat="43.18611" lon="5.59516">
        <ele>96</ele>
        <time>2013-02-15T08:52:50Z</time>
      </trkpt>
      <trkpt lat="43.18616" lon="5.59512">
        <ele>96</ele>
        <time>2013-02-15T08:52:55Z</time>
      </trkpt>
      <trkpt lat="43.18622" lon="5.59508">
        <ele>97</ele>
        <time>2013-02-15T08:53:00Z</time>
      </trkpt>
      <trkpt lat="43.18625" lon="5.59505">
        <ele>97</ele>
        <time>2013-02-15T08:53:05Z</time>
      </trkpt>
      <trkpt lat="43.18631" lon="5.595">
        <ele>97</ele>
        <time>2013-02-15T08:53:10Z</time>
      </trkpt>
      <trkpt lat="43.18636" lon="5.59494">
        <ele>98</ele>
        <time>2013-02-15T08:53:15Z</time>
      </trkpt>
      <trkpt lat="43.18643" lon="5.59487">
        <ele>98</ele>
        <time>2013-02-15T08:53:20Z</time>
      </trkpt>
      <trkpt lat="43.1865" lon="5.59485">
        <ele>98</ele>
        <time>2013-02-15T08:53:25Z</time>
      </trkpt>
      <trkpt lat="43.18657" lon="5.59479">
        <ele>98</ele>
        <time>2013-02-15T08:53:30Z</time>
      </trkpt>
      <trkpt lat="43.18662" lon="5.59474">
        <ele>98</ele>
        <time>2013-02-15T08:53:35Z</time>
      </trkpt>
      <trkpt lat="43.18664" lon="5.5947">
        <ele>98</ele>
        <time>2013-02-15T08:53:40Z</time>
      </trkpt>
      <trkpt lat="43.18665" lon="5.59465">
        <ele>98</ele>
        <time>2013-02-15T08:53:45Z</time>
      </trkpt>
      <trkpt lat="43.18667" lon="5.59455">
        <ele>98</ele>
        <time>2013-02-15T08:53:50Z</time>
      </trkpt>
      <trkpt lat="43.18667" lon="5.59444">
        <ele>99</ele>
        <time>2013-02-15T08:53:55Z</time>
      </trkpt>
      <trkpt lat="43.18667" lon="5.59435">
        <ele>99</ele>
        <time>2013-02-15T08:54:00Z</time>
      </trkpt>
      <trkpt lat="43.18666" lon="5.59427">
        <ele>100</ele>
        <time>2013-02-15T08:54:05Z</time>
      </trkpt>
      <trkpt lat="43.18664" lon="5.59418">
        <ele>101</ele>
        <time>2013-02-15T08:54:10Z</time>
      </trkpt>
      <trkpt lat="43.18666" lon="5.59407">
        <ele>101</ele>
        <time>2013-02-15T08:54:15Z</time>
      </trkpt>
      <trkpt lat="43.18669" lon="5.59399">
        <ele>101</ele>
        <time>2013-02-15T08:54:20Z</time>
      </trkpt>
      <trkpt lat="43.1867" lon="5.5939">
        <ele>102</ele>
        <time>2013-02-15T08:54:25Z</time>
      </trkpt>
      <trkpt lat="43.18673" lon="5.59384">
        <ele>102</ele>
        <time>2013-02-15T08:54:30Z</time>
      </trkpt>
      <trkpt lat="43.18677" lon="5.59377">
        <ele>102</ele>
        <time>2013-02-15T08:54:35Z</time>
      </trkpt>
      <trkpt lat="43.18682" lon="5.59371">
        <ele>102</ele>
        <time>2013-02-15T08:54:40Z</time>
      </trkpt>
      <trkpt lat="43.18687" lon="5.59365">
        <ele>102</ele>
        <time>2013-02-15T08:54:45Z</time>
      </trkpt>
      <trkpt lat="43.1869" lon="5.59361">
        <ele>103</ele>
        <time>2013-02-15T08:54:50Z</time>
      </trkpt>
      <trkpt lat="43.18697" lon="5.59357">
        <ele>104</ele>
        <time>2013-02-15T08:54:55Z</time>
      </trkpt>
      <trkpt lat="43.18702" lon="5.59355">
        <ele>104</ele>
        <time>2013-02-15T08:55:00Z</time>
      </trkpt>
      <trkpt lat="43.18709" lon="5.59352">
        <ele>105</ele>
        <time>2013-02-15T08:55:05Z</time>
      </trkpt>
      <trkpt lat="43.18713" lon="5.5935">
        <ele>106</ele>
        <time>2013-02-15T08:55:10Z</time>
      </trkpt>
      <trkpt lat="43.18719" lon="5.59346">
        <ele>106</ele>
        <time>2013-02-15T08:55:15Z</time>
      </trkpt>
      <trkpt lat="43.18726" lon="5.59341">
        <ele>107</ele>
        <time>2013-02-15T08:55:20Z</time>
      </trkpt>
      <trkpt lat="43.18732" lon="5.59334">
        <ele>107</ele>
        <time>2013-02-15T08:55:25Z</time>
      </trkpt>
      <trkpt lat="43.18735" lon="5.59327">
        <ele>108</ele>
        <time>2013-02-15T08:55:30Z</time>
      </trkpt>
      <trkpt lat="43.18738" lon="5.59319">
        <ele>109</ele>
        <time>2013-02-15T08:55:35Z</time>
      </trkpt>
      <trkpt lat="43.1874" lon="5.5931">
        <ele>108</ele>
        <time>2013-02-15T08:55:40Z</time>
      </trkpt>
      <trkpt lat="43.18743" lon="5.59302">
        <ele>109</ele>
        <time>2013-02-15T08:55:45Z</time>
      </trkpt>
      <trkpt lat="43.18745" lon="5.59295">
        <ele>109</ele>
        <time>2013-02-15T08:55:50Z</time>
      </trkpt>
      <trkpt lat="43.18749" lon="5.59288">
        <ele>109</ele>
        <time>2013-02-15T08:55:55Z</time>
      </trkpt>
      <trkpt lat="43.18754" lon="5.5928">
        <ele>108</ele>
        <time>2013-02-15T08:56:00Z</time>
      </trkpt>
      <trkpt lat="43.18757" lon="5.59275">
        <ele>108</ele>
        <time>2013-02-15T08:56:05Z</time>
      </trkpt>
      <trkpt lat="43.18761" lon="5.5927">
        <ele>108</ele>
        <time>2013-02-15T08:56:10Z</time>
      </trkpt>
      <trkpt lat="43.18766" lon="5.59266">
        <ele>109</ele>
        <time>2013-02-15T08:56:15Z</time>
      </trkpt>
      <trkpt lat="43.18772" lon="5.59261">
        <ele>109</ele>
        <time>2013-02-15T08:56:20Z</time>
      </trkpt>
      <trkpt lat="43.18777" lon="5.59258">
        <ele>110</ele>
        <time>2013-02-15T08:56:25Z</time>
      </trkpt>
      <trkpt lat="43.18782" lon="5.59257">
        <ele>109</ele>
        <time>2013-02-15T08:56:30Z</time>
      </trkpt>
      <trkpt lat="43.18789" lon="5.59257">
        <ele>109</ele>
        <time>2013-02-15T08:56:35Z</time>
      </trkpt>
      <trkpt lat="43.18794" lon="5.59254">
        <ele>110</ele>
        <time>2013-02-15T08:56:40Z</time>
      </trkpt>
      <trkpt lat="43.188" lon="5.59249">
        <ele>110</ele>
        <time>2013-02-15T08:56:45Z</time>
      </trkpt>
      <trkpt lat="43.18805" lon="5.59246">
        <ele>111</ele>
        <time>2013-02-15T08:56:50Z</time>
      </trkpt>
      <trkpt lat="43.18812" lon="5.59243">
        <ele>112</ele>
        <time>2013-02-15T08:56:55Z</time>
      </trkpt>
      <trkpt lat="43.18818" lon="5.59239">
        <ele>112</ele>
        <time>2013-02-15T08:57:00Z</time>
      </trkpt>
      <trkpt lat="43.18826" lon="5.59234">
        <ele>113</ele>
        <time>2013-02-15T08:57:05Z</time>
      </trkpt>
      <trkpt lat="43.18831" lon="5.59231">
        <ele>114</ele>
        <time>2013-02-15T08:57:10Z</time>
      </trkpt>
      <trkpt lat="43.18836" lon="5.59228">
        <ele>114</ele>
        <time>2013-02-15T08:57:15Z</time>
      </trkpt>
      <trkpt lat="43.18839" lon="5.59226">
        <ele>115</ele>
        <time>2013-02-15T08:57:20Z</time>
      </trkpt>
      <trkpt lat="43.18844" lon="5.59224">
        <ele>115</ele>
        <time>2013-02-15T08:57:25Z</time>
      </trkpt>
      <trkpt lat="43.18849" lon="5.59221">
        <ele>115</ele>
        <time>2013-02-15T08:57:30Z</time>
      </trkpt>
      <trkpt lat="43.18856" lon="5.59215">
        <ele>114</ele>
        <time>2013-02-15T08:57:35Z</time>
      </trkpt>
      <trkpt lat="43.18862" lon="5.5921">
        <ele>114</ele>
        <time>2013-02-15T08:57:40Z</time>
      </trkpt>
      <trkpt lat="43.18866" lon="5.59206">
        <ele>113</ele>
        <time>2013-02-15T08:57:45Z</time>
      </trkpt>
      <trkpt lat="43.18872" lon="5.59198">
        <ele>113</ele>
        <time>2013-02-15T08:57:50Z</time>
      </trkpt>
      <trkpt lat="43.18876" lon="5.5919">
        <ele>113</ele>
        <time>2013-02-15T08:57:55Z</time>
      </trkpt>
      <trkpt lat="43.18881" lon="5.59184">
        <ele>112</ele>
        <time>2013-02-15T08:58:00Z</time>
      </trkpt>
      <trkpt lat="43.18886" lon="5.59178">
        <ele>112</ele>
        <time>2013-02-15T08:58:05Z</time>
      </trkpt>
      <trkpt lat="43.1889" lon="5.59173">
        <ele>111</ele>
        <time>2013-02-15T08:58:10Z</time>
      </trkpt>
      <trkpt lat="43.18895" lon="5.59169">
        <ele>111</ele>
        <time>2013-02-15T08:58:15Z</time>
      </trkpt>
      <trkpt lat="43.18899" lon="5.59164">
        <ele>111</ele>
        <time>2013-02-15T08:58:20Z</time>
      </trkpt>
      <trkpt lat="43.18903" lon="5.59158">
        <ele>110</ele>
        <time>2013-02-15T08:58:25Z</time>
      </trkpt>
      <trkpt lat="43.18908" lon="5.59153">
        <ele>110</ele>
        <time>2013-02-15T08:58:30Z</time>
      </trkpt>
      <trkpt lat="43.18914" lon="5.59148">
        <ele>109</ele>
        <time>2013-02-15T08:58:35Z</time>
      </trkpt>
      <trkpt lat="43.18918" lon="5.59143">
        <ele>109</ele>
        <time>2013-02-15T08:58:40Z</time>
      </trkpt>
      <trkpt lat="43.18922" lon="5.59136">
        <ele>109</ele>
        <time>2013-02-15T08:58:45Z</time>
      </trkpt>
      <trkpt lat="43.18926" lon="5.59126">
        <ele>110</ele>
        <time>2013-02-15T08:58:50Z</time>
      </trkpt>
      <trkpt lat="43.18929" lon="5.59116">
        <ele>110</ele>
        <time>2013-02-15T08:58:55Z</time>
      </trkpt>
      <trkpt lat="43.18933" lon="5.59106">
        <ele>111</ele>
        <time>2013-02-15T08:59:00Z</time>
      </trkpt>
      <trkpt lat="43.18935" lon="5.59097">
        <ele>112</ele>
        <time>2013-02-15T08:59:05Z</time>
      </trkpt>
      <trkpt lat="43.18938" lon="5.59089">
        <ele>112</ele>
        <time>2013-02-15T08:59:10Z</time>
      </trkpt>
      <trkpt lat="43.18939" lon="5.59085">
        <ele>113</ele>
        <time>2013-02-15T08:59:15Z</time>
      </trkpt>
      <trkpt lat="43.18941" lon="5.59077">
        <ele>115</ele>
        <time>2013-02-15T08:59:20Z</time>
      </trkpt>
      <trkpt lat="43.18944" lon="5.59068">
        <ele>115</ele>
        <time>2013-02-15T08:59:25Z</time>
      </trkpt>
      <trkpt lat="43.18949" lon="5.5906">
        <ele>115</ele>
        <time>2013-02-15T08:59:30Z</time>
      </trkpt>
      <trkpt lat="43.18952" lon="5.59052">
        <ele>115</ele>
        <time>2013-02-15T08:59:35Z</time>
      </trkpt>
      <trkpt lat="43.18955" lon="5.59044">
        <ele>115</ele>
        <time>2013-02-15T08:59:40Z</time>
      </trkpt>
      <trkpt lat="43.18961" lon="5.59037">
        <ele>115</ele>
        <time>2013-02-15T08:59:45Z</time>
      </trkpt>
      <trkpt lat="43.18965" lon="5.59033">
        <ele>116</ele>
        <time>2013-02-15T08:59:50Z</time>
      </trkpt>
      <trkpt lat="43.1897" lon="5.59031">
        <ele>116</ele>
        <time>2013-02-15T08:59:55Z</time>
      </trkpt>
      <trkpt lat="43.18975" lon="5.59029">
        <ele>116</ele>
        <time>2013-02-15T09:00:00Z</time>
      </trkpt>
      <trkpt lat="43.18981" lon="5.59026">
        <ele>117</ele>
        <time>2013-02-15T09:00:05Z</time>
      </trkpt>
      <trkpt lat="43.18987" lon="5.59022">
        <ele>117</ele>
        <time>2013-02-15T09:00:10Z</time>
      </trkpt>
      <trkpt lat="43.18992" lon="5.5902">
        <ele>117</ele>
        <time>2013-02-15T09:00:15Z</time>
      </trkpt>
      <trkpt lat="43.18997" lon="5.5902">
        <ele>117</ele>
        <time>2013-02-15T09:00:20Z</time>
      </trkpt>
      <trkpt lat="43.19001" lon="5.5902">
        <ele>117</ele>
        <time>2013-02-15T09:00:25Z</time>
      </trkpt>
      <trkpt lat="43.19007" lon="5.59019">
        <ele>117</ele>
        <time>2013-02-15T09:00:30Z</time>
      </trkpt>
      <trkpt lat="43.19012" lon="5.5902">
        <ele>117</ele>
        <time>2013-02-15T09:00:35Z</time>
      </trkpt>
      <trkpt lat="43.19019" lon="5.5902">
        <ele>117</ele>
        <time>2013-02-15T09:00:40Z</time>
      </trkpt>
      <trkpt lat="43.19025" lon="5.59018">
        <ele>117</ele>
        <time>2013-02-15T09:00:45Z</time>
      </trkpt>
      <trkpt lat="43.1903" lon="5.59015">
        <ele>117</ele>
        <time>2013-02-15T09:00:50Z</time>
      </trkpt>
      <trkpt lat="43.19036" lon="5.59011">
        <ele>117</ele>
        <time>2013-02-15T09:00:55Z</time>
      </trkpt>
      <trkpt lat="43.1904" lon="5.59004">
        <ele>117</ele>
        <time>2013-02-15T09:01:00Z</time>
      </trkpt>
      <trkpt lat="43.19044" lon="5.58995">
        <ele>117</ele>
        <time>2013-02-15T09:01:05Z</time>
      </trkpt>
      <trkpt lat="43.19047" lon="5.58988">
        <ele>117</ele>
        <time>2013-02-15T09:01:10Z</time>
      </trkpt>
      <trkpt lat="43.19051" lon="5.58979">
        <ele>118</ele>
        <time>2013-02-15T09:01:15Z</time>
      </trkpt>
      <trkpt lat="43.19054" lon="5.58979">
        <ele>118</ele>
        <time>2013-02-15T09:01:20Z</time>
      </trkpt>
      <trkpt lat="43.19059" lon="5.58976">
        <ele>119</ele>
        <time>2013-02-15T09:01:25Z</time>
      </trkpt>
      <trkpt lat="43.19065" lon="5.5897">
        <ele>119</ele>
        <time>2013-02-15T09:01:30Z</time>
      </trkpt>
      <trkpt lat="43.19072" lon="5.58965">
        <ele>119</ele>
        <time>2013-02-15T09:01:35Z</time>
      </trkpt>
      <trkpt lat="43.19076" lon="5.58963">
        <ele>120</ele>
        <time>2013-02-15T09:01:40Z</time>
      </trkpt>
      <trkpt lat="43.19079" lon="5.5896">
        <ele>122</ele>
        <time>2013-02-15T09:01:45Z</time>
      </trkpt>
      <trkpt lat="43.19087" lon="5.58955">
        <ele>123</ele>
        <time>2013-02-15T09:01:50Z</time>
      </trkpt>
      <trkpt lat="43.19094" lon="5.5895">
        <ele>123</ele>
        <time>2013-02-15T09:01:55Z</time>
      </trkpt>
      <trkpt lat="43.19102" lon="5.58943">
        <ele>124</ele>
        <time>2013-02-15T09:02:00Z</time>
      </trkpt>
      <trkpt lat="43.19108" lon="5.5894">
        <ele>124</ele>
        <time>2013-02-15T09:02:05Z</time>
      </trkpt>
      <trkpt lat="43.19113" lon="5.5894">
        <ele>125</ele>
        <time>2013-02-15T09:02:10Z</time>
      </trkpt>
      <trkpt lat="43.19119" lon="5.5894">
        <ele>126</ele>
        <time>2013-02-15T09:02:15Z</time>
      </trkpt>
      <trkpt lat="43.19124" lon="5.58944">
        <ele>126</ele>
        <time>2013-02-15T09:02:20Z</time>
      </trkpt>
      <trkpt lat="43.19132" lon="5.58948">
        <ele>126</ele>
        <time>2013-02-15T09:02:25Z</time>
      </trkpt>
      <trkpt lat="43.1914" lon="5.58951">
        <ele>126</ele>
        <time>2013-02-15T09:02:30Z</time>
      </trkpt>
      <trkpt lat="43.19145" lon="5.58955">
        <ele>126</ele>
        <time>2013-02-15T09:02:35Z</time>
      </trkpt>
      <trkpt lat="43.19151" lon="5.58954">
        <ele>126</ele>
        <time>2013-02-15T09:02:40Z</time>
      </trkpt>
      <trkpt lat="43.19156" lon="5.58951">
        <ele>126</ele>
        <time>2013-02-15T09:02:45Z</time>
      </trkpt>
      <trkpt lat="43.1916" lon="5.58945">
        <ele>125</ele>
        <time>2013-02-15T09:02:50Z</time>
      </trkpt>
      <trkpt lat="43.19164" lon="5.58938">
        <ele>124</ele>
        <time>2013-02-15T09:02:55Z</time>
      </trkpt>
      <trkpt lat="43.19168" lon="5.58933">
        <ele>124</ele>
        <time>2013-02-15T09:03:00Z</time>
      </trkpt>
      <trkpt lat="43.19174" lon="5.58922">
        <ele>124</ele>
        <time>2013-02-15T09:03:05Z</time>
      </trkpt>
      <trkpt lat="43.19177" lon="5.58916">
        <ele>124</ele>
        <time>2013-02-15T09:03:10Z</time>
      </trkpt>
      <trkpt lat="43.1918" lon="5.58908">
        <ele>124</ele>
        <time>2013-02-15T09:03:15Z</time>
      </trkpt>
      <trkpt lat="43.19181" lon="5.58901">
        <ele>124</ele>
        <time>2013-02-15T09:03:20Z</time>
      </trkpt>
      <trkpt lat="43.19184" lon="5.58894">
        <ele>124</ele>
        <time>2013-02-15T09:03:25Z</time>
      </trkpt>
      <trkpt lat="43.19184" lon="5.58886">
        <ele>124</ele>
        <time>2013-02-15T09:03:30Z</time>
      </trkpt>
      <trkpt lat="43.19184" lon="5.58876">
        <ele>124</ele>
        <time>2013-02-15T09:03:35Z</time>
      </trkpt>
      <trkpt lat="43.19182" lon="5.58866">
        <ele>124</ele>
        <time>2013-02-15T09:03:40Z</time>
      </trkpt>
      <trkpt lat="43.19182" lon="5.5886">
        <ele>124</ele>
        <time>2013-02-15T09:03:45Z</time>
      </trkpt>
      <trkpt lat="43.19184" lon="5.5885">
        <ele>124</ele>
        <time>2013-02-15T09:03:50Z</time>
      </trkpt>
      <trkpt lat="43.19186" lon="5.58843">
        <ele>124</ele>
        <time>2013-02-15T09:03:55Z</time>
      </trkpt>
      <trkpt lat="43.19187" lon="5.5884">
        <ele>124</ele>
        <time>2013-02-15T09:04:00Z</time>
      </trkpt>
      <trkpt lat="43.1919" lon="5.58837">
        <ele>124</ele>
        <time>2013-02-15T09:04:05Z</time>
      </trkpt>
      <trkpt lat="43.19196" lon="5.5883">
        <ele>124</ele>
        <time>2013-02-15T09:04:10Z</time>
      </trkpt>
      <trkpt lat="43.192" lon="5.58824">
        <ele>124</ele>
        <time>2013-02-15T09:04:15Z</time>
      </trkpt>
      <trkpt lat="43.19204" lon="5.58817">
        <ele>123</ele>
        <time>2013-02-15T09:04:20Z</time>
      </trkpt>
      <trkpt lat="43.19207" lon="5.58809">
        <ele>124</ele>
        <time>2013-02-15T09:04:25Z</time>
      </trkpt>
      <trkpt lat="43.19209" lon="5.58802">
        <ele>124</ele>
        <time>2013-02-15T09:04:30Z</time>
      </trkpt>
      <trkpt lat="43.19208" lon="5.58796">
        <ele>124</ele>
        <time>2013-02-15T09:04:35Z</time>
      </trkpt>
      <trkpt lat="43.19207" lon="5.58789">
        <ele>125</ele>
        <time>2013-02-15T09:04:40Z</time>
      </trkpt>
      <trkpt lat="43.19205" lon="5.58781">
        <ele>125</ele>
        <time>2013-02-15T09:04:45Z</time>
      </trkpt>
      <trkpt lat="43.19204" lon="5.58773">
        <ele>124</ele>
        <time>2013-02-15T09:04:50Z</time>
      </trkpt>
      <trkpt lat="43.19205" lon="5.58766">
        <ele>123</ele>
        <time>2013-02-15T09:04:55Z</time>
      </trkpt>
      <trkpt lat="43.19207" lon="5.58757">
        <ele>123</ele>
        <time>2013-02-15T09:05:00Z</time>
      </trkpt>
      <trkpt lat="43.1921" lon="5.58749">
        <ele>122</ele>
        <time>2013-02-15T09:05:05Z</time>
      </trkpt>
      <trkpt lat="43.19213" lon="5.5874">
        <ele>122</ele>
        <time>2013-02-15T09:05:10Z</time>
      </trkpt>
      <trkpt lat="43.19219" lon="5.58734">
        <ele>121</ele>
        <time>2013-02-15T09:05:15Z</time>
      </trkpt>
      <trkpt lat="43.19223" lon="5.58731">
        <ele>121</ele>
        <time>2013-02-15T09:05:20Z</time>
      </trkpt>
      <trkpt lat="43.19229" lon="5.58727">
        <ele>122</ele>
        <time>2013-02-15T09:05:25Z</time>
      </trkpt>
      <trkpt lat="43.19235" lon="5.58724">
        <ele>123</ele>
        <time>2013-02-15T09:05:30Z</time>
      </trkpt>
      <trkpt lat="43.19242" lon="5.5872">
        <ele>124</ele>
        <time>2013-02-15T09:05:35Z</time>
      </trkpt>
      <trkpt lat="43.19247" lon="5.58716">
        <ele>124</ele>
        <time>2013-02-15T09:05:40Z</time>
      </trkpt>
      <trkpt lat="43.19252" lon="5.58715">
        <ele>125</ele>
        <time>2013-02-15T09:05:45Z</time>
      </trkpt>
      <trkpt lat="43.19261" lon="5.58712">
        <ele>125</ele>
        <time>2013-02-15T09:05:50Z</time>
      </trkpt>
      <trkpt lat="43.19268" lon="5.58707">
        <ele>126</ele>
        <time>2013-02-15T09:05:55Z</time>
      </trkpt>
      <trkpt lat="43.19272" lon="5.58704">
        <ele>126</ele>
        <time>2013-02-15T09:06:00Z</time>
      </trkpt>
      <trkpt lat="43.19275" lon="5.58701">
        <ele>126</ele>
        <time>2013-02-15T09:06:05Z</time>
      </trkpt>
      <trkpt lat="43.19279" lon="5.58697">
        <ele>126</ele>
        <time>2013-02-15T09:06:10Z</time>
      </trkpt>
      <trkpt lat="43.19284" lon="5.58691">
        <ele>127</ele>
        <time>2013-02-15T09:06:15Z</time>
      </trkpt>
      <trkpt lat="43.19288" lon="5.58684">
        <ele>128</ele>
        <time>2013-02-15T09:06:20Z</time>
      </trkpt>
      <trkpt lat="43.19293" lon="5.58677">
        <ele>129</ele>
        <time>2013-02-15T09:06:25Z</time>
      </trkpt>
      <trkpt lat="43.19297" lon="5.5867">
        <ele>130</ele>
        <time>2013-02-15T09:06:30Z</time>
      </trkpt>
      <trkpt lat="43.19302" lon="5.58658">
        <ele>131</ele>
        <time>2013-02-15T09:06:35Z</time>
      </trkpt>
      <trkpt lat="43.19305" lon="5.5865">
        <ele>132</ele>
        <time>2013-02-15T09:06:40Z</time>
      </trkpt>
      <trkpt lat="43.19308" lon="5.58642">
        <ele>132</ele>
        <time>2013-02-15T09:06:45Z</time>
      </trkpt>
      <trkpt lat="43.19312" lon="5.58635">
        <ele>132</ele>
        <time>2013-02-15T09:06:50Z</time>
      </trkpt>
      <trkpt lat="43.19314" lon="5.58629">
        <ele>131</ele>
        <time>2013-02-15T09:06:55Z</time>
      </trkpt>
      <trkpt lat="43.19317" lon="5.58625">
        <ele>131</ele>
        <time>2013-02-15T09:07:00Z</time>
      </trkpt>
      <trkpt lat="43.19319" lon="5.58618">
        <ele>132</ele>
        <time>2013-02-15T09:07:05Z</time>
      </trkpt>
      <trkpt lat="43.19321" lon="5.5861">
        <ele>133</ele>
        <time>2013-02-15T09:07:10Z</time>
      </trkpt>
      <trkpt lat="43.19322" lon="5.58601">
        <ele>134</ele>
        <time>2013-02-15T09:07:15Z</time>
      </trkpt>
      <trkpt lat="43.19323" lon="5.58595">
        <ele>134</ele>
        <time>2013-02-15T09:07:20Z</time>
      </trkpt>
      <trkpt lat="43.19323" lon="5.5859">
        <ele>134</ele>
        <time>2013-02-15T09:07:25Z</time>
      </trkpt>
      <trkpt lat="43.19322" lon="5.58584">
        <ele>134</ele>
        <time>2013-02-15T09:07:30Z</time>
      </trkpt>
      <trkpt lat="43.19318" lon="5.5858">
        <ele>134</ele>
        <time>2013-02-15T09:07:35Z</time>
      </trkpt>
      <trkpt lat="43.19318" lon="5.58571">
        <ele>133</ele>
        <time>2013-02-15T09:07:40Z</time>
      </trkpt>
      <trkpt lat="43.19318" lon="5.58565">
        <ele>134</ele>
        <time>2013-02-15T09:07:45Z</time>
      </trkpt>
      <trkpt lat="43.19316" lon="5.58558">
        <ele>135</ele>
        <time>2013-02-15T09:07:50Z</time>
      </trkpt>
      <trkpt lat="43.19317" lon="5.58549">
        <ele>136</ele>
        <time>2013-02-15T09:07:55Z</time>
      </trkpt>
      <trkpt lat="43.19317" lon="5.58537">
        <ele>138</ele>
        <time>2013-02-15T09:08:00Z</time>
      </trkpt>
      <trkpt lat="43.19317" lon="5.58523">
        <ele>140</ele>
        <time>2013-02-15T09:08:05Z</time>
      </trkpt>
      <trkpt lat="43.19313" lon="5.58509">
        <ele>142</ele>
        <time>2013-02-15T09:08:10Z</time>
      </trkpt>
      <trkpt lat="43.19312" lon="5.58501">
        <ele>143</ele>
        <time>2013-02-15T09:08:15Z</time>
      </trkpt>
      <trkpt lat="43.1931" lon="5.58493">
        <ele>144</ele>
        <time>2013-02-15T09:08:20Z</time>
      </trkpt>
      <trkpt lat="43.19307" lon="5.58487">
        <ele>144</ele>
        <time>2013-02-15T09:08:25Z</time>
      </trkpt>
      <trkpt lat="43.19307" lon="5.58481">
        <ele>144</ele>
        <time>2013-02-15T09:08:30Z</time>
      </trkpt>
      <trkpt lat="43.19305" lon="5.58475">
        <ele>144</ele>
        <time>2013-02-15T09:08:35Z</time>
      </trkpt>
      <trkpt lat="43.19301" lon="5.58466">
        <ele>144</ele>
        <time>2013-02-15T09:08:40Z</time>
      </trkpt>
      <trkpt lat="43.19297" lon="5.58458">
        <ele>144</ele>
        <time>2013-02-15T09:08:45Z</time>
      </trkpt>
      <trkpt lat="43.19291" lon="5.58452">
        <ele>143</ele>
        <time>2013-02-15T09:08:50Z</time>
      </trkpt>
      <trkpt lat="43.19289" lon="5.58449">
        <ele>142</ele>
        <time>2013-02-15T09:08:55Z</time>
      </trkpt>
      <trkpt lat="43.19284" lon="5.58442">
        <ele>141</ele>
        <time>2013-02-15T09:09:00Z</time>
      </trkpt>
      <trkpt lat="43.19282" lon="5.58437">
        <ele>140</ele>
        <time>2013-02-15T09:09:05Z</time>
      </trkpt>
      <trkpt lat="43.1928" lon="5.58431">
        <ele>140</ele>
        <time>2013-02-15T09:09:10Z</time>
      </trkpt>
      <trkpt lat="43.19277" lon="5.58422">
        <ele>139</ele>
        <time>2013-02-15T09:09:15Z</time>
      </trkpt>
      <trkpt lat="43.19276" lon="5.58415">
        <ele>139</ele>
        <time>2013-02-15T09:09:20Z</time>
      </trkpt>
      <trkpt lat="43.19278" lon="5.58406">
        <ele>138</ele>
        <time>2013-02-15T09:09:25Z</time>
      </trkpt>
      <trkpt lat="43.19279" lon="5.58397">
        <ele>138</ele>
        <time>2013-02-15T09:09:30Z</time>
      </trkpt>
      <trkpt lat="43.1928" lon="5.58389">
        <ele>138</ele>
        <time>2013-02-15T09:09:35Z</time>
      </trkpt>
      <trkpt lat="43.1928" lon="5.5838">
        <ele>138</ele>
        <time>2013-02-15T09:09:40Z</time>
      </trkpt>
      <trkpt lat="43.19279" lon="5.5837">
        <ele>138</ele>
        <time>2013-02-15T09:09:45Z</time>
      </trkpt>
      <trkpt lat="43.19279" lon="5.58363">
        <ele>138</ele>
        <time>2013-02-15T09:09:50Z</time>
      </trkpt>
      <trkpt lat="43.19278" lon="5.58353">
        <ele>138</ele>
        <time>2013-02-15T09:09:55Z</time>
      </trkpt>
      <trkpt lat="43.19275" lon="5.5834">
        <ele>138</ele>
        <time>2013-02-15T09:10:00Z</time>
      </trkpt>
      <trkpt lat="43.19273" lon="5.58332">
        <ele>138</ele>
        <time>2013-02-15T09:10:05Z</time>
      </trkpt>
      <trkpt lat="43.19272" lon="5.58323">
        <ele>137</ele>
        <time>2013-02-15T09:10:10Z</time>
      </trkpt>
      <trkpt lat="43.19271" lon="5.58316">
        <ele>137</ele>
        <time>2013-02-15T09:10:15Z</time>
      </trkpt>
      <trkpt lat="43.19271" lon="5.58312">
        <ele>138</ele>
        <time>2013-02-15T09:10:20Z</time>
      </trkpt>
      <trkpt lat="43.19271" lon="5.58303">
        <ele>138</ele>
        <time>2013-02-15T09:10:25Z</time>
      </trkpt>
      <trkpt lat="43.19272" lon="5.58294">
        <ele>138</ele>
        <time>2013-02-15T09:10:30Z</time>
      </trkpt>
      <trkpt lat="43.19276" lon="5.58285">
        <ele>138</ele>
        <time>2013-02-15T09:10:35Z</time>
      </trkpt>
      <trkpt lat="43.19281" lon="5.58278">
        <ele>138</ele>
        <time>2013-02-15T09:10:40Z</time>
      </trkpt>
      <trkpt lat="43.19288" lon="5.58272">
        <ele>138</ele>
        <time>2013-02-15T09:10:45Z</time>
      </trkpt>
      <trkpt lat="43.19294" lon="5.58268">
        <ele>138</ele>
        <time>2013-02-15T09:10:50Z</time>
      </trkpt>
      <trkpt lat="43.19299" lon="5.5826">
        <ele>138</ele>
        <time>2013-02-15T09:10:55Z</time>
      </trkpt>
      <trkpt lat="43.19303" lon="5.58255">
        <ele>138</ele>
        <time>2013-02-15T09:11:00Z</time>
      </trkpt>
      <trkpt lat="43.19308" lon="5.58248">
        <ele>139</ele>
        <time>2013-02-15T09:11:05Z</time>
      </trkpt>
      <trkpt lat="43.19311" lon="5.5824">
        <ele>139</ele>
        <time>2013-02-15T09:11:10Z</time>
      </trkpt>
      <trkpt lat="43.19312" lon="5.58233">
        <ele>140</ele>
        <time>2013-02-15T09:11:15Z</time>
      </trkpt>
      <trkpt lat="43.19313" lon="5.58225">
        <ele>140</ele>
        <time>2013-02-15T09:11:20Z</time>
      </trkpt>
      <trkpt lat="43.19312" lon="5.58218">
        <ele>140</ele>
        <time>2013-02-15T09:11:25Z</time>
      </trkpt>
      <trkpt lat="43.19313" lon="5.5821">
        <ele>141</ele>
        <time>2013-02-15T09:11:30Z</time>
      </trkpt>
      <trkpt lat="43.19312" lon="5.582">
        <ele>142</ele>
        <time>2013-02-15T09:11:35Z</time>
      </trkpt>
      <trkpt lat="43.19311" lon="5.5819">
        <ele>142</ele>
        <time>2013-02-15T09:11:40Z</time>
      </trkpt>
      <trkpt lat="43.1931" lon="5.58185">
        <ele>144</ele>
        <time>2013-02-15T09:11:45Z</time>
      </trkpt>
      <trkpt lat="43.19307" lon="5.58176">
        <ele>145</ele>
        <time>2013-02-15T09:11:50Z</time>
      </trkpt>
      <trkpt lat="43.19306" lon="5.58167">
        <ele>146</ele>
        <time>2013-02-15T09:11:55Z</time>
      </trkpt>
      <trkpt lat="43.19304" lon="5.5816">
        <ele>146</ele>
        <time>2013-02-15T09:12:00Z</time>
      </trkpt>
      <trkpt lat="43.193" lon="5.58155">
        <ele>147</ele>
        <time>2013-02-15T09:12:05Z</time>
      </trkpt>
      <trkpt lat="43.19297" lon="5.58148">
        <ele>147</ele>
        <time>2013-02-15T09:12:10Z</time>
      </trkpt>
      <trkpt lat="43.19293" lon="5.58142">
        <ele>147</ele>
        <time>2013-02-15T09:12:15Z</time>
      </trkpt>
      <trkpt lat="43.19289" lon="5.58136">
        <ele>147</ele>
        <time>2013-02-15T09:12:20Z</time>
      </trkpt>
      <trkpt lat="43.19288" lon="5.58131">
        <ele>147</ele>
        <time>2013-02-15T09:12:25Z</time>
      </trkpt>
      <trkpt lat="43.19286" lon="5.5813">
        <ele>148</ele>
        <time>2013-02-15T09:12:30Z</time>
      </trkpt>
      <trkpt lat="43.19286" lon="5.5813">
        <ele>148</ele>
        <time>2013-02-15T09:12:35Z</time>
      </trkpt>
      <trkpt lat="43.19286" lon="5.5813">
        <ele>148</ele>
        <time>2013-02-15T09:12:40Z</time>
      </trkpt>
      <trkpt lat="43.19285" lon="5.5813">
        <ele>148</ele>
        <time>2013-02-15T09:12:45Z</time>
      </trkpt>
      <trkpt lat="43.19285" lon="5.58131">
        <ele>148</ele>
        <time>2013-02-15T09:12:50Z</time>
      </trkpt>
      <trkpt lat="43.19286" lon="5.58133">
        <ele>148</ele>
        <time>2013-02-15T09:12:55Z</time>
      </trkpt>
      <trkpt lat="43.19286" lon="5.58133">
        <ele>148</ele>
        <time>2013-02-15T09:13:00Z</time>
      </trkpt>
      <trkpt lat="43.19285" lon="5.58132">
        <ele>147</ele>
        <time>2013-02-15T09:13:05Z</time>
      </trkpt>
      <trkpt lat="43.19285" lon="5.5813">
        <ele>148</ele>
        <time>2013-02-15T09:13:10Z</time>
      </trkpt>
      <trkpt lat="43.19286" lon="5.58129">
        <ele>148</ele>
        <time>2013-02-15T09:13:15Z</time>
      </trkpt>
      <trkpt lat="43.19285" lon="5.5813">
        <ele>148</ele>
        <time>2013-02-15T09:13:20Z</time>
      </trkpt>
      <trkpt lat="43.19285" lon="5.58131">
        <ele>147</ele>
        <time>2013-02-15T09:13:25Z</time>
      </trkpt>
      <trkpt lat="43.19285" lon="5.58131">
        <ele>147</ele>
        <time>2013-02-15T09:13:30Z</time>
      </trkpt>
      <trkpt lat="43.19286" lon="5.5813">
        <ele>147</ele>
        <time>2013-02-15T09:13:35Z</time>
      </trkpt>
      <trkpt lat="43.19286" lon="5.5813">
        <ele>147</ele>
        <time>2013-02-15T09:13:40Z</time>
      </trkpt>
      <trkpt lat="43.19288" lon="5.58127">
        <ele>147</ele>
        <time>2013-02-15T09:13:45Z</time>
      </trkpt>
      <trkpt lat="43.19287" lon="5.58127">
        <ele>148</ele>
        <time>2013-02-15T09:13:50Z</time>
      </trkpt>
      <trkpt lat="43.19285" lon="5.58128">
        <ele>148</ele>
        <time>2013-02-15T09:13:55Z</time>
      </trkpt>
      <trkpt lat="43.19283" lon="5.58129">
        <ele>148</ele>
        <time>2013-02-15T09:14:00Z</time>
      </trkpt>
      <trkpt lat="43.19283" lon="5.58131">
        <ele>148</ele>
        <time>2013-02-15T09:14:05Z</time>
      </trkpt>
      <trkpt lat="43.19283" lon="5.58133">
        <ele>148</ele>
        <time>2013-02-15T09:14:10Z</time>
      </trkpt>
      <trkpt lat="43.19284" lon="5.58134">
        <ele>148</ele>
        <time>2013-02-15T09:14:15Z</time>
      </trkpt>
      <trkpt lat="43.19284" lon="5.58131">
        <ele>148</ele>
        <time>2013-02-15T09:14:20Z</time>
      </trkpt>
      <trkpt lat="43.19284" lon="5.5813">
        <ele>148</ele>
        <time>2013-02-15T09:14:25Z</time>
      </trkpt>
      <trkpt lat="43.19285" lon="5.5813">
        <ele>148</ele>
        <time>2013-02-15T09:14:30Z</time>
      </trkpt>
      <trkpt lat="43.19285" lon="5.5813">
        <ele>148</ele>
        <time>2013-02-15T09:14:35Z</time>
      </trkpt>
      <trkpt lat="43.19286" lon="5.5813">
        <ele>148</ele>
        <time>2013-02-15T09:14:40Z</time>
      </trkpt>
      <trkpt lat="43.19286" lon="5.58132">
        <ele>148</ele>
        <time>2013-02-15T09:14:45Z</time>
      </trkpt>
      <trkpt lat="43.19287" lon="5.58128">
        <ele>148</ele>
        <time>2013-02-15T09:14:50Z</time>
      </trkpt>
      <trkpt lat="43.19286" lon="5.5812">
        <ele>148</ele>
        <time>2013-02-15T09:14:55Z</time>
      </trkpt>
      <trkpt lat="43.19285" lon="5.58114">
        <ele>148</ele>
        <time>2013-02-15T09:15:00Z</time>
      </trkpt>
      <trkpt lat="43.19285" lon="5.58108">
        <ele>148</ele>
        <time>2013-02-15T09:15:05Z</time>
      </trkpt>
      <trkpt lat="43.19286" lon="5.58106">
        <ele>148</ele>
        <time>2013-02-15T09:15:10Z</time>
      </trkpt>
      <trkpt lat="43.19289" lon="5.581">
        <ele>149</ele>
        <time>2013-02-15T09:15:15Z</time>
      </trkpt>
      <trkpt lat="43.1929" lon="5.58097">
        <ele>149</ele>
        <time>2013-02-15T09:15:20Z</time>
      </trkpt>
      <trkpt lat="43.19291" lon="5.58089">
        <ele>149</ele>
        <time>2013-02-15T09:15:25Z</time>
      </trkpt>
      <trkpt lat="43.19291" lon="5.58083">
        <ele>149</ele>
        <time>2013-02-15T09:15:30Z</time>
      </trkpt>
      <trkpt lat="43.1929" lon="5.58078">
        <ele>149</ele>
        <time>2013-02-15T09:15:35Z</time>
      </trkpt>
      <trkpt lat="43.1929" lon="5.58071">
        <ele>149</ele>
        <time>2013-02-15T09:15:40Z</time>
      </trkpt>
      <trkpt lat="43.19288" lon="5.58066">
        <ele>149</ele>
        <time>2013-02-15T09:15:45Z</time>
      </trkpt>
      <trkpt lat="43.19287" lon="5.58061">
        <ele>150</ele>
        <time>2013-02-15T09:15:50Z</time>
      </trkpt>
      <trkpt lat="43.19285" lon="5.58057">
        <ele>150</ele>
        <time>2013-02-15T09:15:55Z</time>
      </trkpt>
      <trkpt lat="43.19281" lon="5.58048">
        <ele>151</ele>
        <time>2013-02-15T09:16:00Z</time>
      </trkpt>
      <trkpt lat="43.19278" lon="5.5804">
        <ele>151</ele>
        <time>2013-02-15T09:16:05Z</time>
      </trkpt>
      <trkpt lat="43.19277" lon="5.58035">
        <ele>151</ele>
        <time>2013-02-15T09:16:10Z</time>
      </trkpt>
      <trkpt lat="43.19277" lon="5.58028">
        <ele>151</ele>
        <time>2013-02-15T09:16:15Z</time>
      </trkpt>
      <trkpt lat="43.19281" lon="5.58022">
        <ele>152</ele>
        <time>2013-02-15T09:16:20Z</time>
      </trkpt>
      <trkpt lat="43.19284" lon="5.5802">
        <ele>152</ele>
        <time>2013-02-15T09:16:25Z</time>
      </trkpt>
      <trkpt lat="43.1929" lon="5.58017">
        <ele>152</ele>
        <time>2013-02-15T09:16:30Z</time>
      </trkpt>
      <trkpt lat="43.19294" lon="5.58018">
        <ele>153</ele>
        <time>2013-02-15T09:16:35Z</time>
      </trkpt>
      <trkpt lat="43.193" lon="5.58018">
        <ele>153</ele>
        <time>2013-02-15T09:16:40Z</time>
      </trkpt>
      <trkpt lat="43.19308" lon="5.58018">
        <ele>153</ele>
        <time>2013-02-15T09:16:45Z</time>
      </trkpt>
      <trkpt lat="43.19314" lon="5.58015">
        <ele>153</ele>
        <time>2013-02-15T09:16:50Z</time>
      </trkpt>
      <trkpt lat="43.19318" lon="5.58011">
        <ele>152</ele>
        <time>2013-02-15T09:16:55Z</time>
      </trkpt>
      <trkpt lat="43.1932" lon="5.58005">
        <ele>152</ele>
        <time>2013-02-15T09:17:00Z</time>
      </trkpt>
      <trkpt lat="43.19323" lon="5.57998">
        <ele>153</ele>
        <time>2013-02-15T09:17:05Z</time>
      </trkpt>
      <trkpt lat="43.19323" lon="5.5799">
        <ele>153</ele>
        <time>2013-02-15T09:17:10Z</time>
      </trkpt>
      <trkpt lat="43.19323" lon="5.57983">
        <ele>153</ele>
        <time>2013-02-15T09:17:15Z</time>
      </trkpt>
      <trkpt lat="43.19323" lon="5.57975">
        <ele>154</ele>
        <time>2013-02-15T09:17:20Z</time>
      </trkpt>
      <trkpt lat="43.19324" lon="5.5797">
        <ele>154</ele>
        <time>2013-02-15T09:17:25Z</time>
      </trkpt>
      <trkpt lat="43.19326" lon="5.57964">
        <ele>155</ele>
        <time>2013-02-15T09:17:30Z</time>
      </trkpt>
      <trkpt lat="43.19328" lon="5.57957">
        <ele>155</ele>
        <time>2013-02-15T09:17:35Z</time>
      </trkpt>
      <trkpt lat="43.1933" lon="5.57948">
        <ele>156</ele>
        <time>2013-02-15T09:17:40Z</time>
      </trkpt>
      <trkpt lat="43.19331" lon="5.57941">
        <ele>157</ele>
        <time>2013-02-15T09:17:45Z</time>
      </trkpt>
      <trkpt lat="43.19331" lon="5.57932">
        <ele>158</ele>
        <time>2013-02-15T09:17:50Z</time>
      </trkpt>
      <trkpt lat="43.19331" lon="5.57923">
        <ele>158</ele>
        <time>2013-02-15T09:17:55Z</time>
      </trkpt>
      <trkpt lat="43.19331" lon="5.57915">
        <ele>159</ele>
        <time>2013-02-15T09:18:00Z</time>
      </trkpt>
      <trkpt lat="43.19331" lon="5.57908">
        <ele>160</ele>
        <time>2013-02-15T09:18:05Z</time>
      </trkpt>
      <trkpt lat="43.19332" lon="5.57902">
        <ele>160</ele>
        <time>2013-02-15T09:18:10Z</time>
      </trkpt>
      <trkpt lat="43.19331" lon="5.57893">
        <ele>160</ele>
        <time>2013-02-15T09:18:15Z</time>
      </trkpt>
      <trkpt lat="43.1933" lon="5.57886">
        <ele>161</ele>
        <time>2013-02-15T09:18:20Z</time>
      </trkpt>
      <trkpt lat="43.1933" lon="5.57878">
        <ele>161</ele>
        <time>2013-02-15T09:18:25Z</time>
      </trkpt>
      <trkpt lat="43.1933" lon="5.57871">
        <ele>161</ele>
        <time>2013-02-15T09:18:30Z</time>
      </trkpt>
      <trkpt lat="43.1933" lon="5.57864">
        <ele>161</ele>
        <time>2013-02-15T09:18:35Z</time>
      </trkpt>
      <trkpt lat="43.1933" lon="5.57856">
        <ele>161</ele>
        <time>2013-02-15T09:18:40Z</time>
      </trkpt>
      <trkpt lat="43.19331" lon="5.57851">
        <ele>161</ele>
        <time>2013-02-15T09:18:45Z</time>
      </trkpt>
      <trkpt lat="43.19331" lon="5.57844">
        <ele>161</ele>
        <time>2013-02-15T09:18:50Z</time>
      </trkpt>
      <trkpt lat="43.19331" lon="5.57837">
        <ele>162</ele>
        <time>2013-02-15T09:18:55Z</time>
      </trkpt>
      <trkpt lat="43.19331" lon="5.57828">
        <ele>162</ele>
        <time>2013-02-15T09:19:00Z</time>
      </trkpt>
      <trkpt lat="43.19331" lon="5.57821">
        <ele>162</ele>
        <time>2013-02-15T09:19:05Z</time>
      </trkpt>
      <trkpt lat="43.19332" lon="5.57814">
        <ele>162</ele>
        <time>2013-02-15T09:19:10Z</time>
      </trkpt>
      <trkpt lat="43.19334" lon="5.57807">
        <ele>163</ele>
        <time>2013-02-15T09:19:15Z</time>
      </trkpt>
      <trkpt lat="43.19336" lon="5.57802">
        <ele>163</ele>
        <time>2013-02-15T09:19:20Z</time>
      </trkpt>
      <trkpt lat="43.19339" lon="5.57795">
        <ele>163</ele>
        <time>2013-02-15T09:19:25Z</time>
      </trkpt>
      <trkpt lat="43.1934" lon="5.57787">
        <ele>163</ele>
        <time>2013-02-15T09:19:30Z</time>
      </trkpt>
      <trkpt lat="43.19341" lon="5.5778">
        <ele>163</ele>
        <time>2013-02-15T09:19:35Z</time>
      </trkpt>
      <trkpt lat="43.1934" lon="5.57774">
        <ele>163</ele>
        <time>2013-02-15T09:19:40Z</time>
      </trkpt>
      <trkpt lat="43.19342" lon="5.57765">
        <ele>164</ele>
        <time>2013-02-15T09:19:45Z</time>
      </trkpt>
      <trkpt lat="43.19344" lon="5.57758">
        <ele>164</ele>
        <time>2013-02-15T09:19:50Z</time>
      </trkpt>
      <trkpt lat="43.1935" lon="5.57748">
        <ele>165</ele>
        <time>2013-02-15T09:19:55Z</time>
      </trkpt>
      <trkpt lat="43.19353" lon="5.57743">
        <ele>165</ele>
        <time>2013-02-15T09:20:00Z</time>
      </trkpt>
      <trkpt lat="43.19357" lon="5.57734">
        <ele>166</ele>
        <time>2013-02-15T09:20:05Z</time>
      </trkpt>
      <trkpt lat="43.1936" lon="5.57728">
        <ele>165</ele>
        <time>2013-02-15T09:20:10Z</time>
      </trkpt>
      <trkpt lat="43.19364" lon="5.57721">
        <ele>166</ele>
        <time>2013-02-15T09:20:15Z</time>
      </trkpt>
      <trkpt lat="43.19368" lon="5.57715">
        <ele>166</ele>
        <time>2013-02-15T09:20:20Z</time>
      </trkpt>
      <trkpt lat="43.19371" lon="5.5771">
        <ele>166</ele>
        <time>2013-02-15T09:20:25Z</time>
      </trkpt>
      <trkpt lat="43.19373" lon="5.57705">
        <ele>167</ele>
        <time>2013-02-15T09:20:30Z</time>
      </trkpt>
      <trkpt lat="43.19377" lon="5.57699">
        <ele>167</ele>
        <time>2013-02-15T09:20:35Z</time>
      </trkpt>
      <trkpt lat="43.1938" lon="5.57693">
        <ele>168</ele>
        <time>2013-02-15T09:20:40Z</time>
      </trkpt>
      <trkpt lat="43.19382" lon="5.57685">
        <ele>168</ele>
        <time>2013-02-15T09:20:45Z</time>
      </trkpt>
      <trkpt lat="43.19384" lon="5.57678">
        <ele>169</ele>
        <time>2013-02-15T09:20:50Z</time>
      </trkpt>
      <trkpt lat="43.19385" lon="5.57673">
        <ele>169</ele>
        <time>2013-02-15T09:20:55Z</time>
      </trkpt>
      <trkpt lat="43.19385" lon="5.57664">
        <ele>169</ele>
        <time>2013-02-15T09:21:00Z</time>
      </trkpt>
      <trkpt lat="43.19388" lon="5.57655">
        <ele>169</ele>
        <time>2013-02-15T09:21:05Z</time>
      </trkpt>
      <trkpt lat="43.1939" lon="5.57649">
        <ele>169</ele>
        <time>2013-02-15T09:21:10Z</time>
      </trkpt>
      <trkpt lat="43.19394" lon="5.57641">
        <ele>170</ele>
        <time>2013-02-15T09:21:15Z</time>
      </trkpt>
      <trkpt lat="43.19396" lon="5.57635">
        <ele>170</ele>
        <time>2013-02-15T09:21:20Z</time>
      </trkpt>
      <trkpt lat="43.19399" lon="5.57632">
        <ele>171</ele>
        <time>2013-02-15T09:21:25Z</time>
      </trkpt>
      <trkpt lat="43.19404" lon="5.5763">
        <ele>171</ele>
        <time>2013-02-15T09:21:30Z</time>
      </trkpt>
      <trkpt lat="43.19411" lon="5.5763">
        <ele>171</ele>
        <time>2013-02-15T09:21:35Z</time>
      </trkpt>
      <trkpt lat="43.19418" lon="5.57628">
        <ele>171</ele>
        <time>2013-02-15T09:21:40Z</time>
      </trkpt>
      <trkpt lat="43.19422" lon="5.57626">
        <ele>171</ele>
        <time>2013-02-15T09:21:45Z</time>
      </trkpt>
      <trkpt lat="43.19428" lon="5.57624">
        <ele>172</ele>
        <time>2013-02-15T09:21:50Z</time>
      </trkpt>
      <trkpt lat="43.19433" lon="5.57622">
        <ele>172</ele>
        <time>2013-02-15T09:21:55Z</time>
      </trkpt>
      <trkpt lat="43.1944" lon="5.5762">
        <ele>172</ele>
        <time>2013-02-15T09:22:00Z</time>
      </trkpt>
      <trkpt lat="43.19445" lon="5.57616">
        <ele>173</ele>
        <time>2013-02-15T09:22:05Z</time>
      </trkpt>
      <trkpt lat="43.19451" lon="5.57612">
        <ele>173</ele>
        <time>2013-02-15T09:22:10Z</time>
      </trkpt>
      <trkpt lat="43.19453" lon="5.57609">
        <ele>173</ele>
        <time>2013-02-15T09:22:15Z</time>
      </trkpt>
      <trkpt lat="43.19457" lon="5.57604">
        <ele>173</ele>
        <time>2013-02-15T09:22:20Z</time>
      </trkpt>
      <trkpt lat="43.19461" lon="5.57598">
        <ele>174</ele>
        <time>2013-02-15T09:22:25Z</time>
      </trkpt>
      <trkpt lat="43.19465" lon="5.57593">
        <ele>174</ele>
        <time>2013-02-15T09:22:30Z</time>
      </trkpt>
      <trkpt lat="43.19469" lon="5.57589">
        <ele>174</ele>
        <time>2013-02-15T09:22:35Z</time>
      </trkpt>
      <trkpt lat="43.19472" lon="5.57585">
        <ele>175</ele>
        <time>2013-02-15T09:22:40Z</time>
      </trkpt>
      <trkpt lat="43.19477" lon="5.5758">
        <ele>175</ele>
        <time>2013-02-15T09:22:45Z</time>
      </trkpt>
      <trkpt lat="43.19485" lon="5.5757">
        <ele>176</ele>
        <time>2013-02-15T09:22:50Z</time>
      </trkpt>
      <trkpt lat="43.1949" lon="5.57565">
        <ele>176</ele>
        <time>2013-02-15T09:22:55Z</time>
      </trkpt>
      <trkpt lat="43.19495" lon="5.57561">
        <ele>176</ele>
        <time>2013-02-15T09:23:00Z</time>
      </trkpt>
      <trkpt lat="43.19499" lon="5.57558">
        <ele>176</ele>
        <time>2013-02-15T09:23:05Z</time>
      </trkpt>
      <trkpt lat="43.19502" lon="5.57553">
        <ele>176</ele>
        <time>2013-02-15T09:23:10Z</time>
      </trkpt>
      <trkpt lat="43.19507" lon="5.57549">
        <ele>177</ele>
        <time>2013-02-15T09:23:15Z</time>
      </trkpt>
      <trkpt lat="43.19513" lon="5.57544">
        <ele>177</ele>
        <time>2013-02-15T09:23:20Z</time>
      </trkpt>
      <trkpt lat="43.19518" lon="5.57541">
        <ele>177</ele>
        <time>2013-02-15T09:23:25Z</time>
      </trkpt>
      <trkpt lat="43.19522" lon="5.57536">
        <ele>177</ele>
        <time>2013-02-15T09:23:30Z</time>
      </trkpt>
      <trkpt lat="43.19524" lon="5.57532">
        <ele>177</ele>
        <time>2013-02-15T09:23:35Z</time>
      </trkpt>
      <trkpt lat="43.19528" lon="5.57528">
        <ele>177</ele>
        <time>2013-02-15T09:23:40Z</time>
      </trkpt>
      <trkpt lat="43.19531" lon="5.57523">
        <ele>177</ele>
        <time>2013-02-15T09:23:45Z</time>
      </trkpt>
      <trkpt lat="43.19536" lon="5.57517">
        <ele>177</ele>
        <time>2013-02-15T09:23:50Z</time>
      </trkpt>
      <trkpt lat="43.1954" lon="5.57513">
        <ele>178</ele>
        <time>2013-02-15T09:23:55Z</time>
      </trkpt>
      <trkpt lat="43.19546" lon="5.57508">
        <ele>178</ele>
        <time>2013-02-15T09:24:00Z</time>
      </trkpt>
      <trkpt lat="43.19548" lon="5.57506">
        <ele>179</ele>
        <time>2013-02-15T09:24:05Z</time>
      </trkpt>
      <trkpt lat="43.19553" lon="5.57501">
        <ele>179</ele>
        <time>2013-02-15T09:24:10Z</time>
      </trkpt>
      <trkpt lat="43.19558" lon="5.57497">
        <ele>180</ele>
        <time>2013-02-15T09:24:15Z</time>
      </trkpt>
      <trkpt lat="43.19564" lon="5.57492">
        <ele>180</ele>
        <time>2013-02-15T09:24:20Z</time>
      </trkpt>
      <trkpt lat="43.19569" lon="5.57487">
        <ele>181</ele>
        <time>2013-02-15T09:24:25Z</time>
      </trkpt>
      <trkpt lat="43.19574" lon="5.57482">
        <ele>182</ele>
        <time>2013-02-15T09:24:30Z</time>
      </trkpt>
      <trkpt lat="43.19579" lon="5.57477">
        <ele>182</ele>
        <time>2013-02-15T09:24:35Z</time>
      </trkpt>
      <trkpt lat="43.19584" lon="5.57472">
        <ele>182</ele>
        <time>2013-02-15T09:24:40Z</time>
      </trkpt>
      <trkpt lat="43.19586" lon="5.5747">
        <ele>182</ele>
        <time>2013-02-15T09:24:45Z</time>
      </trkpt>
      <trkpt lat="43.1959" lon="5.57466">
        <ele>182</ele>
        <time>2013-02-15T09:24:50Z</time>
      </trkpt>
      <trkpt lat="43.19595" lon="5.57458">
        <ele>182</ele>
        <time>2013-02-15T09:24:55Z</time>
      </trkpt>
      <trkpt lat="43.19596" lon="5.57453">
        <ele>182</ele>
        <time>2013-02-15T09:25:00Z</time>
      </trkpt>
      <trkpt lat="43.196" lon="5.57445">
        <ele>182</ele>
        <time>2013-02-15T09:25:05Z</time>
      </trkpt>
      <trkpt lat="43.19602" lon="5.57439">
        <ele>182</ele>
        <time>2013-02-15T09:25:10Z</time>
      </trkpt>
      <trkpt lat="43.19604" lon="5.57432">
        <ele>183</ele>
        <time>2013-02-15T09:25:15Z</time>
      </trkpt>
      <trkpt lat="43.19607" lon="5.57427">
        <ele>184</ele>
        <time>2013-02-15T09:25:20Z</time>
      </trkpt>
      <trkpt lat="43.1961" lon="5.57422">
        <ele>184</ele>
        <time>2013-02-15T09:25:25Z</time>
      </trkpt>
      <trkpt lat="43.19615" lon="5.57417">
        <ele>185</ele>
        <time>2013-02-15T09:25:30Z</time>
      </trkpt>
      <trkpt lat="43.19618" lon="5.57416">
        <ele>185</ele>
        <time>2013-02-15T09:25:35Z</time>
      </trkpt>
      <trkpt lat="43.1962" lon="5.57413">
        <ele>186</ele>
        <time>2013-02-15T09:25:40Z</time>
      </trkpt>
      <trkpt lat="43.19625" lon="5.57405">
        <ele>186</ele>
        <time>2013-02-15T09:25:45Z</time>
      </trkpt>
      <trkpt lat="43.1963" lon="5.57398">
        <ele>187</ele>
        <time>2013-02-15T09:25:50Z</time>
      </trkpt>
      <trkpt lat="43.19634" lon="5.57393">
        <ele>188</ele>
        <time>2013-02-15T09:25:55Z</time>
      </trkpt>
      <trkpt lat="43.19638" lon="5.57388">
        <ele>188</ele>
        <time>2013-02-15T09:26:00Z</time>
      </trkpt>
      <trkpt lat="43.1964" lon="5.57379">
        <ele>188</ele>
        <time>2013-02-15T09:26:05Z</time>
      </trkpt>
      <trkpt lat="43.1964" lon="5.57372">
        <ele>189</ele>
        <time>2013-02-15T09:26:10Z</time>
      </trkpt>
      <trkpt lat="43.1964" lon="5.57365">
        <ele>190</ele>
        <time>2013-02-15T09:26:15Z</time>
      </trkpt>
      <trkpt lat="43.1964" lon="5.57358">
        <ele>190</ele>
        <time>2013-02-15T09:26:20Z</time>
      </trkpt>
      <trkpt lat="43.19641" lon="5.57349">
        <ele>190</ele>
        <time>2013-02-15T09:26:25Z</time>
      </trkpt>
      <trkpt lat="43.1964" lon="5.57341">
        <ele>190</ele>
        <time>2013-02-15T09:26:30Z</time>
      </trkpt>
      <trkpt lat="43.1964" lon="5.57334">
        <ele>190</ele>
        <time>2013-02-15T09:26:35Z</time>
      </trkpt>
      <trkpt lat="43.19641" lon="5.5733">
        <ele>191</ele>
        <time>2013-02-15T09:26:40Z</time>
      </trkpt>
      <trkpt lat="43.19643" lon="5.57329">
        <ele>191</ele>
        <time>2013-02-15T09:26:45Z</time>
      </trkpt>
      <trkpt lat="43.19649" lon="5.57325">
        <ele>192</ele>
        <time>2013-02-15T09:26:50Z</time>
      </trkpt>
      <trkpt lat="43.19656" lon="5.57321">
        <ele>192</ele>
        <time>2013-02-15T09:26:55Z</time>
      </trkpt>
      <trkpt lat="43.19662" lon="5.57315">
        <ele>193</ele>
        <time>2013-02-15T09:27:00Z</time>
      </trkpt>
      <trkpt lat="43.19666" lon="5.57307">
        <ele>194</ele>
        <time>2013-02-15T09:27:05Z</time>
      </trkpt>
      <trkpt lat="43.19669" lon="5.573">
        <ele>195</ele>
        <time>2013-02-15T09:27:10Z</time>
      </trkpt>
      <trkpt lat="43.19671" lon="5.57294">
        <ele>195</ele>
        <time>2013-02-15T09:27:15Z</time>
      </trkpt>
      <trkpt lat="43.19672" lon="5.57287">
        <ele>196</ele>
        <time>2013-02-15T09:27:20Z</time>
      </trkpt>
      <trkpt lat="43.19675" lon="5.5728">
        <ele>196</ele>
        <time>2013-02-15T09:27:25Z</time>
      </trkpt>
      <trkpt lat="43.19676" lon="5.57275">
        <ele>197</ele>
        <time>2013-02-15T09:27:30Z</time>
      </trkpt>
      <trkpt lat="43.19675" lon="5.57267">
        <ele>197</ele>
        <time>2013-02-15T09:27:35Z</time>
      </trkpt>
      <trkpt lat="43.19674" lon="5.57259">
        <ele>198</ele>
        <time>2013-02-15T09:27:40Z</time>
      </trkpt>
      <trkpt lat="43.19675" lon="5.57251">
        <ele>198</ele>
        <time>2013-02-15T09:27:45Z</time>
      </trkpt>
      <trkpt lat="43.19677" lon="5.57242">
        <ele>198</ele>
        <time>2013-02-15T09:27:50Z</time>
      </trkpt>
      <trkpt lat="43.19678" lon="5.57236">
        <ele>198</ele>
        <time>2013-02-15T09:27:55Z</time>
      </trkpt>
      <trkpt lat="43.19679" lon="5.57229">
        <ele>199</ele>
        <time>2013-02-15T09:28:00Z</time>
      </trkpt>
      <trkpt lat="43.19678" lon="5.57221">
        <ele>199</ele>
        <time>2013-02-15T09:28:05Z</time>
      </trkpt>
      <trkpt lat="43.19678" lon="5.57212">
        <ele>199</ele>
        <time>2013-02-15T09:28:10Z</time>
      </trkpt>
      <trkpt lat="43.19679" lon="5.57204">
        <ele>199</ele>
        <time>2013-02-15T09:28:15Z</time>
      </trkpt>
      <trkpt lat="43.19681" lon="5.57199">
        <ele>199</ele>
        <time>2013-02-15T09:28:20Z</time>
      </trkpt>
      <trkpt lat="43.19683" lon="5.57195">
        <ele>199</ele>
        <time>2013-02-15T09:28:25Z</time>
      </trkpt>
      <trkpt lat="43.19686" lon="5.57191">
        <ele>199</ele>
        <time>2013-02-15T09:28:30Z</time>
      </trkpt>
      <trkpt lat="43.1969" lon="5.57185">
        <ele>200</ele>
        <time>2013-02-15T09:28:35Z</time>
      </trkpt>
      <trkpt lat="43.19695" lon="5.57183">
        <ele>200</ele>
        <time>2013-02-15T09:28:40Z</time>
      </trkpt>
      <trkpt lat="43.19699" lon="5.57181">
        <ele>200</ele>
        <time>2013-02-15T09:28:45Z</time>
      </trkpt>
      <trkpt lat="43.19704" lon="5.57179">
        <ele>200</ele>
        <time>2013-02-15T09:28:50Z</time>
      </trkpt>
      <trkpt lat="43.19711" lon="5.5718">
        <ele>200</ele>
        <time>2013-02-15T09:28:55Z</time>
      </trkpt>
      <trkpt lat="43.19718" lon="5.57182">
        <ele>201</ele>
        <time>2013-02-15T09:29:00Z</time>
      </trkpt>
      <trkpt lat="43.19724" lon="5.57183">
        <ele>201</ele>
        <time>2013-02-15T09:29:05Z</time>
      </trkpt>
      <trkpt lat="43.1973" lon="5.57186">
        <ele>202</ele>
        <time>2013-02-15T09:29:10Z</time>
      </trkpt>
      <trkpt lat="43.19735" lon="5.57188">
        <ele>202</ele>
        <time>2013-02-15T09:29:15Z</time>
      </trkpt>
      <trkpt lat="43.19741" lon="5.5719">
        <ele>203</ele>
        <time>2013-02-15T09:29:20Z</time>
      </trkpt>
      <trkpt lat="43.19747" lon="5.5719">
        <ele>203</ele>
        <time>2013-02-15T09:29:25Z</time>
      </trkpt>
      <trkpt lat="43.1975" lon="5.57191">
        <ele>203</ele>
        <time>2013-02-15T09:29:30Z</time>
      </trkpt>
      <trkpt lat="43.19757" lon="5.57192">
        <ele>204</ele>
        <time>2013-02-15T09:29:35Z</time>
      </trkpt>
      <trkpt lat="43.19764" lon="5.57191">
        <ele>204</ele>
        <time>2013-02-15T09:29:40Z</time>
      </trkpt>
      <trkpt lat="43.1977" lon="5.5719">
        <ele>205</ele>
        <time>2013-02-15T09:29:46Z</time>
      </trkpt>
      <trkpt lat="43.19773" lon="5.57191">
        <ele>205</ele>
        <time>2013-02-15T09:29:51Z</time>
      </trkpt>
      <trkpt lat="43.19778" lon="5.57187">
        <ele>205</ele>
        <time>2013-02-15T09:29:56Z</time>
      </trkpt>
      <trkpt lat="43.19781" lon="5.57187">
        <ele>205</ele>
        <time>2013-02-15T09:30:01Z</time>
      </trkpt>
      <trkpt lat="43.19787" lon="5.57185">
        <ele>205</ele>
        <time>2013-02-15T09:30:06Z</time>
      </trkpt>
      <trkpt lat="43.1979" lon="5.57186">
        <ele>205</ele>
        <time>2013-02-15T09:30:11Z</time>
      </trkpt>
      <trkpt lat="43.19787" lon="5.57191">
        <ele>205</ele>
        <time>2013-02-15T09:30:16Z</time>
      </trkpt>
      <trkpt lat="43.19781" lon="5.57196">
        <ele>205</ele>
        <time>2013-02-15T09:30:21Z</time>
      </trkpt>
      <trkpt lat="43.19776" lon="5.572">
        <ele>205</ele>
        <time>2013-02-15T09:30:26Z</time>
      </trkpt>
      <trkpt lat="43.19771" lon="5.57205">
        <ele>205</ele>
        <time>2013-02-15T09:30:31Z</time>
      </trkpt>
      <trkpt lat="43.19766" lon="5.57208">
        <ele>205</ele>
        <time>2013-02-15T09:30:36Z</time>
      </trkpt>
      <trkpt lat="43.19759" lon="5.57212">
        <ele>204</ele>
        <time>2013-02-15T09:30:41Z</time>
      </trkpt>
      <trkpt lat="43.19754" lon="5.57215">
        <ele>204</ele>
        <time>2013-02-15T09:30:46Z</time>
      </trkpt>
      <trkpt lat="43.19747" lon="5.57215">
        <ele>204</ele>
        <time>2013-02-15T09:30:51Z</time>
      </trkpt>
      <trkpt lat="43.19742" lon="5.57215">
        <ele>204</ele>
        <time>2013-02-15T09:30:56Z</time>
      </trkpt>
      <trkpt lat="43.19736" lon="5.57214">
        <ele>204</ele>
        <time>2013-02-15T09:31:01Z</time>
      </trkpt>
      <trkpt lat="43.1973" lon="5.57211">
        <ele>205</ele>
        <time>2013-02-15T09:31:06Z</time>
      </trkpt>
      <trkpt lat="43.19723" lon="5.57211">
        <ele>205</ele>
        <time>2013-02-15T09:31:11Z</time>
      </trkpt>
      <trkpt lat="43.19717" lon="5.57213">
        <ele>205</ele>
        <time>2013-02-15T09:31:16Z</time>
      </trkpt>
      <trkpt lat="43.19716" lon="5.57216">
        <ele>204</ele>
        <time>2013-02-15T09:31:21Z</time>
      </trkpt>
      <trkpt lat="43.19713" lon="5.5722">
        <ele>204</ele>
        <time>2013-02-15T09:31:26Z</time>
      </trkpt>
      <trkpt lat="43.19712" lon="5.57227">
        <ele>204</ele>
        <time>2013-02-15T09:31:31Z</time>
      </trkpt>
      <trkpt lat="43.19711" lon="5.57236">
        <ele>204</ele>
        <time>2013-02-15T09:31:36Z</time>
      </trkpt>
      <trkpt lat="43.19709" lon="5.57243">
        <ele>204</ele>
        <time>2013-02-15T09:31:41Z</time>
      </trkpt>
      <trkpt lat="43.19708" lon="5.57249">
        <ele>204</ele>
        <time>2013-02-15T09:31:46Z</time>
      </trkpt>
      <trkpt lat="43.19707" lon="5.57258">
        <ele>205</ele>
        <time>2013-02-15T09:31:51Z</time>
      </trkpt>
      <trkpt lat="43.19706" lon="5.57262">
        <ele>206</ele>
        <time>2013-02-15T09:31:56Z</time>
      </trkpt>
      <trkpt lat="43.19706" lon="5.57269">
        <ele>207</ele>
        <time>2013-02-15T09:32:01Z</time>
      </trkpt>
      <trkpt lat="43.19705" lon="5.57276">
        <ele>207</ele>
        <time>2013-02-15T09:32:06Z</time>
      </trkpt>
      <trkpt lat="43.19705" lon="5.57284">
        <ele>208</ele>
        <time>2013-02-15T09:32:11Z</time>
      </trkpt>
      <trkpt lat="43.19705" lon="5.57293">
        <ele>209</ele>
        <time>2013-02-15T09:32:16Z</time>
      </trkpt>
      <trkpt lat="43.19704" lon="5.573">
        <ele>210</ele>
        <time>2013-02-15T09:32:21Z</time>
      </trkpt>
      <trkpt lat="43.19703" lon="5.57307">
        <ele>210</ele>
        <time>2013-02-15T09:32:26Z</time>
      </trkpt>
      <trkpt lat="43.19702" lon="5.57313">
        <ele>211</ele>
        <time>2013-02-15T09:32:31Z</time>
      </trkpt>
      <trkpt lat="43.19701" lon="5.57323">
        <ele>212</ele>
        <time>2013-02-15T09:32:36Z</time>
      </trkpt>
      <trkpt lat="43.19699" lon="5.57332">
        <ele>212</ele>
        <time>2013-02-15T09:32:41Z</time>
      </trkpt>
      <trkpt lat="43.19699" lon="5.57341">
        <ele>213</ele>
        <time>2013-02-15T09:32:46Z</time>
      </trkpt>
      <trkpt lat="43.19698" lon="5.57348">
        <ele>213</ele>
        <time>2013-02-15T09:32:51Z</time>
      </trkpt>
      <trkpt lat="43.19698" lon="5.57354">
        <ele>213</ele>
        <time>2013-02-15T09:32:56Z</time>
      </trkpt>
      <trkpt lat="43.19697" lon="5.57362">
        <ele>214</ele>
        <time>2013-02-15T09:33:01Z</time>
      </trkpt>
      <trkpt lat="43.19696" lon="5.57369">
        <ele>215</ele>
        <time>2013-02-15T09:33:06Z</time>
      </trkpt>
      <trkpt lat="43.19697" lon="5.57379">
        <ele>215</ele>
        <time>2013-02-15T09:33:11Z</time>
      </trkpt>
      <trkpt lat="43.19696" lon="5.57387">
        <ele>216</ele>
        <time>2013-02-15T09:33:16Z</time>
      </trkpt>
      <trkpt lat="43.19695" lon="5.57395">
        <ele>216</ele>
        <time>2013-02-15T09:33:21Z</time>
      </trkpt>
      <trkpt lat="43.19693" lon="5.57402">
        <ele>216</ele>
        <time>2013-02-15T09:33:26Z</time>
      </trkpt>
      <trkpt lat="43.19691" lon="5.57408">
        <ele>216</ele>
        <time>2013-02-15T09:33:31Z</time>
      </trkpt>
      <trkpt lat="43.19687" lon="5.57415">
        <ele>216</ele>
        <time>2013-02-15T09:33:36Z</time>
      </trkpt>
      <trkpt lat="43.19685" lon="5.5742">
        <ele>216</ele>
        <time>2013-02-15T09:33:41Z</time>
      </trkpt>
      <trkpt lat="43.19682" lon="5.57428">
        <ele>216</ele>
        <time>2013-02-15T09:33:46Z</time>
      </trkpt>
      <trkpt lat="43.19677" lon="5.57437">
        <ele>217</ele>
        <time>2013-02-15T09:33:51Z</time>
      </trkpt>
      <trkpt lat="43.19673" lon="5.57446">
        <ele>217</ele>
        <time>2013-02-15T09:33:56Z</time>
      </trkpt>
      <trkpt lat="43.19669" lon="5.57451">
        <ele>217</ele>
        <time>2013-02-15T09:34:01Z</time>
      </trkpt>
      <trkpt lat="43.19666" lon="5.57457">
        <ele>218</ele>
        <time>2013-02-15T09:34:06Z</time>
      </trkpt>
      <trkpt lat="43.19663" lon="5.57467">
        <ele>218</ele>
        <time>2013-02-15T09:34:11Z</time>
      </trkpt>
      <trkpt lat="43.19658" lon="5.57477">
        <ele>218</ele>
        <time>2013-02-15T09:34:16Z</time>
      </trkpt>
      <trkpt lat="43.19655" lon="5.57485">
        <ele>219</ele>
        <time>2013-02-15T09:34:21Z</time>
      </trkpt>
      <trkpt lat="43.19651" lon="5.57495">
        <ele>219</ele>
        <time>2013-02-15T09:34:26Z</time>
      </trkpt>
      <trkpt lat="43.19648" lon="5.57501">
        <ele>219</ele>
        <time>2013-02-15T09:34:31Z</time>
      </trkpt>
      <trkpt lat="43.19645" lon="5.57508">
        <ele>219</ele>
        <time>2013-02-15T09:34:36Z</time>
      </trkpt>
      <trkpt lat="43.19642" lon="5.57514">
        <ele>220</ele>
        <time>2013-02-15T09:34:41Z</time>
      </trkpt>
      <trkpt lat="43.19638" lon="5.57521">
        <ele>220</ele>
        <time>2013-02-15T09:34:46Z</time>
      </trkpt>
      <trkpt lat="43.19633" lon="5.57527">
        <ele>219</ele>
        <time>2013-02-15T09:34:51Z</time>
      </trkpt>
      <trkpt lat="43.19631" lon="5.57534">
        <ele>219</ele>
        <time>2013-02-15T09:34:56Z</time>
      </trkpt>
      <trkpt lat="43.19628" lon="5.5754">
        <ele>219</ele>
        <time>2013-02-15T09:35:01Z</time>
      </trkpt>
      <trkpt lat="43.19625" lon="5.57546">
        <ele>219</ele>
        <time>2013-02-15T09:35:06Z</time>
      </trkpt>
      <trkpt lat="43.19621" lon="5.57552">
        <ele>219</ele>
        <time>2013-02-15T09:35:11Z</time>
      </trkpt>
      <trkpt lat="43.19616" lon="5.57557">
        <ele>218</ele>
        <time>2013-02-15T09:35:16Z</time>
      </trkpt>
      <trkpt lat="43.1961" lon="5.57562">
        <ele>218</ele>
        <time>2013-02-15T09:35:21Z</time>
      </trkpt>
      <trkpt lat="43.19604" lon="5.57568">
        <ele>218</ele>
        <time>2013-02-15T09:35:26Z</time>
      </trkpt>
      <trkpt lat="43.196" lon="5.57573">
        <ele>218</ele>
        <time>2013-02-15T09:35:31Z</time>
      </trkpt>
      <trkpt lat="43.19597" lon="5.57578">
        <ele>218</ele>
        <time>2013-02-15T09:35:36Z</time>
      </trkpt>
      <trkpt lat="43.19592" lon="5.57585">
        <ele>219</ele>
        <time>2013-02-15T09:35:41Z</time>
      </trkpt>
      <trkpt lat="43.19588" lon="5.57593">
        <ele>219</ele>
        <time>2013-02-15T09:35:46Z</time>
      </trkpt>
      <trkpt lat="43.19585" lon="5.576">
        <ele>219</ele>
        <time>2013-02-15T09:35:51Z</time>
      </trkpt>
      <trkpt lat="43.19583" lon="5.57604">
        <ele>220</ele>
        <time>2013-02-15T09:35:56Z</time>
      </trkpt>
      <trkpt lat="43.19581" lon="5.57608">
        <ele>221</ele>
        <time>2013-02-15T09:36:01Z</time>
      </trkpt>
      <trkpt lat="43.19575" lon="5.57611">
        <ele>221</ele>
        <time>2013-02-15T09:36:06Z</time>
      </trkpt>
      <trkpt lat="43.1957" lon="5.57616">
        <ele>221</ele>
        <time>2013-02-15T09:36:11Z</time>
      </trkpt>
      <trkpt lat="43.19565" lon="5.57622">
        <ele>222</ele>
        <time>2013-02-15T09:36:16Z</time>
      </trkpt>
      <trkpt lat="43.19561" lon="5.57628">
        <ele>222</ele>
        <time>2013-02-15T09:36:21Z</time>
      </trkpt>
      <trkpt lat="43.19555" lon="5.57634">
        <ele>223</ele>
        <time>2013-02-15T09:36:26Z</time>
      </trkpt>
      <trkpt lat="43.19552" lon="5.57639">
        <ele>223</ele>
        <time>2013-02-15T09:36:31Z</time>
      </trkpt>
      <trkpt lat="43.19547" lon="5.57645">
        <ele>224</ele>
        <time>2013-02-15T09:36:36Z</time>
      </trkpt>
      <trkpt lat="43.19542" lon="5.57651">
        <ele>224</ele>
        <time>2013-02-15T09:36:41Z</time>
      </trkpt>
      <trkpt lat="43.19538" lon="5.57657">
        <ele>224</ele>
        <time>2013-02-15T09:36:46Z</time>
      </trkpt>
      <trkpt lat="43.19533" lon="5.57665">
        <ele>224</ele>
        <time>2013-02-15T09:36:51Z</time>
      </trkpt>
      <trkpt lat="43.19528" lon="5.57673">
        <ele>224</ele>
        <time>2013-02-15T09:36:56Z</time>
      </trkpt>
      <trkpt lat="43.19525" lon="5.5768">
        <ele>224</ele>
        <time>2013-02-15T09:37:01Z</time>
      </trkpt>
      <trkpt lat="43.19521" lon="5.57687">
        <ele>224</ele>
        <time>2013-02-15T09:37:06Z</time>
      </trkpt>
      <trkpt lat="43.19518" lon="5.57692">
        <ele>224</ele>
        <time>2013-02-15T09:37:11Z</time>
      </trkpt>
      <trkpt lat="43.19517" lon="5.577">
        <ele>224</ele>
        <time>2013-02-15T09:37:16Z</time>
      </trkpt>
      <trkpt lat="43.19519" lon="5.57708">
        <ele>224</ele>
        <time>2013-02-15T09:37:21Z</time>
      </trkpt>
      <trkpt lat="43.19525" lon="5.57719">
        <ele>223</ele>
        <time>2013-02-15T09:37:26Z</time>
      </trkpt>
      <trkpt lat="43.19529" lon="5.57729">
        <ele>223</ele>
        <time>2013-02-15T09:37:31Z</time>
      </trkpt>
      <trkpt lat="43.19532" lon="5.57733">
        <ele>223</ele>
        <time>2013-02-15T09:37:36Z</time>
      </trkpt>
      <trkpt lat="43.19537" lon="5.57736">
        <ele>222</ele>
        <time>2013-02-15T09:37:41Z</time>
      </trkpt>
      <trkpt lat="43.19542" lon="5.57739">
        <ele>221</ele>
        <time>2013-02-15T09:37:46Z</time>
      </trkpt>
      <trkpt lat="43.19549" lon="5.57744">
        <ele>221</ele>
        <time>2013-02-15T09:37:51Z</time>
      </trkpt>
      <trkpt lat="43.19555" lon="5.57749">
        <ele>221</ele>
        <time>2013-02-15T09:37:56Z</time>
      </trkpt>
      <trkpt lat="43.19559" lon="5.57754">
        <ele>221</ele>
        <time>2013-02-15T09:38:01Z</time>
      </trkpt>
      <trkpt lat="43.19562" lon="5.57761">
        <ele>221</ele>
        <time>2013-02-15T09:38:06Z</time>
      </trkpt>
      <trkpt lat="43.19564" lon="5.57765">
        <ele>221</ele>
        <time>2013-02-15T09:38:11Z</time>
      </trkpt>
      <trkpt lat="43.19566" lon="5.57767">
        <ele>221</ele>
        <time>2013-02-15T09:38:16Z</time>
      </trkpt>
      <trkpt lat="43.19567" lon="5.57769">
        <ele>221</ele>
        <time>2013-02-15T09:38:21Z</time>
      </trkpt>
      <trkpt lat="43.19567" lon="5.5777">
        <ele>221</ele>
        <time>2013-02-15T09:38:26Z</time>
      </trkpt>
      <trkpt lat="43.19567" lon="5.5777">
        <ele>221</ele>
        <time>2013-02-15T09:38:31Z</time>
      </trkpt>
      <trkpt lat="43.19569" lon="5.57768">
        <ele>220</ele>
        <time>2013-02-15T09:38:36Z</time>
      </trkpt>
      <trkpt lat="43.19569" lon="5.57767">
        <ele>220</ele>
        <time>2013-02-15T09:38:41Z</time>
      </trkpt>
      <trkpt lat="43.1957" lon="5.57766">
        <ele>220</ele>
        <time>2013-02-15T09:38:46Z</time>
      </trkpt>
      <trkpt lat="43.19569" lon="5.57764">
        <ele>220</ele>
        <time>2013-02-15T09:38:51Z</time>
      </trkpt>
      <trkpt lat="43.19568" lon="5.57764">
        <ele>220</ele>
        <time>2013-02-15T09:38:56Z</time>
      </trkpt>
      <trkpt lat="43.19566" lon="5.57763">
        <ele>221</ele>
        <time>2013-02-15T09:39:01Z</time>
      </trkpt>
      <trkpt lat="43.19567" lon="5.57763">
        <ele>220</ele>
        <time>2013-02-15T09:39:06Z</time>
      </trkpt>
      <trkpt lat="43.19568" lon="5.57763">
        <ele>220</ele>
        <time>2013-02-15T09:39:11Z</time>
      </trkpt>
      <trkpt lat="43.19567" lon="5.57766">
        <ele>220</ele>
        <time>2013-02-15T09:39:16Z</time>
      </trkpt>
      <trkpt lat="43.19565" lon="5.57768">
        <ele>219</ele>
        <time>2013-02-15T09:39:21Z</time>
      </trkpt>
      <trkpt lat="43.19565" lon="5.57767">
        <ele>219</ele>
        <time>2013-02-15T09:39:26Z</time>
      </trkpt>
      <trkpt lat="43.19565" lon="5.57767">
        <ele>219</ele>
        <time>2013-02-15T09:39:31Z</time>
      </trkpt>
      <trkpt lat="43.19564" lon="5.57768">
        <ele>219</ele>
        <time>2013-02-15T09:39:36Z</time>
      </trkpt>
      <trkpt lat="43.19564" lon="5.57767">
        <ele>218</ele>
        <time>2013-02-15T09:39:41Z</time>
      </trkpt>
      <trkpt lat="43.19563" lon="5.57768">
        <ele>218</ele>
        <time>2013-02-15T09:39:46Z</time>
      </trkpt>
      <trkpt lat="43.19563" lon="5.57768">
        <ele>218</ele>
        <time>2013-02-15T09:39:51Z</time>
      </trkpt>
      <trkpt lat="43.19564" lon="5.57769">
        <ele>218</ele>
        <time>2013-02-15T09:39:56Z</time>
      </trkpt>
      <trkpt lat="43.19565" lon="5.57769">
        <ele>218</ele>
        <time>2013-02-15T09:40:01Z</time>
      </trkpt>
      <trkpt lat="43.19566" lon="5.57771">
        <ele>218</ele>
        <time>2013-02-15T09:40:06Z</time>
      </trkpt>
      <trkpt lat="43.19568" lon="5.57771">
        <ele>218</ele>
        <time>2013-02-15T09:40:11Z</time>
      </trkpt>
      <trkpt lat="43.19569" lon="5.57771">
        <ele>218</ele>
        <time>2013-02-15T09:40:16Z</time>
      </trkpt>
      <trkpt lat="43.19569" lon="5.57772">
        <ele>218</ele>
        <time>2013-02-15T09:40:21Z</time>
      </trkpt>
      <trkpt lat="43.19572" lon="5.57772">
        <ele>218</ele>
        <time>2013-02-15T09:40:26Z</time>
      </trkpt>
      <trkpt lat="43.19572" lon="5.57772">
        <ele>218</ele>
        <time>2013-02-15T09:40:31Z</time>
      </trkpt>
      <trkpt lat="43.19572" lon="5.57772">
        <ele>218</ele>
        <time>2013-02-15T09:40:36Z</time>
      </trkpt>
      <trkpt lat="43.19574" lon="5.5777">
        <ele>218</ele>
        <time>2013-02-15T09:40:41Z</time>
      </trkpt>
      <trkpt lat="43.19573" lon="5.57772">
        <ele>218</ele>
        <time>2013-02-15T09:40:46Z</time>
      </trkpt>
      <trkpt lat="43.19572" lon="5.57774">
        <ele>218</ele>
        <time>2013-02-15T09:40:51Z</time>
      </trkpt>
      <trkpt lat="43.1957" lon="5.57774">
        <ele>218</ele>
        <time>2013-02-15T09:40:56Z</time>
      </trkpt>
      <trkpt lat="43.1957" lon="5.57775">
        <ele>218</ele>
        <time>2013-02-15T09:41:01Z</time>
      </trkpt>
      <trkpt lat="43.19571" lon="5.57773">
        <ele>218</ele>
        <time>2013-02-15T09:41:06Z</time>
      </trkpt>
      <trkpt lat="43.19571" lon="5.57773">
        <ele>218</ele>
        <time>2013-02-15T09:41:11Z</time>
      </trkpt>
      <trkpt lat="43.19571" lon="5.57772">
        <ele>218</ele>
        <time>2013-02-15T09:41:16Z</time>
      </trkpt>
      <trkpt lat="43.1957" lon="5.57771">
        <ele>218</ele>
        <time>2013-02-15T09:41:21Z</time>
      </trkpt>
      <trkpt lat="43.1957" lon="5.5777">
        <ele>217</ele>
        <time>2013-02-15T09:41:26Z</time>
      </trkpt>
      <trkpt lat="43.1957" lon="5.5777">
        <ele>217</ele>
        <time>2013-02-15T09:41:31Z</time>
      </trkpt>
      <trkpt lat="43.1957" lon="5.57771">
        <ele>217</ele>
        <time>2013-02-15T09:41:36Z</time>
      </trkpt>
      <trkpt lat="43.19571" lon="5.57772">
        <ele>217</ele>
        <time>2013-02-15T09:41:41Z</time>
      </trkpt>
      <trkpt lat="43.19572" lon="5.57771">
        <ele>217</ele>
        <time>2013-02-15T09:41:46Z</time>
      </trkpt>
      <trkpt lat="43.19571" lon="5.57768">
        <ele>217</ele>
        <time>2013-02-15T09:41:51Z</time>
      </trkpt>
      <trkpt lat="43.1957" lon="5.57767">
        <ele>217</ele>
        <time>2013-02-15T09:41:56Z</time>
      </trkpt>
      <trkpt lat="43.1957" lon="5.57766">
        <ele>217</ele>
        <time>2013-02-15T09:42:01Z</time>
      </trkpt>
      <trkpt lat="43.1957" lon="5.57766">
        <ele>217</ele>
        <time>2013-02-15T09:42:06Z</time>
      </trkpt>
      <trkpt lat="43.1957" lon="5.57767">
        <ele>217</ele>
        <time>2013-02-15T09:42:11Z</time>
      </trkpt>
      <trkpt lat="43.19571" lon="5.57771">
        <ele>216</ele>
        <time>2013-02-15T09:42:16Z</time>
      </trkpt>
      <trkpt lat="43.19573" lon="5.57777">
        <ele>215</ele>
        <time>2013-02-15T09:42:21Z</time>
      </trkpt>
      <trkpt lat="43.19576" lon="5.57783">
        <ele>214</ele>
        <time>2013-02-15T09:42:26Z</time>
      </trkpt>
      <trkpt lat="43.19578" lon="5.57788">
        <ele>213</ele>
        <time>2013-02-15T09:42:31Z</time>
      </trkpt>
      <trkpt lat="43.1958" lon="5.57795">
        <ele>213</ele>
        <time>2013-02-15T09:42:36Z</time>
      </trkpt>
      <trkpt lat="43.19582" lon="5.57802">
        <ele>212</ele>
        <time>2013-02-15T09:42:41Z</time>
      </trkpt>
      <trkpt lat="43.19583" lon="5.57808">
        <ele>212</ele>
        <time>2013-02-15T09:42:46Z</time>
      </trkpt>
      <trkpt lat="43.19584" lon="5.57815">
        <ele>211</ele>
        <time>2013-02-15T09:42:51Z</time>
      </trkpt>
      <trkpt lat="43.19587" lon="5.57821">
        <ele>210</ele>
        <time>2013-02-15T09:42:56Z</time>
      </trkpt>
      <trkpt lat="43.19587" lon="5.57826">
        <ele>209</ele>
        <time>2013-02-15T09:43:01Z</time>
      </trkpt>
      <trkpt lat="43.19588" lon="5.57833">
        <ele>209</ele>
        <time>2013-02-15T09:43:06Z</time>
      </trkpt>
      <trkpt lat="43.19586" lon="5.57842">
        <ele>209</ele>
        <time>2013-02-15T09:43:11Z</time>
      </trkpt>
      <trkpt lat="43.19585" lon="5.57849">
        <ele>209</ele>
        <time>2013-02-15T09:43:16Z</time>
      </trkpt>
      <trkpt lat="43.19585" lon="5.57856">
        <ele>209</ele>
        <time>2013-02-15T09:43:21Z</time>
      </trkpt>
      <trkpt lat="43.1959" lon="5.57859">
        <ele>208</ele>
        <time>2013-02-15T09:43:26Z</time>
      </trkpt>
      <trkpt lat="43.19593" lon="5.57858">
        <ele>208</ele>
        <time>2013-02-15T09:43:31Z</time>
      </trkpt>
      <trkpt lat="43.19595" lon="5.57857">
        <ele>207</ele>
        <time>2013-02-15T09:43:36Z</time>
      </trkpt>
      <trkpt lat="43.19598" lon="5.57858">
        <ele>207</ele>
        <time>2013-02-15T09:43:41Z</time>
      </trkpt>
      <trkpt lat="43.19599" lon="5.57859">
        <ele>206</ele>
        <time>2013-02-15T09:43:46Z</time>
      </trkpt>
      <trkpt lat="43.19602" lon="5.57856">
        <ele>205</ele>
        <time>2013-02-15T09:43:51Z</time>
      </trkpt>
      <trkpt lat="43.19604" lon="5.57855">
        <ele>204</ele>
        <time>2013-02-15T09:43:56Z</time>
      </trkpt>
      <trkpt lat="43.19605" lon="5.5785">
        <ele>204</ele>
        <time>2013-02-15T09:44:01Z</time>
      </trkpt>
      <trkpt lat="43.19608" lon="5.57844">
        <ele>203</ele>
        <time>2013-02-15T09:44:06Z</time>
      </trkpt>
      <trkpt lat="43.19612" lon="5.57838">
        <ele>201</ele>
        <time>2013-02-15T09:44:11Z</time>
      </trkpt>
      <trkpt lat="43.19616" lon="5.57835">
        <ele>200</ele>
        <time>2013-02-15T09:44:16Z</time>
      </trkpt>
      <trkpt lat="43.19622" lon="5.5783">
        <ele>200</ele>
        <time>2013-02-15T09:44:21Z</time>
      </trkpt>
      <trkpt lat="43.19632" lon="5.57826">
        <ele>200</ele>
        <time>2013-02-15T09:44:26Z</time>
      </trkpt>
      <trkpt lat="43.19642" lon="5.57825">
        <ele>201</ele>
        <time>2013-02-15T09:44:31Z</time>
      </trkpt>
      <trkpt lat="43.19648" lon="5.57823">
        <ele>202</ele>
        <time>2013-02-15T09:44:36Z</time>
      </trkpt>
      <trkpt lat="43.19656" lon="5.57824">
        <ele>203</ele>
        <time>2013-02-15T09:44:41Z</time>
      </trkpt>
      <trkpt lat="43.19664" lon="5.5783">
        <ele>204</ele>
        <time>2013-02-15T09:44:46Z</time>
      </trkpt>
      <trkpt lat="43.19664" lon="5.57836">
        <ele>205</ele>
        <time>2013-02-15T09:44:51Z</time>
      </trkpt>
      <trkpt lat="43.19664" lon="5.57843">
        <ele>205</ele>
        <time>2013-02-15T09:44:56Z</time>
      </trkpt>
      <trkpt lat="43.19665" lon="5.57852">
        <ele>206</ele>
        <time>2013-02-15T09:45:01Z</time>
      </trkpt>
      <trkpt lat="43.19666" lon="5.57855">
        <ele>206</ele>
        <time>2013-02-15T09:45:06Z</time>
      </trkpt>
      <trkpt lat="43.19666" lon="5.57859">
        <ele>207</ele>
        <time>2013-02-15T09:45:11Z</time>
      </trkpt>
      <trkpt lat="43.19667" lon="5.57863">
        <ele>207</ele>
        <time>2013-02-15T09:45:16Z</time>
      </trkpt>
      <trkpt lat="43.19668" lon="5.5787">
        <ele>207</ele>
        <time>2013-02-15T09:45:21Z</time>
      </trkpt>
      <trkpt lat="43.19672" lon="5.5788">
        <ele>207</ele>
        <time>2013-02-15T09:45:26Z</time>
      </trkpt>
      <trkpt lat="43.19676" lon="5.57891">
        <ele>206</ele>
        <time>2013-02-15T09:45:31Z</time>
      </trkpt>
      <trkpt lat="43.19679" lon="5.57901">
        <ele>206</ele>
        <time>2013-02-15T09:45:36Z</time>
      </trkpt>
      <trkpt lat="43.19683" lon="5.57908">
        <ele>206</ele>
        <time>2013-02-15T09:45:41Z</time>
      </trkpt>
      <trkpt lat="43.19686" lon="5.57913">
        <ele>206</ele>
        <time>2013-02-15T09:45:46Z</time>
      </trkpt>
      <trkpt lat="43.19691" lon="5.57919">
        <ele>206</ele>
        <time>2013-02-15T09:45:51Z</time>
      </trkpt>
      <trkpt lat="43.19695" lon="5.57925">
        <ele>206</ele>
        <time>2013-02-15T09:45:56Z</time>
      </trkpt>
      <trkpt lat="43.19701" lon="5.57929">
        <ele>207</ele>
        <time>2013-02-15T09:46:01Z</time>
      </trkpt>
      <trkpt lat="43.19707" lon="5.57932">
        <ele>207</ele>
        <time>2013-02-15T09:46:06Z</time>
      </trkpt>
      <trkpt lat="43.19711" lon="5.57931">
        <ele>207</ele>
        <time>2013-02-15T09:46:11Z</time>
      </trkpt>
      <trkpt lat="43.19715" lon="5.57929">
        <ele>207</ele>
        <time>2013-02-15T09:46:16Z</time>
      </trkpt>
      <trkpt lat="43.19721" lon="5.57923">
        <ele>207</ele>
        <time>2013-02-15T09:46:21Z</time>
      </trkpt>
      <trkpt lat="43.19725" lon="5.57919">
        <ele>207</ele>
        <time>2013-02-15T09:46:26Z</time>
      </trkpt>
      <trkpt lat="43.1973" lon="5.57916">
        <ele>207</ele>
        <time>2013-02-15T09:46:31Z</time>
      </trkpt>
      <trkpt lat="43.19734" lon="5.5791">
        <ele>207</ele>
        <time>2013-02-15T09:46:36Z</time>
      </trkpt>
      <trkpt lat="43.19741" lon="5.57904">
        <ele>207</ele>
        <time>2013-02-15T09:46:41Z</time>
      </trkpt>
      <trkpt lat="43.19747" lon="5.57898">
        <ele>207</ele>
        <time>2013-02-15T09:46:46Z</time>
      </trkpt>
      <trkpt lat="43.19753" lon="5.57892">
        <ele>207</ele>
        <time>2013-02-15T09:46:51Z</time>
      </trkpt>
      <trkpt lat="43.19759" lon="5.57883">
        <ele>208</ele>
        <time>2013-02-15T09:46:56Z</time>
      </trkpt>
      <trkpt lat="43.19763" lon="5.57878">
        <ele>208</ele>
        <time>2013-02-15T09:47:01Z</time>
      </trkpt>
      <trkpt lat="43.19767" lon="5.57872">
        <ele>207</ele>
        <time>2013-02-15T09:47:06Z</time>
      </trkpt>
      <trkpt lat="43.19771" lon="5.57867">
        <ele>208</ele>
        <time>2013-02-15T09:47:11Z</time>
      </trkpt>
      <trkpt lat="43.19777" lon="5.57864">
        <ele>208</ele>
        <time>2013-02-15T09:47:16Z</time>
      </trkpt>
      <trkpt lat="43.19783" lon="5.57859">
        <ele>208</ele>
        <time>2013-02-15T09:47:21Z</time>
      </trkpt>
      <trkpt lat="43.19788" lon="5.57857">
        <ele>207</ele>
        <time>2013-02-15T09:47:26Z</time>
      </trkpt>
      <trkpt lat="43.19794" lon="5.57854">
        <ele>207</ele>
        <time>2013-02-15T09:47:31Z</time>
      </trkpt>
      <trkpt lat="43.19799" lon="5.57852">
        <ele>207</ele>
        <time>2013-02-15T09:47:36Z</time>
      </trkpt>
      <trkpt lat="43.19805" lon="5.57846">
        <ele>206</ele>
        <time>2013-02-15T09:47:41Z</time>
      </trkpt>
      <trkpt lat="43.19811" lon="5.57841">
        <ele>206</ele>
        <time>2013-02-15T09:47:46Z</time>
      </trkpt>
      <trkpt lat="43.19816" lon="5.57836">
        <ele>206</ele>
        <time>2013-02-15T09:47:51Z</time>
      </trkpt>
      <trkpt lat="43.19822" lon="5.57829">
        <ele>206</ele>
        <time>2013-02-15T09:47:56Z</time>
      </trkpt>
      <trkpt lat="43.19826" lon="5.57822">
        <ele>207</ele>
        <time>2013-02-15T09:48:01Z</time>
      </trkpt>
      <trkpt lat="43.1983" lon="5.57817">
        <ele>207</ele>
        <time>2013-02-15T09:48:06Z</time>
      </trkpt>
      <trkpt lat="43.19833" lon="5.5781">
        <ele>207</ele>
        <time>2013-02-15T09:48:11Z</time>
      </trkpt>
      <trkpt lat="43.19834" lon="5.57801">
        <ele>207</ele>
        <time>2013-02-15T09:48:16Z</time>
      </trkpt>
      <trkpt lat="43.19835" lon="5.57793">
        <ele>207</ele>
        <time>2013-02-15T09:48:21Z</time>
      </trkpt>
      <trkpt lat="43.19835" lon="5.57784">
        <ele>207</ele>
        <time>2013-02-15T09:48:26Z</time>
      </trkpt>
      <trkpt lat="43.19835" lon="5.57776">
        <ele>207</ele>
        <time>2013-02-15T09:48:31Z</time>
      </trkpt>
      <trkpt lat="43.19836" lon="5.57771">
        <ele>206</ele>
        <time>2013-02-15T09:48:36Z</time>
      </trkpt>
      <trkpt lat="43.19839" lon="5.57765">
        <ele>205</ele>
        <time>2013-02-15T09:48:41Z</time>
      </trkpt>
      <trkpt lat="43.1984" lon="5.57761">
        <ele>205</ele>
        <time>2013-02-15T09:48:46Z</time>
      </trkpt>
      <trkpt lat="43.1984" lon="5.57755">
        <ele>204</ele>
        <time>2013-02-15T09:48:51Z</time>
      </trkpt>
      <trkpt lat="43.19839" lon="5.57749">
        <ele>203</ele>
        <time>2013-02-15T09:48:56Z</time>
      </trkpt>
      <trkpt lat="43.19839" lon="5.57741">
        <ele>202</ele>
        <time>2013-02-15T09:49:01Z</time>
      </trkpt>
      <trkpt lat="43.19839" lon="5.57735">
        <ele>201</ele>
        <time>2013-02-15T09:49:06Z</time>
      </trkpt>
      <trkpt lat="43.19838" lon="5.57729">
        <ele>201</ele>
        <time>2013-02-15T09:49:11Z</time>
      </trkpt>
      <trkpt lat="43.19836" lon="5.57719">
        <ele>201</ele>
        <time>2013-02-15T09:49:16Z</time>
      </trkpt>
      <trkpt lat="43.19835" lon="5.57703">
        <ele>202</ele>
        <time>2013-02-15T09:49:21Z</time>
      </trkpt>
      <trkpt lat="43.19833" lon="5.57692">
        <ele>202</ele>
        <time>2013-02-15T09:49:26Z</time>
      </trkpt>
      <trkpt lat="43.19831" lon="5.57683">
        <ele>202</ele>
        <time>2013-02-15T09:49:31Z</time>
      </trkpt>
      <trkpt lat="43.19827" lon="5.57674">
        <ele>203</ele>
        <time>2013-02-15T09:49:36Z</time>
      </trkpt>
      <trkpt lat="43.19824" lon="5.57666">
        <ele>203</ele>
        <time>2013-02-15T09:49:41Z</time>
      </trkpt>
      <trkpt lat="43.1982" lon="5.57659">
        <ele>203</ele>
        <time>2013-02-15T09:49:46Z</time>
      </trkpt>
      <trkpt lat="43.19817" lon="5.57654">
        <ele>203</ele>
        <time>2013-02-15T09:49:51Z</time>
      </trkpt>
      <trkpt lat="43.19815" lon="5.57647">
        <ele>203</ele>
        <time>2013-02-15T09:49:56Z</time>
      </trkpt>
      <trkpt lat="43.19813" lon="5.57641">
        <ele>203</ele>
        <time>2013-02-15T09:50:01Z</time>
      </trkpt>
      <trkpt lat="43.19814" lon="5.57637">
        <ele>203</ele>
        <time>2013-02-15T09:50:06Z</time>
      </trkpt>
      <trkpt lat="43.19818" lon="5.57633">
        <ele>203</ele>
        <time>2013-02-15T09:50:11Z</time>
      </trkpt>
      <trkpt lat="43.19828" lon="5.57638">
        <ele>204</ele>
        <time>2013-02-15T09:50:16Z</time>
      </trkpt>
      <trkpt lat="43.19832" lon="5.57642">
        <ele>204</ele>
        <time>2013-02-15T09:50:21Z</time>
      </trkpt>
      <trkpt lat="43.19837" lon="5.57646">
        <ele>205</ele>
        <time>2013-02-15T09:50:26Z</time>
      </trkpt>
      <trkpt lat="43.19841" lon="5.5765">
        <ele>205</ele>
        <time>2013-02-15T09:50:31Z</time>
      </trkpt>
      <trkpt lat="43.19846" lon="5.57653">
        <ele>206</ele>
        <time>2013-02-15T09:50:36Z</time>
      </trkpt>
      <trkpt lat="43.19852" lon="5.57658">
        <ele>206</ele>
        <time>2013-02-15T09:50:41Z</time>
      </trkpt>
      <trkpt lat="43.19858" lon="5.57659">
        <ele>206</ele>
        <time>2013-02-15T09:50:46Z</time>
      </trkpt>
      <trkpt lat="43.19863" lon="5.57662">
        <ele>207</ele>
        <time>2013-02-15T09:50:51Z</time>
      </trkpt>
      <trkpt lat="43.19867" lon="5.57665">
        <ele>207</ele>
        <time>2013-02-15T09:50:56Z</time>
      </trkpt>
      <trkpt lat="43.1987" lon="5.57668">
        <ele>207</ele>
        <time>2013-02-15T09:51:01Z</time>
      </trkpt>
      <trkpt lat="43.19871" lon="5.57673">
        <ele>207</ele>
        <time>2013-02-15T09:51:06Z</time>
      </trkpt>
      <trkpt lat="43.19874" lon="5.57671">
        <ele>207</ele>
        <time>2013-02-15T09:51:11Z</time>
      </trkpt>
      <trkpt lat="43.19876" lon="5.57668">
        <ele>207</ele>
        <time>2013-02-15T09:51:16Z</time>
      </trkpt>
      <trkpt lat="43.19876" lon="5.57667">
        <ele>207</ele>
        <time>2013-02-15T09:51:21Z</time>
      </trkpt>
      <trkpt lat="43.19875" lon="5.57667">
        <ele>207</ele>
        <time>2013-02-15T09:51:26Z</time>
      </trkpt>
      <trkpt lat="43.19875" lon="5.57673">
        <ele>207</ele>
        <time>2013-02-15T09:51:31Z</time>
      </trkpt>
      <trkpt lat="43.19875" lon="5.57677">
        <ele>207</ele>
        <time>2013-02-15T09:51:36Z</time>
      </trkpt>
      <trkpt lat="43.19873" lon="5.57679">
        <ele>206</ele>
        <time>2013-02-15T09:51:41Z</time>
      </trkpt>
      <trkpt lat="43.19874" lon="5.57672">
        <ele>205</ele>
        <time>2013-02-15T09:51:46Z</time>
      </trkpt>
      <trkpt lat="43.19874" lon="5.57668">
        <ele>205</ele>
        <time>2013-02-15T09:51:51Z</time>
      </trkpt>
      <trkpt lat="43.19874" lon="5.57664">
        <ele>205</ele>
        <time>2013-02-15T09:51:56Z</time>
      </trkpt>
      <trkpt lat="43.19875" lon="5.57665">
        <ele>205</ele>
        <time>2013-02-15T09:52:01Z</time>
      </trkpt>
      <trkpt lat="43.19877" lon="5.57669">
        <ele>205</ele>
        <time>2013-02-15T09:52:06Z</time>
      </trkpt>
      <trkpt lat="43.19877" lon="5.57669">
        <ele>205</ele>
        <time>2013-02-15T09:52:11Z</time>
      </trkpt>
      <trkpt lat="43.19877" lon="5.57669">
        <ele>205</ele>
        <time>2013-02-15T09:52:16Z</time>
      </trkpt>
      <trkpt lat="43.19876" lon="5.5767">
        <ele>205</ele>
        <time>2013-02-15T09:52:21Z</time>
      </trkpt>
      <trkpt lat="43.19878" lon="5.57669">
        <ele>205</ele>
        <time>2013-02-15T09:52:26Z</time>
      </trkpt>
      <trkpt lat="43.19879" lon="5.57667">
        <ele>205</ele>
        <time>2013-02-15T09:52:31Z</time>
      </trkpt>
      <trkpt lat="43.19881" lon="5.57667">
        <ele>205</ele>
        <time>2013-02-15T09:52:36Z</time>
      </trkpt>
      <trkpt lat="43.19887" lon="5.57669">
        <ele>205</ele>
        <time>2013-02-15T09:52:41Z</time>
      </trkpt>
      <trkpt lat="43.19893" lon="5.57671">
        <ele>205</ele>
        <time>2013-02-15T09:52:46Z</time>
      </trkpt>
      <trkpt lat="43.19896" lon="5.57673">
        <ele>205</ele>
        <time>2013-02-15T09:52:51Z</time>
      </trkpt>
      <trkpt lat="43.19898" lon="5.5767">
        <ele>205</ele>
        <time>2013-02-15T09:52:56Z</time>
      </trkpt>
      <trkpt lat="43.19903" lon="5.57665">
        <ele>204</ele>
        <time>2013-02-15T09:53:01Z</time>
      </trkpt>
      <trkpt lat="43.19909" lon="5.57663">
        <ele>204</ele>
        <time>2013-02-15T09:53:06Z</time>
      </trkpt>
      <trkpt lat="43.19916" lon="5.57657">
        <ele>203</ele>
        <time>2013-02-15T09:53:11Z</time>
      </trkpt>
      <trkpt lat="43.19924" lon="5.57652">
        <ele>203</ele>
        <time>2013-02-15T09:53:16Z</time>
      </trkpt>
      <trkpt lat="43.19929" lon="5.57649">
        <ele>203</ele>
        <time>2013-02-15T09:53:21Z</time>
      </trkpt>
      <trkpt lat="43.19933" lon="5.57642">
        <ele>203</ele>
        <time>2013-02-15T09:53:26Z</time>
      </trkpt>
      <trkpt lat="43.19937" lon="5.57636">
        <ele>203</ele>
        <time>2013-02-15T09:53:31Z</time>
      </trkpt>
      <trkpt lat="43.19942" lon="5.5763">
        <ele>203</ele>
        <time>2013-02-15T09:53:36Z</time>
      </trkpt>
      <trkpt lat="43.19946" lon="5.57623">
        <ele>203</ele>
        <time>2013-02-15T09:53:41Z</time>
      </trkpt>
      <trkpt lat="43.19953" lon="5.57615">
        <ele>203</ele>
        <time>2013-02-15T09:53:46Z</time>
      </trkpt>
      <trkpt lat="43.19958" lon="5.57608">
        <ele>202</ele>
        <time>2013-02-15T09:53:51Z</time>
      </trkpt>
      <trkpt lat="43.19964" lon="5.57604">
        <ele>203</ele>
        <time>2013-02-15T09:53:56Z</time>
      </trkpt>
      <trkpt lat="43.19971" lon="5.57597">
        <ele>204</ele>
        <time>2013-02-15T09:54:01Z</time>
      </trkpt>
      <trkpt lat="43.19977" lon="5.57591">
        <ele>204</ele>
        <time>2013-02-15T09:54:06Z</time>
      </trkpt>
      <trkpt lat="43.1998" lon="5.57585">
        <ele>205</ele>
        <time>2013-02-15T09:54:11Z</time>
      </trkpt>
      <trkpt lat="43.19983" lon="5.57578">
        <ele>205</ele>
        <time>2013-02-15T09:54:16Z</time>
      </trkpt>
      <trkpt lat="43.19989" lon="5.57572">
        <ele>206</ele>
        <time>2013-02-15T09:54:21Z</time>
      </trkpt>
      <trkpt lat="43.19996" lon="5.57568">
        <ele>207</ele>
        <time>2013-02-15T09:54:26Z</time>
      </trkpt>
      <trkpt lat="43.19999" lon="5.57574">
        <ele>208</ele>
        <time>2013-02-15T09:54:31Z</time>
      </trkpt>
      <trkpt lat="43.19996" lon="5.57583">
        <ele>208</ele>
        <time>2013-02-15T09:54:36Z</time>
      </trkpt>
      <trkpt lat="43.19991" lon="5.57591">
        <ele>208</ele>
        <time>2013-02-15T09:54:41Z</time>
      </trkpt>
      <trkpt lat="43.19988" lon="5.57601">
        <ele>208</ele>
        <time>2013-02-15T09:54:46Z</time>
      </trkpt>
      <trkpt lat="43.19984" lon="5.57611">
        <ele>208</ele>
        <time>2013-02-15T09:54:51Z</time>
      </trkpt>
      <trkpt lat="43.19983" lon="5.57621">
        <ele>208</ele>
        <time>2013-02-15T09:54:56Z</time>
      </trkpt>
      <trkpt lat="43.19982" lon="5.57629">
        <ele>208</ele>
        <time>2013-02-15T09:55:01Z</time>
      </trkpt>
      <trkpt lat="43.19981" lon="5.57637">
        <ele>208</ele>
        <time>2013-02-15T09:55:06Z</time>
      </trkpt>
      <trkpt lat="43.1998" lon="5.57643">
        <ele>208</ele>
        <time>2013-02-15T09:55:11Z</time>
      </trkpt>
      <trkpt lat="43.1998" lon="5.57649">
        <ele>208</ele>
        <time>2013-02-15T09:55:16Z</time>
      </trkpt>
      <trkpt lat="43.1998" lon="5.57657">
        <ele>208</ele>
        <time>2013-02-15T09:55:21Z</time>
      </trkpt>
      <trkpt lat="43.19979" lon="5.57667">
        <ele>208</ele>
        <time>2013-02-15T09:55:26Z</time>
      </trkpt>
      <trkpt lat="43.19979" lon="5.57677">
        <ele>208</ele>
        <time>2013-02-15T09:55:31Z</time>
      </trkpt>
      <trkpt lat="43.19979" lon="5.57683">
        <ele>208</ele>
        <time>2013-02-15T09:55:36Z</time>
      </trkpt>
      <trkpt lat="43.19978" lon="5.57691">
        <ele>208</ele>
        <time>2013-02-15T09:55:41Z</time>
      </trkpt>
      <trkpt lat="43.19976" lon="5.57701">
        <ele>208</ele>
        <time>2013-02-15T09:55:46Z</time>
      </trkpt>
      <trkpt lat="43.19974" lon="5.57709">
        <ele>208</ele>
        <time>2013-02-15T09:55:51Z</time>
      </trkpt>
      <trkpt lat="43.19971" lon="5.57717">
        <ele>207</ele>
        <time>2013-02-15T09:55:56Z</time>
      </trkpt>
      <trkpt lat="43.19969" lon="5.57726">
        <ele>207</ele>
        <time>2013-02-15T09:56:01Z</time>
      </trkpt>
      <trkpt lat="43.19968" lon="5.57734">
        <ele>207</ele>
        <time>2013-02-15T09:56:06Z</time>
      </trkpt>
      <trkpt lat="43.19966" lon="5.57741">
        <ele>206</ele>
        <time>2013-02-15T09:56:11Z</time>
      </trkpt>
      <trkpt lat="43.19964" lon="5.57751">
        <ele>206</ele>
        <time>2013-02-15T09:56:16Z</time>
      </trkpt>
      <trkpt lat="43.19961" lon="5.57759">
        <ele>206</ele>
        <time>2013-02-15T09:56:21Z</time>
      </trkpt>
      <trkpt lat="43.19959" lon="5.57767">
        <ele>205</ele>
        <time>2013-02-15T09:56:26Z</time>
      </trkpt>
      <trkpt lat="43.19957" lon="5.57776">
        <ele>206</ele>
        <time>2013-02-15T09:56:31Z</time>
      </trkpt>
      <trkpt lat="43.19955" lon="5.57784">
        <ele>206</ele>
        <time>2013-02-15T09:56:36Z</time>
      </trkpt>
      <trkpt lat="43.19954" lon="5.57793">
        <ele>207</ele>
        <time>2013-02-15T09:56:41Z</time>
      </trkpt>
      <trkpt lat="43.19952" lon="5.57802">
        <ele>206</ele>
        <time>2013-02-15T09:56:46Z</time>
      </trkpt>
      <trkpt lat="43.19952" lon="5.5781">
        <ele>207</ele>
        <time>2013-02-15T09:56:51Z</time>
      </trkpt>
      <trkpt lat="43.19954" lon="5.5782">
        <ele>207</ele>
        <time>2013-02-15T09:56:56Z</time>
      </trkpt>
      <trkpt lat="43.19958" lon="5.57827">
        <ele>207</ele>
        <time>2013-02-15T09:57:01Z</time>
      </trkpt>
      <trkpt lat="43.19964" lon="5.57831">
        <ele>208</ele>
        <time>2013-02-15T09:57:06Z</time>
      </trkpt>
      <trkpt lat="43.1997" lon="5.57831">
        <ele>208</ele>
        <time>2013-02-15T09:57:11Z</time>
      </trkpt>
      <trkpt lat="43.19975" lon="5.5783">
        <ele>208</ele>
        <time>2013-02-15T09:57:16Z</time>
      </trkpt>
      <trkpt lat="43.19981" lon="5.57828">
        <ele>208</ele>
        <time>2013-02-15T09:57:21Z</time>
      </trkpt>
      <trkpt lat="43.19987" lon="5.57828">
        <ele>208</ele>
        <time>2013-02-15T09:57:26Z</time>
      </trkpt>
      <trkpt lat="43.19993" lon="5.57827">
        <ele>208</ele>
        <time>2013-02-15T09:57:31Z</time>
      </trkpt>
      <trkpt lat="43.2" lon="5.57823">
        <ele>207</ele>
        <time>2013-02-15T09:57:36Z</time>
      </trkpt>
      <trkpt lat="43.20006" lon="5.5782">
        <ele>207</ele>
        <time>2013-02-15T09:57:41Z</time>
      </trkpt>
      <trkpt lat="43.20013" lon="5.57815">
        <ele>206</ele>
        <time>2013-02-15T09:57:46Z</time>
      </trkpt>
      <trkpt lat="43.20019" lon="5.57812">
        <ele>206</ele>
        <time>2013-02-15T09:57:51Z</time>
      </trkpt>
      <trkpt lat="43.20025" lon="5.57808">
        <ele>207</ele>
        <time>2013-02-15T09:57:56Z</time>
      </trkpt>
      <trkpt lat="43.20032" lon="5.57803">
        <ele>207</ele>
        <time>2013-02-15T09:58:01Z</time>
      </trkpt>
      <trkpt lat="43.20036" lon="5.57799">
        <ele>207</ele>
        <time>2013-02-15T09:58:06Z</time>
      </trkpt>
      <trkpt lat="43.20042" lon="5.57795">
        <ele>207</ele>
        <time>2013-02-15T09:58:11Z</time>
      </trkpt>
      <trkpt lat="43.20047" lon="5.57787">
        <ele>207</ele>
        <time>2013-02-15T09:58:16Z</time>
      </trkpt>
      <trkpt lat="43.2005" lon="5.57783">
        <ele>208</ele>
        <time>2013-02-15T09:58:21Z</time>
      </trkpt>
      <trkpt lat="43.20055" lon="5.57779">
        <ele>209</ele>
        <time>2013-02-15T09:58:26Z</time>
      </trkpt>
      <trkpt lat="43.20061" lon="5.57774">
        <ele>208</ele>
        <time>2013-02-15T09:58:31Z</time>
      </trkpt>
      <trkpt lat="43.20066" lon="5.5777">
        <ele>208</ele>
        <time>2013-02-15T09:58:36Z</time>
      </trkpt>
      <trkpt lat="43.20071" lon="5.57764">
        <ele>208</ele>
        <time>2013-02-15T09:58:41Z</time>
      </trkpt>
      <trkpt lat="43.20076" lon="5.57758">
        <ele>208</ele>
        <time>2013-02-15T09:58:46Z</time>
      </trkpt>
      <trkpt lat="43.2008" lon="5.57754">
        <ele>208</ele>
        <time>2013-02-15T09:58:51Z</time>
      </trkpt>
      <trkpt lat="43.20084" lon="5.57748">
        <ele>208</ele>
        <time>2013-02-15T09:58:56Z</time>
      </trkpt>
      <trkpt lat="43.20088" lon="5.57743">
        <ele>208</ele>
        <time>2013-02-15T09:59:01Z</time>
      </trkpt>
      <trkpt lat="43.20093" lon="5.57736">
        <ele>208</ele>
        <time>2013-02-15T09:59:06Z</time>
      </trkpt>
      <trkpt lat="43.20098" lon="5.5773">
        <ele>208</ele>
        <time>2013-02-15T09:59:11Z</time>
      </trkpt>
      <trkpt lat="43.20103" lon="5.57724">
        <ele>208</ele>
        <time>2013-02-15T09:59:16Z</time>
      </trkpt>
      <trkpt lat="43.20107" lon="5.57719">
        <ele>208</ele>
        <time>2013-02-15T09:59:21Z</time>
      </trkpt>
      <trkpt lat="43.20112" lon="5.57714">
        <ele>208</ele>
        <time>2013-02-15T09:59:26Z</time>
      </trkpt>
      <trkpt lat="43.20115" lon="5.5771">
        <ele>208</ele>
        <time>2013-02-15T09:59:31Z</time>
      </trkpt>
      <trkpt lat="43.20119" lon="5.57706">
        <ele>208</ele>
        <time>2013-02-15T09:59:36Z</time>
      </trkpt>
      <trkpt lat="43.20123" lon="5.57702">
        <ele>208</ele>
        <time>2013-02-15T09:59:41Z</time>
      </trkpt>
      <trkpt lat="43.20127" lon="5.57695">
        <ele>207</ele>
        <time>2013-02-15T09:59:46Z</time>
      </trkpt>
      <trkpt lat="43.20131" lon="5.57689">
        <ele>207</ele>
        <time>2013-02-15T09:59:51Z</time>
      </trkpt>
      <trkpt lat="43.20134" lon="5.57683">
        <ele>206</ele>
        <time>2013-02-15T09:59:56Z</time>
      </trkpt>
      <trkpt lat="43.20138" lon="5.5768">
        <ele>205</ele>
        <time>2013-02-15T10:00:01Z</time>
      </trkpt>
      <trkpt lat="43.20143" lon="5.57674">
        <ele>205</ele>
        <time>2013-02-15T10:00:06Z</time>
      </trkpt>
      <trkpt lat="43.2015" lon="5.57667">
        <ele>205</ele>
        <time>2013-02-15T10:00:11Z</time>
      </trkpt>
      <trkpt lat="43.20156" lon="5.57659">
        <ele>205</ele>
        <time>2013-02-15T10:00:16Z</time>
      </trkpt>
      <trkpt lat="43.20162" lon="5.57653">
        <ele>205</ele>
        <time>2013-02-15T10:00:21Z</time>
      </trkpt>
      <trkpt lat="43.20166" lon="5.57646">
        <ele>205</ele>
        <time>2013-02-15T10:00:26Z</time>
      </trkpt>
      <trkpt lat="43.2017" lon="5.57638">
        <ele>206</ele>
        <time>2013-02-15T10:00:31Z</time>
      </trkpt>
      <trkpt lat="43.20174" lon="5.57633">
        <ele>206</ele>
        <time>2013-02-15T10:00:36Z</time>
      </trkpt>
      <trkpt lat="43.20179" lon="5.57628">
        <ele>206</ele>
        <time>2013-02-15T10:00:41Z</time>
      </trkpt>
      <trkpt lat="43.20184" lon="5.5762">
        <ele>207</ele>
        <time>2013-02-15T10:00:46Z</time>
      </trkpt>
      <trkpt lat="43.20189" lon="5.57615">
        <ele>207</ele>
        <time>2013-02-15T10:00:51Z</time>
      </trkpt>
      <trkpt lat="43.20194" lon="5.5761">
        <ele>207</ele>
        <time>2013-02-15T10:00:56Z</time>
      </trkpt>
      <trkpt lat="43.20199" lon="5.57605">
        <ele>208</ele>
        <time>2013-02-15T10:01:01Z</time>
      </trkpt>
      <trkpt lat="43.20204" lon="5.57597">
        <ele>209</ele>
        <time>2013-02-15T10:01:06Z</time>
      </trkpt>
      <trkpt lat="43.20207" lon="5.57589">
        <ele>210</ele>
        <time>2013-02-15T10:01:11Z</time>
      </trkpt>
      <trkpt lat="43.20208" lon="5.57579">
        <ele>211</ele>
        <time>2013-02-15T10:01:16Z</time>
      </trkpt>
      <trkpt lat="43.2021" lon="5.57572">
        <ele>211</ele>
        <time>2013-02-15T10:01:21Z</time>
      </trkpt>
      <trkpt lat="43.20213" lon="5.57564">
        <ele>211</ele>
        <time>2013-02-15T10:01:26Z</time>
      </trkpt>
      <trkpt lat="43.20215" lon="5.57555">
        <ele>212</ele>
        <time>2013-02-15T10:01:31Z</time>
      </trkpt>
      <trkpt lat="43.20217" lon="5.57546">
        <ele>212</ele>
        <time>2013-02-15T10:01:36Z</time>
      </trkpt>
      <trkpt lat="43.2022" lon="5.57539">
        <ele>214</ele>
        <time>2013-02-15T10:01:41Z</time>
      </trkpt>
      <trkpt lat="43.20221" lon="5.57539">
        <ele>214</ele>
        <time>2013-02-15T10:01:46Z</time>
      </trkpt>
      <trkpt lat="43.20223" lon="5.57543">
        <ele>213</ele>
        <time>2013-02-15T10:01:51Z</time>
      </trkpt>
      <trkpt lat="43.2022" lon="5.57551">
        <ele>212</ele>
        <time>2013-02-15T10:01:56Z</time>
      </trkpt>
      <trkpt lat="43.20218" lon="5.57559">
        <ele>211</ele>
        <time>2013-02-15T10:02:01Z</time>
      </trkpt>
      <trkpt lat="43.20216" lon="5.57569">
        <ele>210</ele>
        <time>2013-02-15T10:02:06Z</time>
      </trkpt>
      <trkpt lat="43.20216" lon="5.5758">
        <ele>210</ele>
        <time>2013-02-15T10:02:11Z</time>
      </trkpt>
      <trkpt lat="43.20218" lon="5.57589">
        <ele>209</ele>
        <time>2013-02-15T10:02:16Z</time>
      </trkpt>
      <trkpt lat="43.20219" lon="5.57598">
        <ele>209</ele>
        <time>2013-02-15T10:02:21Z</time>
      </trkpt>
      <trkpt lat="43.20221" lon="5.57607">
        <ele>209</ele>
        <time>2013-02-15T10:02:26Z</time>
      </trkpt>
      <trkpt lat="43.2022" lon="5.57616">
        <ele>209</ele>
        <time>2013-02-15T10:02:31Z</time>
      </trkpt>
      <trkpt lat="43.2022" lon="5.57627">
        <ele>210</ele>
        <time>2013-02-15T10:02:36Z</time>
      </trkpt>
      <trkpt lat="43.20219" lon="5.57635">
        <ele>209</ele>
        <time>2013-02-15T10:02:41Z</time>
      </trkpt>
      <trkpt lat="43.20217" lon="5.57642">
        <ele>210</ele>
        <time>2013-02-15T10:02:46Z</time>
      </trkpt>
      <trkpt lat="43.20215" lon="5.57647">
        <ele>210</ele>
        <time>2013-02-15T10:02:51Z</time>
      </trkpt>
      <trkpt lat="43.20213" lon="5.57656">
        <ele>210</ele>
        <time>2013-02-15T10:02:56Z</time>
      </trkpt>
      <trkpt lat="43.2021" lon="5.57665">
        <ele>210</ele>
        <time>2013-02-15T10:03:01Z</time>
      </trkpt>
      <trkpt lat="43.20207" lon="5.57674">
        <ele>211</ele>
        <time>2013-02-15T10:03:06Z</time>
      </trkpt>
      <trkpt lat="43.20205" lon="5.57677">
        <ele>212</ele>
        <time>2013-02-15T10:03:11Z</time>
      </trkpt>
      <trkpt lat="43.20203" lon="5.57686">
        <ele>213</ele>
        <time>2013-02-15T10:03:16Z</time>
      </trkpt>
      <trkpt lat="43.20204" lon="5.57697">
        <ele>213</ele>
        <time>2013-02-15T10:03:21Z</time>
      </trkpt>
      <trkpt lat="43.20205" lon="5.57705">
        <ele>214</ele>
        <time>2013-02-15T10:03:26Z</time>
      </trkpt>
      <trkpt lat="43.20205" lon="5.5771">
        <ele>215</ele>
        <time>2013-02-15T10:03:31Z</time>
      </trkpt>
      <trkpt lat="43.20207" lon="5.5772">
        <ele>215</ele>
        <time>2013-02-15T10:03:36Z</time>
      </trkpt>
      <trkpt lat="43.20206" lon="5.57729">
        <ele>215</ele>
        <time>2013-02-15T10:03:41Z</time>
      </trkpt>
      <trkpt lat="43.20206" lon="5.5774">
        <ele>215</ele>
        <time>2013-02-15T10:03:46Z</time>
      </trkpt>
      <trkpt lat="43.20207" lon="5.57751">
        <ele>215</ele>
        <time>2013-02-15T10:03:51Z</time>
      </trkpt>
      <trkpt lat="43.20206" lon="5.57761">
        <ele>216</ele>
        <time>2013-02-15T10:03:56Z</time>
      </trkpt>
      <trkpt lat="43.20203" lon="5.57769">
        <ele>215</ele>
        <time>2013-02-15T10:04:01Z</time>
      </trkpt>
      <trkpt lat="43.20201" lon="5.57777">
        <ele>215</ele>
        <time>2013-02-15T10:04:06Z</time>
      </trkpt>
      <trkpt lat="43.20199" lon="5.57785">
        <ele>215</ele>
        <time>2013-02-15T10:04:11Z</time>
      </trkpt>
      <trkpt lat="43.20196" lon="5.57792">
        <ele>215</ele>
        <time>2013-02-15T10:04:17Z</time>
      </trkpt>
      <trkpt lat="43.20193" lon="5.57798">
        <ele>215</ele>
        <time>2013-02-15T10:04:22Z</time>
      </trkpt>
      <trkpt lat="43.20191" lon="5.57804">
        <ele>215</ele>
        <time>2013-02-15T10:04:27Z</time>
      </trkpt>
      <trkpt lat="43.20189" lon="5.57809">
        <ele>216</ele>
        <time>2013-02-15T10:04:32Z</time>
      </trkpt>
      <trkpt lat="43.20186" lon="5.57817">
        <ele>216</ele>
        <time>2013-02-15T10:04:37Z</time>
      </trkpt>
      <trkpt lat="43.20184" lon="5.57823">
        <ele>215</ele>
        <time>2013-02-15T10:04:42Z</time>
      </trkpt>
      <trkpt lat="43.20181" lon="5.57833">
        <ele>215</ele>
        <time>2013-02-15T10:04:47Z</time>
      </trkpt>
      <trkpt lat="43.20178" lon="5.57842">
        <ele>215</ele>
        <time>2013-02-15T10:04:52Z</time>
      </trkpt>
      <trkpt lat="43.20178" lon="5.57849">
        <ele>214</ele>
        <time>2013-02-15T10:04:57Z</time>
      </trkpt>
      <trkpt lat="43.20174" lon="5.57856">
        <ele>214</ele>
        <time>2013-02-15T10:05:02Z</time>
      </trkpt>
      <trkpt lat="43.20169" lon="5.57866">
        <ele>214</ele>
        <time>2013-02-15T10:05:07Z</time>
      </trkpt>
      <trkpt lat="43.20166" lon="5.57874">
        <ele>214</ele>
        <time>2013-02-15T10:05:12Z</time>
      </trkpt>
      <trkpt lat="43.20164" lon="5.57882">
        <ele>214</ele>
        <time>2013-02-15T10:05:17Z</time>
      </trkpt>
      <trkpt lat="43.20162" lon="5.57889">
        <ele>215</ele>
        <time>2013-02-15T10:05:22Z</time>
      </trkpt>
      <trkpt lat="43.20161" lon="5.57896">
        <ele>215</ele>
        <time>2013-02-15T10:05:27Z</time>
      </trkpt>
      <trkpt lat="43.20159" lon="5.57904">
        <ele>215</ele>
        <time>2013-02-15T10:05:32Z</time>
      </trkpt>
      <trkpt lat="43.20157" lon="5.57909">
        <ele>215</ele>
        <time>2013-02-15T10:05:37Z</time>
      </trkpt>
      <trkpt lat="43.20154" lon="5.57918">
        <ele>215</ele>
        <time>2013-02-15T10:05:42Z</time>
      </trkpt>
      <trkpt lat="43.20151" lon="5.57925">
        <ele>215</ele>
        <time>2013-02-15T10:05:47Z</time>
      </trkpt>
      <trkpt lat="43.20149" lon="5.57933">
        <ele>215</ele>
        <time>2013-02-15T10:05:52Z</time>
      </trkpt>
      <trkpt lat="43.20148" lon="5.57942">
        <ele>215</ele>
        <time>2013-02-15T10:05:57Z</time>
      </trkpt>
      <trkpt lat="43.20148" lon="5.57952">
        <ele>215</ele>
        <time>2013-02-15T10:06:02Z</time>
      </trkpt>
      <trkpt lat="43.2015" lon="5.57961">
        <ele>216</ele>
        <time>2013-02-15T10:06:07Z</time>
      </trkpt>
      <trkpt lat="43.20151" lon="5.57966">
        <ele>216</ele>
        <time>2013-02-15T10:06:12Z</time>
      </trkpt>
      <trkpt lat="43.20155" lon="5.57972">
        <ele>216</ele>
        <time>2013-02-15T10:06:17Z</time>
      </trkpt>
      <trkpt lat="43.20159" lon="5.57975">
        <ele>216</ele>
        <time>2013-02-15T10:06:22Z</time>
      </trkpt>
      <trkpt lat="43.20166" lon="5.57978">
        <ele>216</ele>
        <time>2013-02-15T10:06:27Z</time>
      </trkpt>
      <trkpt lat="43.20171" lon="5.57982">
        <ele>216</ele>
        <time>2013-02-15T10:06:32Z</time>
      </trkpt>
      <trkpt lat="43.20176" lon="5.57989">
        <ele>217</ele>
        <time>2013-02-15T10:06:37Z</time>
      </trkpt>
      <trkpt lat="43.20177" lon="5.57996">
        <ele>217</ele>
        <time>2013-02-15T10:06:42Z</time>
      </trkpt>
      <trkpt lat="43.20179" lon="5.58004">
        <ele>217</ele>
        <time>2013-02-15T10:06:47Z</time>
      </trkpt>
      <trkpt lat="43.2018" lon="5.58009">
        <ele>217</ele>
        <time>2013-02-15T10:06:52Z</time>
      </trkpt>
      <trkpt lat="43.20181" lon="5.58019">
        <ele>218</ele>
        <time>2013-02-15T10:06:57Z</time>
      </trkpt>
      <trkpt lat="43.20182" lon="5.5803">
        <ele>218</ele>
        <time>2013-02-15T10:07:02Z</time>
      </trkpt>
      <trkpt lat="43.20181" lon="5.5804">
        <ele>218</ele>
        <time>2013-02-15T10:07:07Z</time>
      </trkpt>
      <trkpt lat="43.20182" lon="5.58049">
        <ele>219</ele>
        <time>2013-02-15T10:07:12Z</time>
      </trkpt>
      <trkpt lat="43.20182" lon="5.58057">
        <ele>219</ele>
        <time>2013-02-15T10:07:17Z</time>
      </trkpt>
      <trkpt lat="43.20183" lon="5.58065">
        <ele>219</ele>
        <time>2013-02-15T10:07:22Z</time>
      </trkpt>
      <trkpt lat="43.20185" lon="5.58073">
        <ele>219</ele>
        <time>2013-02-15T10:07:27Z</time>
      </trkpt>
      <trkpt lat="43.20186" lon="5.58083">
        <ele>219</ele>
        <time>2013-02-15T10:07:32Z</time>
      </trkpt>
      <trkpt lat="43.20186" lon="5.58099">
        <ele>219</ele>
        <time>2013-02-15T10:07:37Z</time>
      </trkpt>
      <trkpt lat="43.20185" lon="5.58106">
        <ele>219</ele>
        <time>2013-02-15T10:07:42Z</time>
      </trkpt>
      <trkpt lat="43.20185" lon="5.58111">
        <ele>220</ele>
        <time>2013-02-15T10:07:47Z</time>
      </trkpt>
      <trkpt lat="43.20186" lon="5.58119">
        <ele>220</ele>
        <time>2013-02-15T10:07:52Z</time>
      </trkpt>
      <trkpt lat="43.20188" lon="5.58126">
        <ele>221</ele>
        <time>2013-02-15T10:07:57Z</time>
      </trkpt>
      <trkpt lat="43.20191" lon="5.58132">
        <ele>221</ele>
        <time>2013-02-15T10:08:02Z</time>
      </trkpt>
      <trkpt lat="43.20194" lon="5.58137">
        <ele>221</ele>
        <time>2013-02-15T10:08:07Z</time>
      </trkpt>
      <trkpt lat="43.20198" lon="5.58142">
        <ele>221</ele>
        <time>2013-02-15T10:08:12Z</time>
      </trkpt>
      <trkpt lat="43.20202" lon="5.58148">
        <ele>221</ele>
        <time>2013-02-15T10:08:17Z</time>
      </trkpt>
      <trkpt lat="43.20207" lon="5.58153">
        <ele>221</ele>
        <time>2013-02-15T10:08:22Z</time>
      </trkpt>
      <trkpt lat="43.20211" lon="5.5816">
        <ele>221</ele>
        <time>2013-02-15T10:08:27Z</time>
      </trkpt>
      <trkpt lat="43.20214" lon="5.58166">
        <ele>221</ele>
        <time>2013-02-15T10:08:32Z</time>
      </trkpt>
      <trkpt lat="43.20219" lon="5.58172">
        <ele>221</ele>
        <time>2013-02-15T10:08:37Z</time>
      </trkpt>
      <trkpt lat="43.20223" lon="5.58176">
        <ele>221</ele>
        <time>2013-02-15T10:08:42Z</time>
      </trkpt>
      <trkpt lat="43.20228" lon="5.58179">
        <ele>220</ele>
        <time>2013-02-15T10:08:47Z</time>
      </trkpt>
      <trkpt lat="43.20235" lon="5.58177">
        <ele>219</ele>
        <time>2013-02-15T10:08:52Z</time>
      </trkpt>
      <trkpt lat="43.2024" lon="5.58173">
        <ele>219</ele>
        <time>2013-02-15T10:08:57Z</time>
      </trkpt>
      <trkpt lat="43.20247" lon="5.58169">
        <ele>219</ele>
        <time>2013-02-15T10:09:02Z</time>
      </trkpt>
      <trkpt lat="43.20251" lon="5.58173">
        <ele>218</ele>
        <time>2013-02-15T10:09:07Z</time>
      </trkpt>
      <trkpt lat="43.2025" lon="5.58179">
        <ele>218</ele>
        <time>2013-02-15T10:09:12Z</time>
      </trkpt>
      <trkpt lat="43.20246" lon="5.58187">
        <ele>218</ele>
        <time>2013-02-15T10:09:17Z</time>
      </trkpt>
      <trkpt lat="43.20241" lon="5.58192">
        <ele>218</ele>
        <time>2013-02-15T10:09:22Z</time>
      </trkpt>
      <trkpt lat="43.20237" lon="5.58197">
        <ele>217</ele>
        <time>2013-02-15T10:09:27Z</time>
      </trkpt>
      <trkpt lat="43.20233" lon="5.58202">
        <ele>217</ele>
        <time>2013-02-15T10:09:32Z</time>
      </trkpt>
      <trkpt lat="43.20228" lon="5.58207">
        <ele>216</ele>
        <time>2013-02-15T10:09:37Z</time>
      </trkpt>
      <trkpt lat="43.20226" lon="5.58211">
        <ele>216</ele>
        <time>2013-02-15T10:09:42Z</time>
      </trkpt>
      <trkpt lat="43.20222" lon="5.58217">
        <ele>215</ele>
        <time>2013-02-15T10:09:47Z</time>
      </trkpt>
      <trkpt lat="43.20218" lon="5.58222">
        <ele>214</ele>
        <time>2013-02-15T10:09:52Z</time>
      </trkpt>
      <trkpt lat="43.20213" lon="5.5823">
        <ele>213</ele>
        <time>2013-02-15T10:09:57Z</time>
      </trkpt>
      <trkpt lat="43.20208" lon="5.58239">
        <ele>212</ele>
        <time>2013-02-15T10:10:02Z</time>
      </trkpt>
      <trkpt lat="43.20205" lon="5.58246">
        <ele>212</ele>
        <time>2013-02-15T10:10:07Z</time>
      </trkpt>
      <trkpt lat="43.20202" lon="5.58252">
        <ele>211</ele>
        <time>2013-02-15T10:10:12Z</time>
      </trkpt>
      <trkpt lat="43.20198" lon="5.58259">
        <ele>211</ele>
        <time>2013-02-15T10:10:17Z</time>
      </trkpt>
      <trkpt lat="43.20194" lon="5.58267">
        <ele>210</ele>
        <time>2013-02-15T10:10:22Z</time>
      </trkpt>
      <trkpt lat="43.2019" lon="5.58274">
        <ele>210</ele>
        <time>2013-02-15T10:10:27Z</time>
      </trkpt>
      <trkpt lat="43.20186" lon="5.5828">
        <ele>210</ele>
        <time>2013-02-15T10:10:32Z</time>
      </trkpt>
      <trkpt lat="43.20182" lon="5.58285">
        <ele>210</ele>
        <time>2013-02-15T10:10:37Z</time>
      </trkpt>
      <trkpt lat="43.20176" lon="5.5829">
        <ele>210</ele>
        <time>2013-02-15T10:10:42Z</time>
      </trkpt>
      <trkpt lat="43.20171" lon="5.58293">
        <ele>210</ele>
        <time>2013-02-15T10:10:47Z</time>
      </trkpt>
      <trkpt lat="43.20165" lon="5.58295">
        <ele>209</ele>
        <time>2013-02-15T10:10:52Z</time>
      </trkpt>
      <trkpt lat="43.20159" lon="5.58295">
        <ele>209</ele>
        <time>2013-02-15T10:10:57Z</time>
      </trkpt>
      <trkpt lat="43.20153" lon="5.58295">
        <ele>208</ele>
        <time>2013-02-15T10:11:02Z</time>
      </trkpt>
      <trkpt lat="43.20147" lon="5.58295">
        <ele>207</ele>
        <time>2013-02-15T10:11:07Z</time>
      </trkpt>
      <trkpt lat="43.20142" lon="5.58297">
        <ele>207</ele>
        <time>2013-02-15T10:11:12Z</time>
      </trkpt>
      <trkpt lat="43.20137" lon="5.583">
        <ele>206</ele>
        <time>2013-02-15T10:11:17Z</time>
      </trkpt>
      <trkpt lat="43.20131" lon="5.58303">
        <ele>205</ele>
        <time>2013-02-15T10:11:22Z</time>
      </trkpt>
      <trkpt lat="43.20127" lon="5.58307">
        <ele>205</ele>
        <time>2013-02-15T10:11:27Z</time>
      </trkpt>
      <trkpt lat="43.20121" lon="5.58314">
        <ele>204</ele>
        <time>2013-02-15T10:11:32Z</time>
      </trkpt>
      <trkpt lat="43.20116" lon="5.5832">
        <ele>203</ele>
        <time>2013-02-15T10:11:37Z</time>
      </trkpt>
      <trkpt lat="43.20111" lon="5.58325">
        <ele>203</ele>
        <time>2013-02-15T10:11:42Z</time>
      </trkpt>
      <trkpt lat="43.20105" lon="5.58332">
        <ele>202</ele>
        <time>2013-02-15T10:11:47Z</time>
      </trkpt>
      <trkpt lat="43.201" lon="5.58338">
        <ele>202</ele>
        <time>2013-02-15T10:11:52Z</time>
      </trkpt>
      <trkpt lat="43.20098" lon="5.58343">
        <ele>201</ele>
        <time>2013-02-15T10:11:57Z</time>
      </trkpt>
      <trkpt lat="43.20094" lon="5.58349">
        <ele>201</ele>
        <time>2013-02-15T10:12:02Z</time>
      </trkpt>
      <trkpt lat="43.20091" lon="5.58356">
        <ele>200</ele>
        <time>2013-02-15T10:12:07Z</time>
      </trkpt>
      <trkpt lat="43.20088" lon="5.58361">
        <ele>200</ele>
        <time>2013-02-15T10:12:12Z</time>
      </trkpt>
      <trkpt lat="43.20085" lon="5.58366">
        <ele>199</ele>
        <time>2013-02-15T10:12:17Z</time>
      </trkpt>
      <trkpt lat="43.20082" lon="5.58372">
        <ele>199</ele>
        <time>2013-02-15T10:12:22Z</time>
      </trkpt>
      <trkpt lat="43.20079" lon="5.58378">
        <ele>198</ele>
        <time>2013-02-15T10:12:27Z</time>
      </trkpt>
      <trkpt lat="43.20075" lon="5.58383">
        <ele>197</ele>
        <time>2013-02-15T10:12:32Z</time>
      </trkpt>
      <trkpt lat="43.20073" lon="5.58387">
        <ele>196</ele>
        <time>2013-02-15T10:12:37Z</time>
      </trkpt>
      <trkpt lat="43.20071" lon="5.58391">
        <ele>196</ele>
        <time>2013-02-15T10:12:42Z</time>
      </trkpt>
      <trkpt lat="43.2007" lon="5.58397">
        <ele>195</ele>
        <time>2013-02-15T10:12:47Z</time>
      </trkpt>
      <trkpt lat="43.20068" lon="5.58402">
        <ele>195</ele>
        <time>2013-02-15T10:12:52Z</time>
      </trkpt>
      <trkpt lat="43.20068" lon="5.5841">
        <ele>194</ele>
        <time>2013-02-15T10:12:57Z</time>
      </trkpt>
      <trkpt lat="43.20067" lon="5.58415">
        <ele>193</ele>
        <time>2013-02-15T10:13:02Z</time>
      </trkpt>
      <trkpt lat="43.20069" lon="5.58418">
        <ele>193</ele>
        <time>2013-02-15T10:13:07Z</time>
      </trkpt>
      <trkpt lat="43.2007" lon="5.58421">
        <ele>192</ele>
        <time>2013-02-15T10:13:12Z</time>
      </trkpt>
      <trkpt lat="43.20071" lon="5.58423">
        <ele>192</ele>
        <time>2013-02-15T10:13:17Z</time>
      </trkpt>
      <trkpt lat="43.2007" lon="5.58422">
        <ele>191</ele>
        <time>2013-02-15T10:13:22Z</time>
      </trkpt>
      <trkpt lat="43.2007" lon="5.58422">
        <ele>191</ele>
        <time>2013-02-15T10:13:27Z</time>
      </trkpt>
      <trkpt lat="43.2007" lon="5.58423">
        <ele>191</ele>
        <time>2013-02-15T10:13:32Z</time>
      </trkpt>
      <trkpt lat="43.20071" lon="5.58423">
        <ele>191</ele>
        <time>2013-02-15T10:13:37Z</time>
      </trkpt>
      <trkpt lat="43.20073" lon="5.58425">
        <ele>191</ele>
        <time>2013-02-15T10:13:42Z</time>
      </trkpt>
      <trkpt lat="43.20074" lon="5.58426">
        <ele>191</ele>
        <time>2013-02-15T10:13:47Z</time>
      </trkpt>
      <trkpt lat="43.20074" lon="5.58426">
        <ele>190</ele>
        <time>2013-02-15T10:13:52Z</time>
      </trkpt>
      <trkpt lat="43.20072" lon="5.58426">
        <ele>190</ele>
        <time>2013-02-15T10:13:57Z</time>
      </trkpt>
      <trkpt lat="43.20073" lon="5.58426">
        <ele>190</ele>
        <time>2013-02-15T10:14:02Z</time>
      </trkpt>
      <trkpt lat="43.20076" lon="5.58426">
        <ele>190</ele>
        <time>2013-02-15T10:14:07Z</time>
      </trkpt>
      <trkpt lat="43.20076" lon="5.58426">
        <ele>189</ele>
        <time>2013-02-15T10:14:12Z</time>
      </trkpt>
      <trkpt lat="43.20076" lon="5.58425">
        <ele>189</ele>
        <time>2013-02-15T10:14:17Z</time>
      </trkpt>
      <trkpt lat="43.20077" lon="5.58426">
        <ele>189</ele>
        <time>2013-02-15T10:14:22Z</time>
      </trkpt>
      <trkpt lat="43.20078" lon="5.58424">
        <ele>188</ele>
        <time>2013-02-15T10:14:27Z</time>
      </trkpt>
      <trkpt lat="43.20081" lon="5.58424">
        <ele>188</ele>
        <time>2013-02-15T10:14:32Z</time>
      </trkpt>
      <trkpt lat="43.2008" lon="5.58424">
        <ele>188</ele>
        <time>2013-02-15T10:14:37Z</time>
      </trkpt>
      <trkpt lat="43.2008" lon="5.58426">
        <ele>188</ele>
        <time>2013-02-15T10:14:42Z</time>
      </trkpt>
      <trkpt lat="43.2008" lon="5.58427">
        <ele>188</ele>
        <time>2013-02-15T10:14:47Z</time>
      </trkpt>
      <trkpt lat="43.2008" lon="5.58428">
        <ele>188</ele>
        <time>2013-02-15T10:14:52Z</time>
      </trkpt>
      <trkpt lat="43.20082" lon="5.58425">
        <ele>188</ele>
        <time>2013-02-15T10:14:57Z</time>
      </trkpt>
      <trkpt lat="43.20087" lon="5.58421">
        <ele>187</ele>
        <time>2013-02-15T10:15:02Z</time>
      </trkpt>
      <trkpt lat="43.20089" lon="5.58416">
        <ele>187</ele>
        <time>2013-02-15T10:15:07Z</time>
      </trkpt>
      <trkpt lat="43.20092" lon="5.58412">
        <ele>186</ele>
        <time>2013-02-15T10:15:12Z</time>
      </trkpt>
      <trkpt lat="43.20094" lon="5.58407">
        <ele>185</ele>
        <time>2013-02-15T10:15:17Z</time>
      </trkpt>
      <trkpt lat="43.20098" lon="5.58403">
        <ele>185</ele>
        <time>2013-02-15T10:15:22Z</time>
      </trkpt>
      <trkpt lat="43.20103" lon="5.58398">
        <ele>184</ele>
        <time>2013-02-15T10:15:27Z</time>
      </trkpt>
      <trkpt lat="43.20109" lon="5.58393">
        <ele>184</ele>
        <time>2013-02-15T10:15:32Z</time>
      </trkpt>
      <trkpt lat="43.20116" lon="5.58387">
        <ele>184</ele>
        <time>2013-02-15T10:15:37Z</time>
      </trkpt>
      <trkpt lat="43.2012" lon="5.58384">
        <ele>183</ele>
        <time>2013-02-15T10:15:42Z</time>
      </trkpt>
      <trkpt lat="43.20126" lon="5.58379">
        <ele>183</ele>
        <time>2013-02-15T10:15:47Z</time>
      </trkpt>
      <trkpt lat="43.20131" lon="5.58377">
        <ele>182</ele>
        <time>2013-02-15T10:15:52Z</time>
      </trkpt>
      <trkpt lat="43.20137" lon="5.58377">
        <ele>182</ele>
        <time>2013-02-15T10:15:57Z</time>
      </trkpt>
      <trkpt lat="43.2014" lon="5.58378">
        <ele>182</ele>
        <time>2013-02-15T10:16:02Z</time>
      </trkpt>
      <trkpt lat="43.20144" lon="5.58382">
        <ele>182</ele>
        <time>2013-02-15T10:16:07Z</time>
      </trkpt>
      <trkpt lat="43.20148" lon="5.58388">
        <ele>182</ele>
        <time>2013-02-15T10:16:12Z</time>
      </trkpt>
      <trkpt lat="43.2015" lon="5.58393">
        <ele>182</ele>
        <time>2013-02-15T10:16:17Z</time>
      </trkpt>
      <trkpt lat="43.20152" lon="5.58398">
        <ele>182</ele>
        <time>2013-02-15T10:16:22Z</time>
      </trkpt>
      <trkpt lat="43.20156" lon="5.58405">
        <ele>182</ele>
        <time>2013-02-15T10:16:27Z</time>
      </trkpt>
      <trkpt lat="43.20158" lon="5.58411">
        <ele>182</ele>
        <time>2013-02-15T10:16:32Z</time>
      </trkpt>
      <trkpt lat="43.2016" lon="5.58417">
        <ele>182</ele>
        <time>2013-02-15T10:16:37Z</time>
      </trkpt>
      <trkpt lat="43.20163" lon="5.58427">
        <ele>182</ele>
        <time>2013-02-15T10:16:42Z</time>
      </trkpt>
      <trkpt lat="43.20165" lon="5.58435">
        <ele>181</ele>
        <time>2013-02-15T10:16:47Z</time>
      </trkpt>
      <trkpt lat="43.20168" lon="5.5844">
        <ele>181</ele>
        <time>2013-02-15T10:16:52Z</time>
      </trkpt>
      <trkpt lat="43.20173" lon="5.58441">
        <ele>181</ele>
        <time>2013-02-15T10:16:57Z</time>
      </trkpt>
      <trkpt lat="43.20177" lon="5.58441">
        <ele>180</ele>
        <time>2013-02-15T10:17:02Z</time>
      </trkpt>
      <trkpt lat="43.20181" lon="5.5844">
        <ele>179</ele>
        <time>2013-02-15T10:17:07Z</time>
      </trkpt>
      <trkpt lat="43.20185" lon="5.58439">
        <ele>178</ele>
        <time>2013-02-15T10:17:12Z</time>
      </trkpt>
      <trkpt lat="43.20191" lon="5.58437">
        <ele>177</ele>
        <time>2013-02-15T10:17:17Z</time>
      </trkpt>
      <trkpt lat="43.20201" lon="5.58435">
        <ele>176</ele>
        <time>2013-02-15T10:17:22Z</time>
      </trkpt>
      <trkpt lat="43.20207" lon="5.58433">
        <ele>174</ele>
        <time>2013-02-15T10:17:27Z</time>
      </trkpt>
      <trkpt lat="43.20212" lon="5.58429">
        <ele>173</ele>
        <time>2013-02-15T10:17:32Z</time>
      </trkpt>
      <trkpt lat="43.2022" lon="5.58428">
        <ele>171</ele>
        <time>2013-02-15T10:17:37Z</time>
      </trkpt>
      <trkpt lat="43.20229" lon="5.58431">
        <ele>169</ele>
        <time>2013-02-15T10:17:42Z</time>
      </trkpt>
      <trkpt lat="43.20237" lon="5.5843">
        <ele>169</ele>
        <time>2013-02-15T10:17:47Z</time>
      </trkpt>
      <trkpt lat="43.20245" lon="5.58429">
        <ele>168</ele>
        <time>2013-02-15T10:17:52Z</time>
      </trkpt>
      <trkpt lat="43.2025" lon="5.58428">
        <ele>168</ele>
        <time>2013-02-15T10:17:57Z</time>
      </trkpt>
      <trkpt lat="43.20254" lon="5.58424">
        <ele>168</ele>
        <time>2013-02-15T10:18:02Z</time>
      </trkpt>
      <trkpt lat="43.20257" lon="5.58415">
        <ele>168</ele>
        <time>2013-02-15T10:18:07Z</time>
      </trkpt>
      <trkpt lat="43.20258" lon="5.58409">
        <ele>168</ele>
        <time>2013-02-15T10:18:12Z</time>
      </trkpt>
      <trkpt lat="43.20258" lon="5.584">
        <ele>168</ele>
        <time>2013-02-15T10:18:17Z</time>
      </trkpt>
      <trkpt lat="43.2026" lon="5.58393">
        <ele>168</ele>
        <time>2013-02-15T10:18:22Z</time>
      </trkpt>
      <trkpt lat="43.20262" lon="5.58391">
        <ele>168</ele>
        <time>2013-02-15T10:18:27Z</time>
      </trkpt>
      <trkpt lat="43.20264" lon="5.58392">
        <ele>168</ele>
        <time>2013-02-15T10:18:32Z</time>
      </trkpt>
      <trkpt lat="43.20269" lon="5.58399">
        <ele>168</ele>
        <time>2013-02-15T10:18:37Z</time>
      </trkpt>
      <trkpt lat="43.20272" lon="5.58409">
        <ele>168</ele>
        <time>2013-02-15T10:18:42Z</time>
      </trkpt>
      <trkpt lat="43.20274" lon="5.58417">
        <ele>169</ele>
        <time>2013-02-15T10:18:47Z</time>
      </trkpt>
      <trkpt lat="43.20278" lon="5.58424">
        <ele>169</ele>
        <time>2013-02-15T10:18:52Z</time>
      </trkpt>
      <trkpt lat="43.20286" lon="5.58425">
        <ele>168</ele>
        <time>2013-02-15T10:18:57Z</time>
      </trkpt>
      <trkpt lat="43.20294" lon="5.58426">
        <ele>168</ele>
        <time>2013-02-15T10:19:02Z</time>
      </trkpt>
      <trkpt lat="43.20301" lon="5.58424">
        <ele>167</ele>
        <time>2013-02-15T10:19:07Z</time>
      </trkpt>
      <trkpt lat="43.20309" lon="5.58419">
        <ele>167</ele>
        <time>2013-02-15T10:19:12Z</time>
      </trkpt>
      <trkpt lat="43.20313" lon="5.58415">
        <ele>167</ele>
        <time>2013-02-15T10:19:17Z</time>
      </trkpt>
      <trkpt lat="43.20318" lon="5.58409">
        <ele>167</ele>
        <time>2013-02-15T10:19:22Z</time>
      </trkpt>
      <trkpt lat="43.20321" lon="5.58402">
        <ele>167</ele>
        <time>2013-02-15T10:19:27Z</time>
      </trkpt>
      <trkpt lat="43.20323" lon="5.58397">
        <ele>167</ele>
        <time>2013-02-15T10:19:32Z</time>
      </trkpt>
      <trkpt lat="43.20323" lon="5.58397">
        <ele>167</ele>
        <time>2013-02-15T10:19:37Z</time>
      </trkpt>
      <trkpt lat="43.20325" lon="5.58389">
        <ele>167</ele>
        <time>2013-02-15T10:19:42Z</time>
      </trkpt>
      <trkpt lat="43.20326" lon="5.58381">
        <ele>167</ele>
        <time>2013-02-15T10:19:47Z</time>
      </trkpt>
      <trkpt lat="43.20325" lon="5.58375">
        <ele>167</ele>
        <time>2013-02-15T10:19:52Z</time>
      </trkpt>
      <trkpt lat="43.20323" lon="5.58371">
        <ele>168</ele>
        <time>2013-02-15T10:19:57Z</time>
      </trkpt>
      <trkpt lat="43.20323" lon="5.58371">
        <ele>168</ele>
        <time>2013-02-15T10:20:02Z</time>
      </trkpt>
      <trkpt lat="43.20323" lon="5.58371">
        <ele>169</ele>
        <time>2013-02-15T10:20:07Z</time>
      </trkpt>
      <trkpt lat="43.20323" lon="5.58371">
        <ele>169</ele>
        <time>2013-02-15T10:20:12Z</time>
      </trkpt>
      <trkpt lat="43.20323" lon="5.58371">
        <ele>169</ele>
        <time>2013-02-15T10:20:17Z</time>
      </trkpt>
      <trkpt lat="43.20323" lon="5.58371">
        <ele>169</ele>
        <time>2013-02-15T10:20:22Z</time>
      </trkpt>
      <trkpt lat="43.20323" lon="5.58371">
        <ele>169</ele>
        <time>2013-02-15T10:20:27Z</time>
      </trkpt>
      <trkpt lat="43.20322" lon="5.58371">
        <ele>169</ele>
        <time>2013-02-15T10:20:32Z</time>
      </trkpt>
      <trkpt lat="43.20322" lon="5.58371">
        <ele>169</ele>
        <time>2013-02-15T10:20:37Z</time>
      </trkpt>
      <trkpt lat="43.20322" lon="5.58371">
        <ele>169</ele>
        <time>2013-02-15T10:20:42Z</time>
      </trkpt>
      <trkpt lat="43.20322" lon="5.58371">
        <ele>169</ele>
        <time>2013-02-15T10:20:47Z</time>
      </trkpt>
      <trkpt lat="43.20322" lon="5.58371">
        <ele>169</ele>
        <time>2013-02-15T10:20:52Z</time>
      </trkpt>
      <trkpt lat="43.20322" lon="5.58371">
        <ele>169</ele>
        <time>2013-02-15T10:20:57Z</time>
      </trkpt>
      <trkpt lat="43.20322" lon="5.58371">
        <ele>169</ele>
        <time>2013-02-15T10:21:02Z</time>
      </trkpt>
      <trkpt lat="43.20322" lon="5.58371">
        <ele>169</ele>
        <time>2013-02-15T10:21:07Z</time>
      </trkpt>
      <trkpt lat="43.20322" lon="5.58371">
        <ele>169</ele>
        <time>2013-02-15T10:21:12Z</time>
      </trkpt>
      <trkpt lat="43.20322" lon="5.58371">
        <ele>169</ele>
        <time>2013-02-15T10:21:17Z</time>
      </trkpt>
      <trkpt lat="43.20322" lon="5.58376">
        <ele>169</ele>
        <time>2013-02-15T10:21:22Z</time>
      </trkpt>
      <trkpt lat="43.20322" lon="5.58376">
        <ele>169</ele>
        <time>2013-02-15T10:21:27Z</time>
      </trkpt>
      <trkpt lat="43.20322" lon="5.58376">
        <ele>169</ele>
        <time>2013-02-15T10:21:32Z</time>
      </trkpt>
      <trkpt lat="43.20322" lon="5.58376">
        <ele>169</ele>
        <time>2013-02-15T10:21:37Z</time>
      </trkpt>
      <trkpt lat="43.20322" lon="5.58376">
        <ele>169</ele>
        <time>2013-02-15T10:21:42Z</time>
      </trkpt>
      <trkpt lat="43.20322" lon="5.58376">
        <ele>169</ele>
        <time>2013-02-15T10:21:47Z</time>
      </trkpt>
      <trkpt lat="43.20322" lon="5.58376">
        <ele>169</ele>
        <time>2013-02-15T10:21:52Z</time>
      </trkpt>
      <trkpt lat="43.20322" lon="5.58376">
        <ele>169</ele>
        <time>2013-02-15T10:21:57Z</time>
      </trkpt>
      <trkpt lat="43.20322" lon="5.58376">
        <ele>169</ele>
        <time>2013-02-15T10:22:02Z</time>
      </trkpt>
      <trkpt lat="43.20322" lon="5.58376">
        <ele>169</ele>
        <time>2013-02-15T10:22:07Z</time>
      </trkpt>
      <trkpt lat="43.20322" lon="5.58376">
        <ele>169</ele>
        <time>2013-02-15T10:22:12Z</time>
      </trkpt>
      <trkpt lat="43.20322" lon="5.58376">
        <ele>169</ele>
        <time>2013-02-15T10:22:17Z</time>
      </trkpt>
      <trkpt lat="43.20322" lon="5.58375">
        <ele>169</ele>
        <time>2013-02-15T10:22:22Z</time>
      </trkpt>
      <trkpt lat="43.20321" lon="5.58375">
        <ele>169</ele>
        <time>2013-02-15T10:22:27Z</time>
      </trkpt>
      <trkpt lat="43.20321" lon="5.58375">
        <ele>169</ele>
        <time>2013-02-15T10:22:32Z</time>
      </trkpt>
      <trkpt lat="43.20321" lon="5.58375">
        <ele>169</ele>
        <time>2013-02-15T10:22:37Z</time>
      </trkpt>
      <trkpt lat="43.20321" lon="5.58375">
        <ele>169</ele>
        <time>2013-02-15T10:22:42Z</time>
      </trkpt>
      <trkpt lat="43.20321" lon="5.58375">
        <ele>169</ele>
        <time>2013-02-15T10:22:47Z</time>
      </trkpt>
      <trkpt lat="43.20321" lon="5.58375">
        <ele>169</ele>
        <time>2013-02-15T10:22:52Z</time>
      </trkpt>
      <trkpt lat="43.20321" lon="5.58375">
        <ele>169</ele>
        <time>2013-02-15T10:22:57Z</time>
      </trkpt>
      <trkpt lat="43.20321" lon="5.58374">
        <ele>170</ele>
        <time>2013-02-15T10:23:02Z</time>
      </trkpt>
      <trkpt lat="43.20324" lon="5.58371">
        <ele>170</ele>
        <time>2013-02-15T10:23:07Z</time>
      </trkpt>
      <trkpt lat="43.20329" lon="5.58363">
        <ele>170</ele>
        <time>2013-02-15T10:23:12Z</time>
      </trkpt>
      <trkpt lat="43.20333" lon="5.58357">
        <ele>169</ele>
        <time>2013-02-15T10:23:17Z</time>
      </trkpt>
      <trkpt lat="43.20336" lon="5.58353">
        <ele>170</ele>
        <time>2013-02-15T10:23:22Z</time>
      </trkpt>
      <trkpt lat="43.20338" lon="5.5835">
        <ele>170</ele>
        <time>2013-02-15T10:23:27Z</time>
      </trkpt>
      <trkpt lat="43.2034" lon="5.58346">
        <ele>170</ele>
        <time>2013-02-15T10:23:32Z</time>
      </trkpt>
      <trkpt lat="43.20342" lon="5.5834">
        <ele>171</ele>
        <time>2013-02-15T10:23:37Z</time>
      </trkpt>
      <trkpt lat="43.20344" lon="5.58335">
        <ele>172</ele>
        <time>2013-02-15T10:23:42Z</time>
      </trkpt>
      <trkpt lat="43.20346" lon="5.58331">
        <ele>173</ele>
        <time>2013-02-15T10:23:47Z</time>
      </trkpt>
      <trkpt lat="43.20347" lon="5.58324">
        <ele>173</ele>
        <time>2013-02-15T10:23:52Z</time>
      </trkpt>
      <trkpt lat="43.20347" lon="5.58321">
        <ele>174</ele>
        <time>2013-02-15T10:23:57Z</time>
      </trkpt>
      <trkpt lat="43.20348" lon="5.5832">
        <ele>174</ele>
        <time>2013-02-15T10:24:02Z</time>
      </trkpt>
      <trkpt lat="43.20349" lon="5.58318">
        <ele>174</ele>
        <time>2013-02-15T10:24:07Z</time>
      </trkpt>
      <trkpt lat="43.20349" lon="5.58311">
        <ele>174</ele>
        <time>2013-02-15T10:24:12Z</time>
      </trkpt>
      <trkpt lat="43.20353" lon="5.58302">
        <ele>174</ele>
        <time>2013-02-15T10:24:17Z</time>
      </trkpt>
      <trkpt lat="43.20355" lon="5.58299">
        <ele>174</ele>
        <time>2013-02-15T10:24:22Z</time>
      </trkpt>
      <trkpt lat="43.20352" lon="5.58304">
        <ele>175</ele>
        <time>2013-02-15T10:24:27Z</time>
      </trkpt>
      <trkpt lat="43.2035" lon="5.58308">
        <ele>176</ele>
        <time>2013-02-15T10:24:32Z</time>
      </trkpt>
      <trkpt lat="43.20349" lon="5.58313">
        <ele>176</ele>
        <time>2013-02-15T10:24:37Z</time>
      </trkpt>
      <trkpt lat="43.2035" lon="5.58321">
        <ele>177</ele>
        <time>2013-02-15T10:24:42Z</time>
      </trkpt>
      <trkpt lat="43.2035" lon="5.58329">
        <ele>178</ele>
        <time>2013-02-15T10:24:47Z</time>
      </trkpt>
      <trkpt lat="43.2035" lon="5.58336">
        <ele>177</ele>
        <time>2013-02-15T10:24:52Z</time>
      </trkpt>
      <trkpt lat="43.2035" lon="5.58344">
        <ele>177</ele>
        <time>2013-02-15T10:24:57Z</time>
      </trkpt>
      <trkpt lat="43.20349" lon="5.58352">
        <ele>177</ele>
        <time>2013-02-15T10:25:02Z</time>
      </trkpt>
      <trkpt lat="43.20347" lon="5.58364">
        <ele>177</ele>
        <time>2013-02-15T10:25:07Z</time>
      </trkpt>
      <trkpt lat="43.20348" lon="5.58374">
        <ele>177</ele>
        <time>2013-02-15T10:25:12Z</time>
      </trkpt>
      <trkpt lat="43.2035" lon="5.58382">
        <ele>177</ele>
        <time>2013-02-15T10:25:17Z</time>
      </trkpt>
      <trkpt lat="43.20353" lon="5.58389">
        <ele>177</ele>
        <time>2013-02-15T10:25:22Z</time>
      </trkpt>
      <trkpt lat="43.20359" lon="5.58396">
        <ele>178</ele>
        <time>2013-02-15T10:25:27Z</time>
      </trkpt>
      <trkpt lat="43.20365" lon="5.58399">
        <ele>178</ele>
        <time>2013-02-15T10:25:32Z</time>
      </trkpt>
      <trkpt lat="43.20371" lon="5.584">
        <ele>178</ele>
        <time>2013-02-15T10:25:37Z</time>
      </trkpt>
      <trkpt lat="43.20373" lon="5.58396">
        <ele>178</ele>
        <time>2013-02-15T10:25:42Z</time>
      </trkpt>
      <trkpt lat="43.20375" lon="5.58394">
        <ele>178</ele>
        <time>2013-02-15T10:25:47Z</time>
      </trkpt>
      <trkpt lat="43.20378" lon="5.58392">
        <ele>178</ele>
        <time>2013-02-15T10:25:52Z</time>
      </trkpt>
      <trkpt lat="43.2038" lon="5.58387">
        <ele>178</ele>
        <time>2013-02-15T10:25:57Z</time>
      </trkpt>
      <trkpt lat="43.20382" lon="5.58384">
        <ele>178</ele>
        <time>2013-02-15T10:26:02Z</time>
      </trkpt>
      <trkpt lat="43.20384" lon="5.58382">
        <ele>178</ele>
        <time>2013-02-15T10:26:07Z</time>
      </trkpt>
      <trkpt lat="43.2039" lon="5.58375">
        <ele>178</ele>
        <time>2013-02-15T10:26:12Z</time>
      </trkpt>
      <trkpt lat="43.20391" lon="5.58369">
        <ele>178</ele>
        <time>2013-02-15T10:26:17Z</time>
      </trkpt>
      <trkpt lat="43.20396" lon="5.58364">
        <ele>178</ele>
        <time>2013-02-15T10:26:22Z</time>
      </trkpt>
      <trkpt lat="43.20403" lon="5.58359">
        <ele>178</ele>
        <time>2013-02-15T10:26:27Z</time>
      </trkpt>
      <trkpt lat="43.20408" lon="5.58353">
        <ele>178</ele>
        <time>2013-02-15T10:26:32Z</time>
      </trkpt>
      <trkpt lat="43.20412" lon="5.58349">
        <ele>179</ele>
        <time>2013-02-15T10:26:37Z</time>
      </trkpt>
      <trkpt lat="43.20415" lon="5.58345">
        <ele>179</ele>
        <time>2013-02-15T10:26:42Z</time>
      </trkpt>
      <trkpt lat="43.20418" lon="5.58342">
        <ele>179</ele>
        <time>2013-02-15T10:26:47Z</time>
      </trkpt>
      <trkpt lat="43.2042" lon="5.58342">
        <ele>179</ele>
        <time>2013-02-15T10:26:52Z</time>
      </trkpt>
      <trkpt lat="43.20421" lon="5.58343">
        <ele>179</ele>
        <time>2013-02-15T10:26:57Z</time>
      </trkpt>
      <trkpt lat="43.20421" lon="5.58341">
        <ele>180</ele>
        <time>2013-02-15T10:27:02Z</time>
      </trkpt>
      <trkpt lat="43.20421" lon="5.58341">
        <ele>180</ele>
        <time>2013-02-15T10:27:07Z</time>
      </trkpt>
      <trkpt lat="43.20423" lon="5.58338">
        <ele>180</ele>
        <time>2013-02-15T10:27:12Z</time>
      </trkpt>
      <trkpt lat="43.20424" lon="5.58335">
        <ele>180</ele>
        <time>2013-02-15T10:27:17Z</time>
      </trkpt>
      <trkpt lat="43.20425" lon="5.58334">
        <ele>181</ele>
        <time>2013-02-15T10:27:22Z</time>
      </trkpt>
      <trkpt lat="43.20425" lon="5.58334">
        <ele>181</ele>
        <time>2013-02-15T10:27:27Z</time>
      </trkpt>
      <trkpt lat="43.20425" lon="5.58334">
        <ele>181</ele>
        <time>2013-02-15T10:27:32Z</time>
      </trkpt>
      <trkpt lat="43.20425" lon="5.58334">
        <ele>182</ele>
        <time>2013-02-15T10:27:37Z</time>
      </trkpt>
      <trkpt lat="43.20427" lon="5.58333">
        <ele>183</ele>
        <time>2013-02-15T10:27:42Z</time>
      </trkpt>
      <trkpt lat="43.20431" lon="5.58332">
        <ele>184</ele>
        <time>2013-02-15T10:27:47Z</time>
      </trkpt>
      <trkpt lat="43.20433" lon="5.58334">
        <ele>184</ele>
        <time>2013-02-15T10:27:52Z</time>
      </trkpt>
      <trkpt lat="43.20433" lon="5.58339">
        <ele>185</ele>
        <time>2013-02-15T10:27:57Z</time>
      </trkpt>
      <trkpt lat="43.20434" lon="5.58345">
        <ele>186</ele>
        <time>2013-02-15T10:28:02Z</time>
      </trkpt>
      <trkpt lat="43.20433" lon="5.58352">
        <ele>186</ele>
        <time>2013-02-15T10:28:07Z</time>
      </trkpt>
      <trkpt lat="43.20432" lon="5.58359">
        <ele>187</ele>
        <time>2013-02-15T10:28:12Z</time>
      </trkpt>
      <trkpt lat="43.20432" lon="5.58365">
        <ele>187</ele>
        <time>2013-02-15T10:28:17Z</time>
      </trkpt>
      <trkpt lat="43.20431" lon="5.58371">
        <ele>187</ele>
        <time>2013-02-15T10:28:22Z</time>
      </trkpt>
      <trkpt lat="43.20431" lon="5.58377">
        <ele>187</ele>
        <time>2013-02-15T10:28:27Z</time>
      </trkpt>
      <trkpt lat="43.20428" lon="5.58387">
        <ele>188</ele>
        <time>2013-02-15T10:28:32Z</time>
      </trkpt>
      <trkpt lat="43.20426" lon="5.58394">
        <ele>187</ele>
        <time>2013-02-15T10:28:37Z</time>
      </trkpt>
      <trkpt lat="43.20426" lon="5.58402">
        <ele>187</ele>
        <time>2013-02-15T10:28:42Z</time>
      </trkpt>
      <trkpt lat="43.20425" lon="5.5841">
        <ele>187</ele>
        <time>2013-02-15T10:28:47Z</time>
      </trkpt>
      <trkpt lat="43.20422" lon="5.58418">
        <ele>188</ele>
        <time>2013-02-15T10:28:52Z</time>
      </trkpt>
      <trkpt lat="43.2042" lon="5.58424">
        <ele>189</ele>
        <time>2013-02-15T10:28:57Z</time>
      </trkpt>
      <trkpt lat="43.20419" lon="5.58432">
        <ele>189</ele>
        <time>2013-02-15T10:29:02Z</time>
      </trkpt>
      <trkpt lat="43.20417" lon="5.58439">
        <ele>189</ele>
        <time>2013-02-15T10:29:07Z</time>
      </trkpt>
      <trkpt lat="43.20415" lon="5.58449">
        <ele>189</ele>
        <time>2013-02-15T10:29:12Z</time>
      </trkpt>
      <trkpt lat="43.20411" lon="5.58458">
        <ele>189</ele>
        <time>2013-02-15T10:29:17Z</time>
      </trkpt>
      <trkpt lat="43.20407" lon="5.58467">
        <ele>190</ele>
        <time>2013-02-15T10:29:22Z</time>
      </trkpt>
      <trkpt lat="43.20404" lon="5.58474">
        <ele>190</ele>
        <time>2013-02-15T10:29:27Z</time>
      </trkpt>
      <trkpt lat="43.20403" lon="5.5848">
        <ele>191</ele>
        <time>2013-02-15T10:29:32Z</time>
      </trkpt>
      <trkpt lat="43.20403" lon="5.58486">
        <ele>191</ele>
        <time>2013-02-15T10:29:37Z</time>
      </trkpt>
      <trkpt lat="43.20402" lon="5.58494">
        <ele>192</ele>
        <time>2013-02-15T10:29:42Z</time>
      </trkpt>
      <trkpt lat="43.20401" lon="5.58497">
        <ele>192</ele>
        <time>2013-02-15T10:29:47Z</time>
      </trkpt>
      <trkpt lat="43.20397" lon="5.58498">
        <ele>192</ele>
        <time>2013-02-15T10:29:52Z</time>
      </trkpt>
      <trkpt lat="43.20393" lon="5.58502">
        <ele>192</ele>
        <time>2013-02-15T10:29:57Z</time>
      </trkpt>
      <trkpt lat="43.20393" lon="5.58509">
        <ele>192</ele>
        <time>2013-02-15T10:30:02Z</time>
      </trkpt>
      <trkpt lat="43.20393" lon="5.5852">
        <ele>192</ele>
        <time>2013-02-15T10:30:07Z</time>
      </trkpt>
      <trkpt lat="43.20393" lon="5.58529">
        <ele>192</ele>
        <time>2013-02-15T10:30:12Z</time>
      </trkpt>
      <trkpt lat="43.20395" lon="5.58539">
        <ele>191</ele>
        <time>2013-02-15T10:30:17Z</time>
      </trkpt>
      <trkpt lat="43.20398" lon="5.58545">
        <ele>191</ele>
        <time>2013-02-15T10:30:22Z</time>
      </trkpt>
      <trkpt lat="43.20403" lon="5.58553">
        <ele>191</ele>
        <time>2013-02-15T10:30:27Z</time>
      </trkpt>
      <trkpt lat="43.20407" lon="5.58559">
        <ele>191</ele>
        <time>2013-02-15T10:30:32Z</time>
      </trkpt>
      <trkpt lat="43.20414" lon="5.58565">
        <ele>191</ele>
        <time>2013-02-15T10:30:37Z</time>
      </trkpt>
      <trkpt lat="43.20418" lon="5.5857">
        <ele>191</ele>
        <time>2013-02-15T10:30:42Z</time>
      </trkpt>
      <trkpt lat="43.20421" lon="5.58574">
        <ele>190</ele>
        <time>2013-02-15T10:30:47Z</time>
      </trkpt>
      <trkpt lat="43.20424" lon="5.58578">
        <ele>190</ele>
        <time>2013-02-15T10:30:52Z</time>
      </trkpt>
      <trkpt lat="43.20428" lon="5.58579">
        <ele>190</ele>
        <time>2013-02-15T10:30:57Z</time>
      </trkpt>
      <trkpt lat="43.20434" lon="5.58582">
        <ele>189</ele>
        <time>2013-02-15T10:31:02Z</time>
      </trkpt>
      <trkpt lat="43.20438" lon="5.58586">
        <ele>189</ele>
        <time>2013-02-15T10:31:07Z</time>
      </trkpt>
      <trkpt lat="43.20441" lon="5.58591">
        <ele>189</ele>
        <time>2013-02-15T10:31:12Z</time>
      </trkpt>
      <trkpt lat="43.20443" lon="5.58593">
        <ele>189</ele>
        <time>2013-02-15T10:31:17Z</time>
      </trkpt>
      <trkpt lat="43.20444" lon="5.58593">
        <ele>189</ele>
        <time>2013-02-15T10:31:22Z</time>
      </trkpt>
      <trkpt lat="43.20443" lon="5.5859">
        <ele>188</ele>
        <time>2013-02-15T10:31:27Z</time>
      </trkpt>
      <trkpt lat="43.20441" lon="5.58586">
        <ele>188</ele>
        <time>2013-02-15T10:31:32Z</time>
      </trkpt>
      <trkpt lat="43.20438" lon="5.58582">
        <ele>187</ele>
        <time>2013-02-15T10:31:37Z</time>
      </trkpt>
      <trkpt lat="43.20435" lon="5.5858">
        <ele>186</ele>
        <time>2013-02-15T10:31:42Z</time>
      </trkpt>
      <trkpt lat="43.20431" lon="5.58577">
        <ele>185</ele>
        <time>2013-02-15T10:31:47Z</time>
      </trkpt>
      <trkpt lat="43.20426" lon="5.58574">
        <ele>184</ele>
        <time>2013-02-15T10:31:52Z</time>
      </trkpt>
      <trkpt lat="43.20421" lon="5.58565">
        <ele>184</ele>
        <time>2013-02-15T10:31:57Z</time>
      </trkpt>
      <trkpt lat="43.20412" lon="5.58556">
        <ele>184</ele>
        <time>2013-02-15T10:32:02Z</time>
      </trkpt>
      <trkpt lat="43.20407" lon="5.58548">
        <ele>185</ele>
        <time>2013-02-15T10:32:07Z</time>
      </trkpt>
      <trkpt lat="43.20402" lon="5.58543">
        <ele>186</ele>
        <time>2013-02-15T10:32:12Z</time>
      </trkpt>
      <trkpt lat="43.20403" lon="5.58535">
        <ele>186</ele>
        <time>2013-02-15T10:32:17Z</time>
      </trkpt>
      <trkpt lat="43.20405" lon="5.58531">
        <ele>186</ele>
        <time>2013-02-15T10:32:22Z</time>
      </trkpt>
      <trkpt lat="43.20408" lon="5.58525">
        <ele>187</ele>
        <time>2013-02-15T10:32:27Z</time>
      </trkpt>
      <trkpt lat="43.20413" lon="5.58518">
        <ele>187</ele>
        <time>2013-02-15T10:32:32Z</time>
      </trkpt>
      <trkpt lat="43.2042" lon="5.58514">
        <ele>187</ele>
        <time>2013-02-15T10:32:37Z</time>
      </trkpt>
      <trkpt lat="43.20423" lon="5.58513">
        <ele>187</ele>
        <time>2013-02-15T10:32:42Z</time>
      </trkpt>
      <trkpt lat="43.20428" lon="5.5851">
        <ele>187</ele>
        <time>2013-02-15T10:32:47Z</time>
      </trkpt>
      <trkpt lat="43.20434" lon="5.58504">
        <ele>188</ele>
        <time>2013-02-15T10:32:52Z</time>
      </trkpt>
      <trkpt lat="43.20438" lon="5.58501">
        <ele>189</ele>
        <time>2013-02-15T10:32:57Z</time>
      </trkpt>
      <trkpt lat="43.20443" lon="5.58498">
        <ele>189</ele>
        <time>2013-02-15T10:33:02Z</time>
      </trkpt>
      <trkpt lat="43.20448" lon="5.58492">
        <ele>190</ele>
        <time>2013-02-15T10:33:07Z</time>
      </trkpt>
      <trkpt lat="43.20451" lon="5.58489">
        <ele>191</ele>
        <time>2013-02-15T10:33:12Z</time>
      </trkpt>
      <trkpt lat="43.20455" lon="5.58486">
        <ele>193</ele>
        <time>2013-02-15T10:33:17Z</time>
      </trkpt>
      <trkpt lat="43.2046" lon="5.5848">
        <ele>193</ele>
        <time>2013-02-15T10:33:22Z</time>
      </trkpt>
      <trkpt lat="43.20464" lon="5.58474">
        <ele>194</ele>
        <time>2013-02-15T10:33:27Z</time>
      </trkpt>
      <trkpt lat="43.20467" lon="5.58468">
        <ele>195</ele>
        <time>2013-02-15T10:33:32Z</time>
      </trkpt>
      <trkpt lat="43.20471" lon="5.58461">
        <ele>195</ele>
        <time>2013-02-15T10:33:37Z</time>
      </trkpt>
      <trkpt lat="43.20471" lon="5.58454">
        <ele>196</ele>
        <time>2013-02-15T10:33:42Z</time>
      </trkpt>
      <trkpt lat="43.20473" lon="5.58444">
        <ele>197</ele>
        <time>2013-02-15T10:33:47Z</time>
      </trkpt>
      <trkpt lat="43.20475" lon="5.58436">
        <ele>197</ele>
        <time>2013-02-15T10:33:52Z</time>
      </trkpt>
      <trkpt lat="43.20479" lon="5.58431">
        <ele>197</ele>
        <time>2013-02-15T10:33:57Z</time>
      </trkpt>
      <trkpt lat="43.20483" lon="5.58424">
        <ele>198</ele>
        <time>2013-02-15T10:34:02Z</time>
      </trkpt>
      <trkpt lat="43.20482" lon="5.58418">
        <ele>198</ele>
        <time>2013-02-15T10:34:07Z</time>
      </trkpt>
      <trkpt lat="43.20484" lon="5.58411">
        <ele>198</ele>
        <time>2013-02-15T10:34:12Z</time>
      </trkpt>
      <trkpt lat="43.20488" lon="5.58404">
        <ele>198</ele>
        <time>2013-02-15T10:34:17Z</time>
      </trkpt>
      <trkpt lat="43.2049" lon="5.58399">
        <ele>198</ele>
        <time>2013-02-15T10:34:22Z</time>
      </trkpt>
      <trkpt lat="43.20492" lon="5.58393">
        <ele>198</ele>
        <time>2013-02-15T10:34:27Z</time>
      </trkpt>
      <trkpt lat="43.20494" lon="5.58387">
        <ele>199</ele>
        <time>2013-02-15T10:34:32Z</time>
      </trkpt>
      <trkpt lat="43.20496" lon="5.5838">
        <ele>199</ele>
        <time>2013-02-15T10:34:37Z</time>
      </trkpt>
      <trkpt lat="43.20499" lon="5.58375">
        <ele>200</ele>
        <time>2013-02-15T10:34:42Z</time>
      </trkpt>
      <trkpt lat="43.20502" lon="5.58369">
        <ele>201</ele>
        <time>2013-02-15T10:34:47Z</time>
      </trkpt>
      <trkpt lat="43.20503" lon="5.58363">
        <ele>201</ele>
        <time>2013-02-15T10:34:52Z</time>
      </trkpt>
      <trkpt lat="43.20506" lon="5.58355">
        <ele>202</ele>
        <time>2013-02-15T10:34:57Z</time>
      </trkpt>
      <trkpt lat="43.20509" lon="5.58348">
        <ele>203</ele>
        <time>2013-02-15T10:35:02Z</time>
      </trkpt>
      <trkpt lat="43.20511" lon="5.58342">
        <ele>203</ele>
        <time>2013-02-15T10:35:07Z</time>
      </trkpt>
      <trkpt lat="43.20513" lon="5.58335">
        <ele>203</ele>
        <time>2013-02-15T10:35:12Z</time>
      </trkpt>
      <trkpt lat="43.20515" lon="5.58328">
        <ele>204</ele>
        <time>2013-02-15T10:35:17Z</time>
      </trkpt>
      <trkpt lat="43.20517" lon="5.58324">
        <ele>204</ele>
        <time>2013-02-15T10:35:22Z</time>
      </trkpt>
      <trkpt lat="43.20519" lon="5.5832">
        <ele>205</ele>
        <time>2013-02-15T10:35:27Z</time>
      </trkpt>
      <trkpt lat="43.2052" lon="5.58318">
        <ele>205</ele>
        <time>2013-02-15T10:35:32Z</time>
      </trkpt>
      <trkpt lat="43.2052" lon="5.58317">
        <ele>205</ele>
        <time>2013-02-15T10:35:37Z</time>
      </trkpt>
      <trkpt lat="43.2052" lon="5.58316">
        <ele>206</ele>
        <time>2013-02-15T10:35:42Z</time>
      </trkpt>
      <trkpt lat="43.2052" lon="5.58312">
        <ele>207</ele>
        <time>2013-02-15T10:35:47Z</time>
      </trkpt>
      <trkpt lat="43.20523" lon="5.58305">
        <ele>208</ele>
        <time>2013-02-15T10:35:52Z</time>
      </trkpt>
      <trkpt lat="43.20525" lon="5.58299">
        <ele>208</ele>
        <time>2013-02-15T10:35:57Z</time>
      </trkpt>
      <trkpt lat="43.20526" lon="5.58293">
        <ele>208</ele>
        <time>2013-02-15T10:36:02Z</time>
      </trkpt>
      <trkpt lat="43.20526" lon="5.58288">
        <ele>209</ele>
        <time>2013-02-15T10:36:07Z</time>
      </trkpt>
      <trkpt lat="43.20527" lon="5.58285">
        <ele>209</ele>
        <time>2013-02-15T10:36:12Z</time>
      </trkpt>
      <trkpt lat="43.20527" lon="5.58279">
        <ele>209</ele>
        <time>2013-02-15T10:36:17Z</time>
      </trkpt>
      <trkpt lat="43.20527" lon="5.58274">
        <ele>209</ele>
        <time>2013-02-15T10:36:22Z</time>
      </trkpt>
      <trkpt lat="43.20528" lon="5.5827">
        <ele>210</ele>
        <time>2013-02-15T10:36:27Z</time>
      </trkpt>
      <trkpt lat="43.20528" lon="5.58265">
        <ele>210</ele>
        <time>2013-02-15T10:36:32Z</time>
      </trkpt>
      <trkpt lat="43.20527" lon="5.58257">
        <ele>210</ele>
        <time>2013-02-15T10:36:37Z</time>
      </trkpt>
      <trkpt lat="43.20525" lon="5.58247">
        <ele>209</ele>
        <time>2013-02-15T10:36:42Z</time>
      </trkpt>
      <trkpt lat="43.20523" lon="5.58237">
        <ele>209</ele>
        <time>2013-02-15T10:36:47Z</time>
      </trkpt>
      <trkpt lat="43.20521" lon="5.58228">
        <ele>209</ele>
        <time>2013-02-15T10:36:52Z</time>
      </trkpt>
      <trkpt lat="43.20519" lon="5.58219">
        <ele>210</ele>
        <time>2013-02-15T10:36:57Z</time>
      </trkpt>
      <trkpt lat="43.20517" lon="5.58211">
        <ele>210</ele>
        <time>2013-02-15T10:37:02Z</time>
      </trkpt>
      <trkpt lat="43.20516" lon="5.58203">
        <ele>211</ele>
        <time>2013-02-15T10:37:07Z</time>
      </trkpt>
      <trkpt lat="43.20515" lon="5.58197">
        <ele>212</ele>
        <time>2013-02-15T10:37:12Z</time>
      </trkpt>
      <trkpt lat="43.20513" lon="5.58189">
        <ele>213</ele>
        <time>2013-02-15T10:37:17Z</time>
      </trkpt>
      <trkpt lat="43.20512" lon="5.58181">
        <ele>213</ele>
        <time>2013-02-15T10:37:22Z</time>
      </trkpt>
      <trkpt lat="43.2051" lon="5.58173">
        <ele>214</ele>
        <time>2013-02-15T10:37:27Z</time>
      </trkpt>
      <trkpt lat="43.20509" lon="5.58164">
        <ele>215</ele>
        <time>2013-02-15T10:37:32Z</time>
      </trkpt>
      <trkpt lat="43.20508" lon="5.58155">
        <ele>216</ele>
        <time>2013-02-15T10:37:37Z</time>
      </trkpt>
      <trkpt lat="43.20507" lon="5.58148">
        <ele>217</ele>
        <time>2013-02-15T10:37:42Z</time>
      </trkpt>
      <trkpt lat="43.20506" lon="5.58142">
        <ele>217</ele>
        <time>2013-02-15T10:37:47Z</time>
      </trkpt>
      <trkpt lat="43.20504" lon="5.58135">
        <ele>218</ele>
        <time>2013-02-15T10:37:52Z</time>
      </trkpt>
      <trkpt lat="43.20502" lon="5.58126">
        <ele>219</ele>
        <time>2013-02-15T10:37:57Z</time>
      </trkpt>
      <trkpt lat="43.20501" lon="5.5812">
        <ele>220</ele>
        <time>2013-02-15T10:38:03Z</time>
      </trkpt>
      <trkpt lat="43.20499" lon="5.58115">
        <ele>221</ele>
        <time>2013-02-15T10:38:08Z</time>
      </trkpt>
      <trkpt lat="43.20494" lon="5.58109">
        <ele>221</ele>
        <time>2013-02-15T10:38:13Z</time>
      </trkpt>
      <trkpt lat="43.20488" lon="5.58106">
        <ele>222</ele>
        <time>2013-02-15T10:38:18Z</time>
      </trkpt>
      <trkpt lat="43.20481" lon="5.58108">
        <ele>222</ele>
        <time>2013-02-15T10:38:23Z</time>
      </trkpt>
      <trkpt lat="43.20476" lon="5.58109">
        <ele>223</ele>
        <time>2013-02-15T10:38:28Z</time>
      </trkpt>
      <trkpt lat="43.20471" lon="5.58108">
        <ele>224</ele>
        <time>2013-02-15T10:38:33Z</time>
      </trkpt>
      <trkpt lat="43.20465" lon="5.58106">
        <ele>224</ele>
        <time>2013-02-15T10:38:38Z</time>
      </trkpt>
      <trkpt lat="43.2046" lon="5.58102">
        <ele>225</ele>
        <time>2013-02-15T10:38:43Z</time>
      </trkpt>
      <trkpt lat="43.20454" lon="5.58097">
        <ele>225</ele>
        <time>2013-02-15T10:38:48Z</time>
      </trkpt>
      <trkpt lat="43.2045" lon="5.58092">
        <ele>225</ele>
        <time>2013-02-15T10:38:53Z</time>
      </trkpt>
      <trkpt lat="43.20446" lon="5.58087">
        <ele>225</ele>
        <time>2013-02-15T10:38:58Z</time>
      </trkpt>
      <trkpt lat="43.20443" lon="5.5808">
        <ele>225</ele>
        <time>2013-02-15T10:39:03Z</time>
      </trkpt>
      <trkpt lat="43.20442" lon="5.58072">
        <ele>224</ele>
        <time>2013-02-15T10:39:08Z</time>
      </trkpt>
      <trkpt lat="43.20442" lon="5.58065">
        <ele>224</ele>
        <time>2013-02-15T10:39:13Z</time>
      </trkpt>
      <trkpt lat="43.20441" lon="5.58058">
        <ele>224</ele>
        <time>2013-02-15T10:39:18Z</time>
      </trkpt>
      <trkpt lat="43.20441" lon="5.58053">
        <ele>225</ele>
        <time>2013-02-15T10:39:23Z</time>
      </trkpt>
      <trkpt lat="43.20442" lon="5.58047">
        <ele>225</ele>
        <time>2013-02-15T10:39:28Z</time>
      </trkpt>
      <trkpt lat="43.20441" lon="5.58041">
        <ele>225</ele>
        <time>2013-02-15T10:39:33Z</time>
      </trkpt>
      <trkpt lat="43.2044" lon="5.58034">
        <ele>225</ele>
        <time>2013-02-15T10:39:38Z</time>
      </trkpt>
      <trkpt lat="43.20439" lon="5.58026">
        <ele>225</ele>
        <time>2013-02-15T10:39:43Z</time>
      </trkpt>
      <trkpt lat="43.2044" lon="5.58017">
        <ele>225</ele>
        <time>2013-02-15T10:39:48Z</time>
      </trkpt>
      <trkpt lat="43.20439" lon="5.58011">
        <ele>225</ele>
        <time>2013-02-15T10:39:53Z</time>
      </trkpt>
      <trkpt lat="43.20437" lon="5.58004">
        <ele>225</ele>
        <time>2013-02-15T10:39:58Z</time>
      </trkpt>
      <trkpt lat="43.20438" lon="5.57997">
        <ele>226</ele>
        <time>2013-02-15T10:40:03Z</time>
      </trkpt>
      <trkpt lat="43.20437" lon="5.5799">
        <ele>225</ele>
        <time>2013-02-15T10:40:08Z</time>
      </trkpt>
      <trkpt lat="43.20435" lon="5.57982">
        <ele>226</ele>
        <time>2013-02-15T10:40:13Z</time>
      </trkpt>
      <trkpt lat="43.20436" lon="5.57975">
        <ele>226</ele>
        <time>2013-02-15T10:40:18Z</time>
      </trkpt>
      <trkpt lat="43.20436" lon="5.57966">
        <ele>226</ele>
        <time>2013-02-15T10:40:23Z</time>
      </trkpt>
      <trkpt lat="43.20438" lon="5.57961">
        <ele>227</ele>
        <time>2013-02-15T10:40:28Z</time>
      </trkpt>
      <trkpt lat="43.2044" lon="5.57955">
        <ele>228</ele>
        <time>2013-02-15T10:40:33Z</time>
      </trkpt>
      <trkpt lat="43.2044" lon="5.57949">
        <ele>228</ele>
        <time>2013-02-15T10:40:38Z</time>
      </trkpt>
      <trkpt lat="43.20444" lon="5.57944">
        <ele>229</ele>
        <time>2013-02-15T10:40:43Z</time>
      </trkpt>
      <trkpt lat="43.20446" lon="5.5794">
        <ele>230</ele>
        <time>2013-02-15T10:40:48Z</time>
      </trkpt>
      <trkpt lat="43.20449" lon="5.57934">
        <ele>230</ele>
        <time>2013-02-15T10:40:53Z</time>
      </trkpt>
      <trkpt lat="43.2045" lon="5.57927">
        <ele>231</ele>
        <time>2013-02-15T10:40:58Z</time>
      </trkpt>
      <trkpt lat="43.2045" lon="5.5792">
        <ele>232</ele>
        <time>2013-02-15T10:41:03Z</time>
      </trkpt>
      <trkpt lat="43.20451" lon="5.57913">
        <ele>233</ele>
        <time>2013-02-15T10:41:08Z</time>
      </trkpt>
      <trkpt lat="43.20453" lon="5.57905">
        <ele>234</ele>
        <time>2013-02-15T10:41:13Z</time>
      </trkpt>
      <trkpt lat="43.20452" lon="5.57897">
        <ele>234</ele>
        <time>2013-02-15T10:41:18Z</time>
      </trkpt>
      <trkpt lat="43.20453" lon="5.57891">
        <ele>235</ele>
        <time>2013-02-15T10:41:23Z</time>
      </trkpt>
      <trkpt lat="43.20452" lon="5.57883">
        <ele>235</ele>
        <time>2013-02-15T10:41:28Z</time>
      </trkpt>
      <trkpt lat="43.20452" lon="5.57876">
        <ele>236</ele>
        <time>2013-02-15T10:41:33Z</time>
      </trkpt>
      <trkpt lat="43.20454" lon="5.5787">
        <ele>237</ele>
        <time>2013-02-15T10:41:38Z</time>
      </trkpt>
      <trkpt lat="43.20455" lon="5.57862">
        <ele>237</ele>
        <time>2013-02-15T10:41:43Z</time>
      </trkpt>
      <trkpt lat="43.20456" lon="5.57856">
        <ele>238</ele>
        <time>2013-02-15T10:41:48Z</time>
      </trkpt>
      <trkpt lat="43.20456" lon="5.57851">
        <ele>239</ele>
        <time>2013-02-15T10:41:53Z</time>
      </trkpt>
      <trkpt lat="43.20459" lon="5.5784">
        <ele>240</ele>
        <time>2013-02-15T10:41:58Z</time>
      </trkpt>
      <trkpt lat="43.20462" lon="5.57832">
        <ele>241</ele>
        <time>2013-02-15T10:42:03Z</time>
      </trkpt>
      <trkpt lat="43.20464" lon="5.5782">
        <ele>242</ele>
        <time>2013-02-15T10:42:08Z</time>
      </trkpt>
      <trkpt lat="43.20467" lon="5.57812">
        <ele>242</ele>
        <time>2013-02-15T10:42:13Z</time>
      </trkpt>
      <trkpt lat="43.20469" lon="5.57805">
        <ele>242</ele>
        <time>2013-02-15T10:42:18Z</time>
      </trkpt>
      <trkpt lat="43.2047" lon="5.57797">
        <ele>242</ele>
        <time>2013-02-15T10:42:23Z</time>
      </trkpt>
      <trkpt lat="43.20472" lon="5.57789">
        <ele>242</ele>
        <time>2013-02-15T10:42:28Z</time>
      </trkpt>
      <trkpt lat="43.20474" lon="5.57783">
        <ele>243</ele>
        <time>2013-02-15T10:42:33Z</time>
      </trkpt>
      <trkpt lat="43.20476" lon="5.57778">
        <ele>243</ele>
        <time>2013-02-15T10:42:38Z</time>
      </trkpt>
      <trkpt lat="43.20478" lon="5.57768">
        <ele>243</ele>
        <time>2013-02-15T10:42:43Z</time>
      </trkpt>
      <trkpt lat="43.2048" lon="5.5776">
        <ele>243</ele>
        <time>2013-02-15T10:42:48Z</time>
      </trkpt>
      <trkpt lat="43.20482" lon="5.57752">
        <ele>243</ele>
        <time>2013-02-15T10:42:53Z</time>
      </trkpt>
      <trkpt lat="43.20483" lon="5.57744">
        <ele>243</ele>
        <time>2013-02-15T10:42:58Z</time>
      </trkpt>
      <trkpt lat="43.20483" lon="5.57736">
        <ele>244</ele>
        <time>2013-02-15T10:43:03Z</time>
      </trkpt>
      <trkpt lat="43.20483" lon="5.57726">
        <ele>244</ele>
        <time>2013-02-15T10:43:08Z</time>
      </trkpt>
      <trkpt lat="43.20482" lon="5.57718">
        <ele>244</ele>
        <time>2013-02-15T10:43:13Z</time>
      </trkpt>
      <trkpt lat="43.20483" lon="5.57713">
        <ele>244</ele>
        <time>2013-02-15T10:43:18Z</time>
      </trkpt>
      <trkpt lat="43.20484" lon="5.57709">
        <ele>244</ele>
        <time>2013-02-15T10:43:23Z</time>
      </trkpt>
      <trkpt lat="43.20484" lon="5.57701">
        <ele>244</ele>
        <time>2013-02-15T10:43:28Z</time>
      </trkpt>
      <trkpt lat="43.20484" lon="5.57693">
        <ele>245</ele>
        <time>2013-02-15T10:43:33Z</time>
      </trkpt>
      <trkpt lat="43.20484" lon="5.57684">
        <ele>245</ele>
        <time>2013-02-15T10:43:38Z</time>
      </trkpt>
      <trkpt lat="43.20484" lon="5.57679">
        <ele>246</ele>
        <time>2013-02-15T10:43:43Z</time>
      </trkpt>
      <trkpt lat="43.20484" lon="5.57672">
        <ele>246</ele>
        <time>2013-02-15T10:43:48Z</time>
      </trkpt>
      <trkpt lat="43.20483" lon="5.57667">
        <ele>247</ele>
        <time>2013-02-15T10:43:53Z</time>
      </trkpt>
      <trkpt lat="43.20485" lon="5.5766">
        <ele>247</ele>
        <time>2013-02-15T10:43:58Z</time>
      </trkpt>
      <trkpt lat="43.20488" lon="5.5765">
        <ele>247</ele>
        <time>2013-02-15T10:44:03Z</time>
      </trkpt>
      <trkpt lat="43.20488" lon="5.57643">
        <ele>248</ele>
        <time>2013-02-15T10:44:08Z</time>
      </trkpt>
      <trkpt lat="43.20489" lon="5.57636">
        <ele>248</ele>
        <time>2013-02-15T10:44:13Z</time>
      </trkpt>
      <trkpt lat="43.20491" lon="5.57628">
        <ele>248</ele>
        <time>2013-02-15T10:44:18Z</time>
      </trkpt>
      <trkpt lat="43.20492" lon="5.5762">
        <ele>248</ele>
        <time>2013-02-15T10:44:23Z</time>
      </trkpt>
      <trkpt lat="43.20494" lon="5.57613">
        <ele>249</ele>
        <time>2013-02-15T10:44:28Z</time>
      </trkpt>
      <trkpt lat="43.20496" lon="5.57606">
        <ele>249</ele>
        <time>2013-02-15T10:44:33Z</time>
      </trkpt>
      <trkpt lat="43.20499" lon="5.57595">
        <ele>249</ele>
        <time>2013-02-15T10:44:38Z</time>
      </trkpt>
      <trkpt lat="43.205" lon="5.57587">
        <ele>248</ele>
        <time>2013-02-15T10:44:43Z</time>
      </trkpt>
      <trkpt lat="43.20502" lon="5.57577">
        <ele>248</ele>
        <time>2013-02-15T10:44:48Z</time>
      </trkpt>
      <trkpt lat="43.20503" lon="5.57567">
        <ele>247</ele>
        <time>2013-02-15T10:44:53Z</time>
      </trkpt>
      <trkpt lat="43.20506" lon="5.57562">
        <ele>246</ele>
        <time>2013-02-15T10:44:58Z</time>
      </trkpt>
      <trkpt lat="43.20506" lon="5.57558">
        <ele>246</ele>
        <time>2013-02-15T10:45:03Z</time>
      </trkpt>
      <trkpt lat="43.20505" lon="5.57552">
        <ele>246</ele>
        <time>2013-02-15T10:45:08Z</time>
      </trkpt>
      <trkpt lat="43.20505" lon="5.57547">
        <ele>246</ele>
        <time>2013-02-15T10:45:13Z</time>
      </trkpt>
      <trkpt lat="43.20502" lon="5.57544">
        <ele>246</ele>
        <time>2013-02-15T10:45:18Z</time>
      </trkpt>
      <trkpt lat="43.20499" lon="5.57544">
        <ele>246</ele>
        <time>2013-02-15T10:45:23Z</time>
      </trkpt>
      <trkpt lat="43.20494" lon="5.57545">
        <ele>246</ele>
        <time>2013-02-15T10:45:28Z</time>
      </trkpt>
      <trkpt lat="43.20484" lon="5.57542">
        <ele>247</ele>
        <time>2013-02-15T10:45:33Z</time>
      </trkpt>
      <trkpt lat="43.20479" lon="5.57539">
        <ele>247</ele>
        <time>2013-02-15T10:45:38Z</time>
      </trkpt>
      <trkpt lat="43.20477" lon="5.57536">
        <ele>248</ele>
        <time>2013-02-15T10:45:43Z</time>
      </trkpt>
      <trkpt lat="43.20474" lon="5.57531">
        <ele>249</ele>
        <time>2013-02-15T10:45:48Z</time>
      </trkpt>
      <trkpt lat="43.20471" lon="5.57525">
        <ele>250</ele>
        <time>2013-02-15T10:45:53Z</time>
      </trkpt>
      <trkpt lat="43.20468" lon="5.5752">
        <ele>249</ele>
        <time>2013-02-15T10:45:58Z</time>
      </trkpt>
      <trkpt lat="43.20464" lon="5.57513">
        <ele>249</ele>
        <time>2013-02-15T10:46:03Z</time>
      </trkpt>
      <trkpt lat="43.20457" lon="5.57507">
        <ele>250</ele>
        <time>2013-02-15T10:46:08Z</time>
      </trkpt>
      <trkpt lat="43.20451" lon="5.57507">
        <ele>251</ele>
        <time>2013-02-15T10:46:13Z</time>
      </trkpt>
      <trkpt lat="43.20445" lon="5.57513">
        <ele>252</ele>
        <time>2013-02-15T10:46:18Z</time>
      </trkpt>
      <trkpt lat="43.2044" lon="5.57521">
        <ele>253</ele>
        <time>2013-02-15T10:46:23Z</time>
      </trkpt>
      <trkpt lat="43.20437" lon="5.57526">
        <ele>255</ele>
        <time>2013-02-15T10:46:28Z</time>
      </trkpt>
      <trkpt lat="43.20432" lon="5.57528">
        <ele>255</ele>
        <time>2013-02-15T10:46:33Z</time>
      </trkpt>
      <trkpt lat="43.20426" lon="5.57529">
        <ele>255</ele>
        <time>2013-02-15T10:46:38Z</time>
      </trkpt>
      <trkpt lat="43.20422" lon="5.57535">
        <ele>255</ele>
        <time>2013-02-15T10:46:43Z</time>
      </trkpt>
      <trkpt lat="43.20418" lon="5.57537">
        <ele>255</ele>
        <time>2013-02-15T10:46:48Z</time>
      </trkpt>
      <trkpt lat="43.20415" lon="5.57537">
        <ele>255</ele>
        <time>2013-02-15T10:46:53Z</time>
      </trkpt>
      <trkpt lat="43.2041" lon="5.57534">
        <ele>255</ele>
        <time>2013-02-15T10:46:58Z</time>
      </trkpt>
      <trkpt lat="43.20409" lon="5.57532">
        <ele>255</ele>
        <time>2013-02-15T10:47:03Z</time>
      </trkpt>
      <trkpt lat="43.20408" lon="5.57531">
        <ele>256</ele>
        <time>2013-02-15T10:47:08Z</time>
      </trkpt>
      <trkpt lat="43.20408" lon="5.57531">
        <ele>256</ele>
        <time>2013-02-15T10:47:13Z</time>
      </trkpt>
      <trkpt lat="43.20407" lon="5.57528">
        <ele>257</ele>
        <time>2013-02-15T10:47:18Z</time>
      </trkpt>
      <trkpt lat="43.20405" lon="5.57528">
        <ele>257</ele>
        <time>2013-02-15T10:47:23Z</time>
      </trkpt>
      <trkpt lat="43.20405" lon="5.57528">
        <ele>257</ele>
        <time>2013-02-15T10:47:28Z</time>
      </trkpt>
      <trkpt lat="43.20405" lon="5.57527">
        <ele>258</ele>
        <time>2013-02-15T10:47:33Z</time>
      </trkpt>
      <trkpt lat="43.20404" lon="5.57529">
        <ele>258</ele>
        <time>2013-02-15T10:47:38Z</time>
      </trkpt>
      <trkpt lat="43.20403" lon="5.57527">
        <ele>259</ele>
        <time>2013-02-15T10:47:43Z</time>
      </trkpt>
      <trkpt lat="43.20403" lon="5.57528">
        <ele>259</ele>
        <time>2013-02-15T10:47:48Z</time>
      </trkpt>
      <trkpt lat="43.20403" lon="5.57528">
        <ele>260</ele>
        <time>2013-02-15T10:47:53Z</time>
      </trkpt>
      <trkpt lat="43.20403" lon="5.57529">
        <ele>260</ele>
        <time>2013-02-15T10:47:58Z</time>
      </trkpt>
      <trkpt lat="43.20402" lon="5.57529">
        <ele>260</ele>
        <time>2013-02-15T10:48:03Z</time>
      </trkpt>
      <trkpt lat="43.20402" lon="5.57529">
        <ele>260</ele>
        <time>2013-02-15T10:48:08Z</time>
      </trkpt>
      <trkpt lat="43.20402" lon="5.57529">
        <ele>261</ele>
        <time>2013-02-15T10:48:13Z</time>
      </trkpt>
      <trkpt lat="43.20403" lon="5.57527">
        <ele>262</ele>
        <time>2013-02-15T10:48:18Z</time>
      </trkpt>
      <trkpt lat="43.20403" lon="5.57527">
        <ele>262</ele>
        <time>2013-02-15T10:48:23Z</time>
      </trkpt>
      <trkpt lat="43.20404" lon="5.57527">
        <ele>262</ele>
        <time>2013-02-15T10:48:28Z</time>
      </trkpt>
      <trkpt lat="43.20404" lon="5.57526">
        <ele>262</ele>
        <time>2013-02-15T10:48:33Z</time>
      </trkpt>
      <trkpt lat="43.20405" lon="5.57525">
        <ele>262</ele>
        <time>2013-02-15T10:48:38Z</time>
      </trkpt>
      <trkpt lat="43.20405" lon="5.57524">
        <ele>263</ele>
        <time>2013-02-15T10:48:43Z</time>
      </trkpt>
      <trkpt lat="43.20405" lon="5.57524">
        <ele>263</ele>
        <time>2013-02-15T10:48:48Z</time>
      </trkpt>
      <trkpt lat="43.20404" lon="5.57524">
        <ele>263</ele>
        <time>2013-02-15T10:48:53Z</time>
      </trkpt>
      <trkpt lat="43.20403" lon="5.57525">
        <ele>264</ele>
        <time>2013-02-15T10:48:58Z</time>
      </trkpt>
      <trkpt lat="43.20403" lon="5.57526">
        <ele>264</ele>
        <time>2013-02-15T10:49:03Z</time>
      </trkpt>
      <trkpt lat="43.20404" lon="5.57526">
        <ele>264</ele>
        <time>2013-02-15T10:49:08Z</time>
      </trkpt>
      <trkpt lat="43.20404" lon="5.57526">
        <ele>264</ele>
        <time>2013-02-15T10:49:13Z</time>
      </trkpt>
      <trkpt lat="43.20404" lon="5.57526">
        <ele>265</ele>
        <time>2013-02-15T10:49:18Z</time>
      </trkpt>
      <trkpt lat="43.20404" lon="5.57526">
        <ele>265</ele>
        <time>2013-02-15T10:49:23Z</time>
      </trkpt>
      <trkpt lat="43.20404" lon="5.57528">
        <ele>265</ele>
        <time>2013-02-15T10:49:28Z</time>
      </trkpt>
      <trkpt lat="43.20404" lon="5.57528">
        <ele>265</ele>
        <time>2013-02-15T10:49:33Z</time>
      </trkpt>
      <trkpt lat="43.20405" lon="5.57528">
        <ele>265</ele>
        <time>2013-02-15T10:49:38Z</time>
      </trkpt>
      <trkpt lat="43.20404" lon="5.57528">
        <ele>265</ele>
        <time>2013-02-15T10:49:43Z</time>
      </trkpt>
      <trkpt lat="43.20404" lon="5.57527">
        <ele>265</ele>
        <time>2013-02-15T10:49:48Z</time>
      </trkpt>
      <trkpt lat="43.20405" lon="5.57526">
        <ele>266</ele>
        <time>2013-02-15T10:49:53Z</time>
      </trkpt>
      <trkpt lat="43.20406" lon="5.57527">
        <ele>266</ele>
        <time>2013-02-15T10:49:58Z</time>
      </trkpt>
      <trkpt lat="43.20405" lon="5.57526">
        <ele>266</ele>
        <time>2013-02-15T10:50:03Z</time>
      </trkpt>
      <trkpt lat="43.20405" lon="5.57526">
        <ele>266</ele>
        <time>2013-02-15T10:50:08Z</time>
      </trkpt>
      <trkpt lat="43.20404" lon="5.57526">
        <ele>266</ele>
        <time>2013-02-15T10:50:13Z</time>
      </trkpt>
      <trkpt lat="43.20403" lon="5.57525">
        <ele>266</ele>
        <time>2013-02-15T10:50:18Z</time>
      </trkpt>
      <trkpt lat="43.20404" lon="5.57525">
        <ele>266</ele>
        <time>2013-02-15T10:50:23Z</time>
      </trkpt>
      <trkpt lat="43.20405" lon="5.57524">
        <ele>267</ele>
        <time>2013-02-15T10:50:28Z</time>
      </trkpt>
      <trkpt lat="43.20404" lon="5.57525">
        <ele>267</ele>
        <time>2013-02-15T10:50:33Z</time>
      </trkpt>
      <trkpt lat="43.20403" lon="5.57527">
        <ele>267</ele>
        <time>2013-02-15T10:50:38Z</time>
      </trkpt>
      <trkpt lat="43.20403" lon="5.57526">
        <ele>267</ele>
        <time>2013-02-15T10:50:43Z</time>
      </trkpt>
      <trkpt lat="43.20403" lon="5.57526">
        <ele>267</ele>
        <time>2013-02-15T10:50:48Z</time>
      </trkpt>
      <trkpt lat="43.20404" lon="5.57526">
        <ele>267</ele>
        <time>2013-02-15T10:50:53Z</time>
      </trkpt>
      <trkpt lat="43.20406" lon="5.57525">
        <ele>268</ele>
        <time>2013-02-15T10:50:58Z</time>
      </trkpt>
      <trkpt lat="43.20405" lon="5.57524">
        <ele>268</ele>
        <time>2013-02-15T10:51:03Z</time>
      </trkpt>
      <trkpt lat="43.20407" lon="5.57518">
        <ele>269</ele>
        <time>2013-02-15T10:51:08Z</time>
      </trkpt>
      <trkpt lat="43.2041" lon="5.57513">
        <ele>269</ele>
        <time>2013-02-15T10:51:13Z</time>
      </trkpt>
      <trkpt lat="43.20413" lon="5.57508">
        <ele>269</ele>
        <time>2013-02-15T10:51:18Z</time>
      </trkpt>
      <trkpt lat="43.20416" lon="5.57501">
        <ele>269</ele>
        <time>2013-02-15T10:51:23Z</time>
      </trkpt>
      <trkpt lat="43.20419" lon="5.57495">
        <ele>270</ele>
        <time>2013-02-15T10:51:28Z</time>
      </trkpt>
      <trkpt lat="43.20421" lon="5.57489">
        <ele>270</ele>
        <time>2013-02-15T10:51:33Z</time>
      </trkpt>
      <trkpt lat="43.20422" lon="5.5748">
        <ele>271</ele>
        <time>2013-02-15T10:51:38Z</time>
      </trkpt>
      <trkpt lat="43.20424" lon="5.57473">
        <ele>271</ele>
        <time>2013-02-15T10:51:43Z</time>
      </trkpt>
      <trkpt lat="43.20424" lon="5.57465">
        <ele>271</ele>
        <time>2013-02-15T10:51:48Z</time>
      </trkpt>
      <trkpt lat="43.20424" lon="5.57457">
        <ele>272</ele>
        <time>2013-02-15T10:51:53Z</time>
      </trkpt>
      <trkpt lat="43.20422" lon="5.57449">
        <ele>272</ele>
        <time>2013-02-15T10:51:58Z</time>
      </trkpt>
      <trkpt lat="43.2042" lon="5.5744">
        <ele>273</ele>
        <time>2013-02-15T10:52:03Z</time>
      </trkpt>
      <trkpt lat="43.20418" lon="5.5743">
        <ele>273</ele>
        <time>2013-02-15T10:52:08Z</time>
      </trkpt>
      <trkpt lat="43.20418" lon="5.57422">
        <ele>273</ele>
        <time>2013-02-15T10:52:13Z</time>
      </trkpt>
      <trkpt lat="43.20416" lon="5.57415">
        <ele>273</ele>
        <time>2013-02-15T10:52:18Z</time>
      </trkpt>
      <trkpt lat="43.20415" lon="5.57408">
        <ele>273</ele>
        <time>2013-02-15T10:52:23Z</time>
      </trkpt>
      <trkpt lat="43.20414" lon="5.57401">
        <ele>274</ele>
        <time>2013-02-15T10:52:28Z</time>
      </trkpt>
      <trkpt lat="43.20413" lon="5.57393">
        <ele>274</ele>
        <time>2013-02-15T10:52:33Z</time>
      </trkpt>
      <trkpt lat="43.20412" lon="5.57385">
        <ele>274</ele>
        <time>2013-02-15T10:52:38Z</time>
      </trkpt>
      <trkpt lat="43.20411" lon="5.57378">
        <ele>274</ele>
        <time>2013-02-15T10:52:43Z</time>
      </trkpt>
      <trkpt lat="43.2041" lon="5.57369">
        <ele>274</ele>
        <time>2013-02-15T10:52:48Z</time>
      </trkpt>
      <trkpt lat="43.2041" lon="5.57362">
        <ele>273</ele>
        <time>2013-02-15T10:52:53Z</time>
      </trkpt>
      <trkpt lat="43.20408" lon="5.57355">
        <ele>273</ele>
        <time>2013-02-15T10:52:58Z</time>
      </trkpt>
      <trkpt lat="43.20406" lon="5.57348">
        <ele>273</ele>
        <time>2013-02-15T10:53:03Z</time>
      </trkpt>
      <trkpt lat="43.20404" lon="5.57339">
        <ele>273</ele>
        <time>2013-02-15T10:53:08Z</time>
      </trkpt>
      <trkpt lat="43.20403" lon="5.5733">
        <ele>273</ele>
        <time>2013-02-15T10:53:13Z</time>
      </trkpt>
      <trkpt lat="43.204" lon="5.57323">
        <ele>273</ele>
        <time>2013-02-15T10:53:18Z</time>
      </trkpt>
      <trkpt lat="43.20397" lon="5.57315">
        <ele>274</ele>
        <time>2013-02-15T10:53:23Z</time>
      </trkpt>
      <trkpt lat="43.20396" lon="5.57308">
        <ele>274</ele>
        <time>2013-02-15T10:53:28Z</time>
      </trkpt>
      <trkpt lat="43.20394" lon="5.57299">
        <ele>274</ele>
        <time>2013-02-15T10:53:33Z</time>
      </trkpt>
      <trkpt lat="43.20391" lon="5.57291">
        <ele>275</ele>
        <time>2013-02-15T10:53:38Z</time>
      </trkpt>
      <trkpt lat="43.2039" lon="5.57284">
        <ele>276</ele>
        <time>2013-02-15T10:53:43Z</time>
      </trkpt>
      <trkpt lat="43.20388" lon="5.57277">
        <ele>276</ele>
        <time>2013-02-15T10:53:48Z</time>
      </trkpt>
      <trkpt lat="43.20387" lon="5.57274">
        <ele>275</ele>
        <time>2013-02-15T10:53:53Z</time>
      </trkpt>
      <trkpt lat="43.20385" lon="5.5727">
        <ele>275</ele>
        <time>2013-02-15T10:53:58Z</time>
      </trkpt>
      <trkpt lat="43.20383" lon="5.57262">
        <ele>275</ele>
        <time>2013-02-15T10:54:03Z</time>
      </trkpt>
      <trkpt lat="43.20383" lon="5.57252">
        <ele>275</ele>
        <time>2013-02-15T10:54:08Z</time>
      </trkpt>
      <trkpt lat="43.20383" lon="5.57246">
        <ele>275</ele>
        <time>2013-02-15T10:54:13Z</time>
      </trkpt>
      <trkpt lat="43.20381" lon="5.57238">
        <ele>275</ele>
        <time>2013-02-15T10:54:18Z</time>
      </trkpt>
      <trkpt lat="43.2038" lon="5.57231">
        <ele>275</ele>
        <time>2013-02-15T10:54:23Z</time>
      </trkpt>
      <trkpt lat="43.20379" lon="5.57223">
        <ele>275</ele>
        <time>2013-02-15T10:54:28Z</time>
      </trkpt>
      <trkpt lat="43.20378" lon="5.57214">
        <ele>275</ele>
        <time>2013-02-15T10:54:33Z</time>
      </trkpt>
      <trkpt lat="43.20377" lon="5.57205">
        <ele>275</ele>
        <time>2013-02-15T10:54:38Z</time>
      </trkpt>
      <trkpt lat="43.20375" lon="5.57197">
        <ele>275</ele>
        <time>2013-02-15T10:54:43Z</time>
      </trkpt>
      <trkpt lat="43.20374" lon="5.57187">
        <ele>276</ele>
        <time>2013-02-15T10:54:48Z</time>
      </trkpt>
      <trkpt lat="43.20373" lon="5.5718">
        <ele>276</ele>
        <time>2013-02-15T10:54:53Z</time>
      </trkpt>
      <trkpt lat="43.20371" lon="5.57171">
        <ele>276</ele>
        <time>2013-02-15T10:54:58Z</time>
      </trkpt>
      <trkpt lat="43.2037" lon="5.57164">
        <ele>276</ele>
        <time>2013-02-15T10:55:03Z</time>
      </trkpt>
      <trkpt lat="43.20368" lon="5.57156">
        <ele>276</ele>
        <time>2013-02-15T10:55:08Z</time>
      </trkpt>
      <trkpt lat="43.20366" lon="5.5715">
        <ele>277</ele>
        <time>2013-02-15T10:55:13Z</time>
      </trkpt>
      <trkpt lat="43.20364" lon="5.57142">
        <ele>277</ele>
        <time>2013-02-15T10:55:18Z</time>
      </trkpt>
      <trkpt lat="43.2036" lon="5.57135">
        <ele>278</ele>
        <time>2013-02-15T10:55:23Z</time>
      </trkpt>
      <trkpt lat="43.20357" lon="5.57127">
        <ele>278</ele>
        <time>2013-02-15T10:55:28Z</time>
      </trkpt>
      <trkpt lat="43.20354" lon="5.57122">
        <ele>279</ele>
        <time>2013-02-15T10:55:33Z</time>
      </trkpt>
      <trkpt lat="43.20349" lon="5.57117">
        <ele>280</ele>
        <time>2013-02-15T10:55:38Z</time>
      </trkpt>
      <trkpt lat="43.20345" lon="5.57112">
        <ele>281</ele>
        <time>2013-02-15T10:55:43Z</time>
      </trkpt>
      <trkpt lat="43.20339" lon="5.57107">
        <ele>282</ele>
        <time>2013-02-15T10:55:48Z</time>
      </trkpt>
      <trkpt lat="43.20334" lon="5.57102">
        <ele>283</ele>
        <time>2013-02-15T10:55:53Z</time>
      </trkpt>
      <trkpt lat="43.2033" lon="5.57097">
        <ele>283</ele>
        <time>2013-02-15T10:55:58Z</time>
      </trkpt>
      <trkpt lat="43.20327" lon="5.5709">
        <ele>284</ele>
        <time>2013-02-15T10:56:03Z</time>
      </trkpt>
      <trkpt lat="43.20325" lon="5.57084">
        <ele>284</ele>
        <time>2013-02-15T10:56:08Z</time>
      </trkpt>
      <trkpt lat="43.20321" lon="5.57077">
        <ele>285</ele>
        <time>2013-02-15T10:56:13Z</time>
      </trkpt>
      <trkpt lat="43.2032" lon="5.5707">
        <ele>285</ele>
        <time>2013-02-15T10:56:18Z</time>
      </trkpt>
      <trkpt lat="43.20319" lon="5.57063">
        <ele>285</ele>
        <time>2013-02-15T10:56:23Z</time>
      </trkpt>
      <trkpt lat="43.2032" lon="5.57055">
        <ele>286</ele>
        <time>2013-02-15T10:56:28Z</time>
      </trkpt>
      <trkpt lat="43.20321" lon="5.57046">
        <ele>286</ele>
        <time>2013-02-15T10:56:33Z</time>
      </trkpt>
      <trkpt lat="43.20321" lon="5.57037">
        <ele>286</ele>
        <time>2013-02-15T10:56:38Z</time>
      </trkpt>
      <trkpt lat="43.20322" lon="5.57029">
        <ele>285</ele>
        <time>2013-02-15T10:56:43Z</time>
      </trkpt>
      <trkpt lat="43.20324" lon="5.57022">
        <ele>285</ele>
        <time>2013-02-15T10:56:48Z</time>
      </trkpt>
      <trkpt lat="43.20325" lon="5.57014">
        <ele>285</ele>
        <time>2013-02-15T10:56:53Z</time>
      </trkpt>
      <trkpt lat="43.20327" lon="5.57006">
        <ele>285</ele>
        <time>2013-02-15T10:56:58Z</time>
      </trkpt>
      <trkpt lat="43.2033" lon="5.57001">
        <ele>286</ele>
        <time>2013-02-15T10:57:03Z</time>
      </trkpt>
      <trkpt lat="43.20333" lon="5.56993">
        <ele>286</ele>
        <time>2013-02-15T10:57:08Z</time>
      </trkpt>
      <trkpt lat="43.20336" lon="5.56985">
        <ele>287</ele>
        <time>2013-02-15T10:57:13Z</time>
      </trkpt>
      <trkpt lat="43.20338" lon="5.56977">
        <ele>287</ele>
        <time>2013-02-15T10:57:18Z</time>
      </trkpt>
      <trkpt lat="43.20338" lon="5.56969">
        <ele>287</ele>
        <time>2013-02-15T10:57:23Z</time>
      </trkpt>
      <trkpt lat="43.20339" lon="5.56963">
        <ele>287</ele>
        <time>2013-02-15T10:57:28Z</time>
      </trkpt>
      <trkpt lat="43.20339" lon="5.56956">
        <ele>287</ele>
        <time>2013-02-15T10:57:33Z</time>
      </trkpt>
      <trkpt lat="43.20338" lon="5.56953">
        <ele>287</ele>
        <time>2013-02-15T10:57:38Z</time>
      </trkpt>
      <trkpt lat="43.20338" lon="5.56951">
        <ele>287</ele>
        <time>2013-02-15T10:57:43Z</time>
      </trkpt>
      <trkpt lat="43.20339" lon="5.56948">
        <ele>287</ele>
        <time>2013-02-15T10:57:48Z</time>
      </trkpt>
      <trkpt lat="43.20338" lon="5.56946">
        <ele>287</ele>
        <time>2013-02-15T10:57:53Z</time>
      </trkpt>
      <trkpt lat="43.20336" lon="5.5694">
        <ele>288</ele>
        <time>2013-02-15T10:57:58Z</time>
      </trkpt>
      <trkpt lat="43.20336" lon="5.5694">
        <ele>288</ele>
        <time>2013-02-15T10:58:03Z</time>
      </trkpt>
      <trkpt lat="43.20336" lon="5.5694">
        <ele>288</ele>
        <time>2013-02-15T10:58:08Z</time>
      </trkpt>
      <trkpt lat="43.20336" lon="5.56941">
        <ele>288</ele>
        <time>2013-02-15T10:58:13Z</time>
      </trkpt>
      <trkpt lat="43.20332" lon="5.56939">
        <ele>288</ele>
        <time>2013-02-15T10:58:18Z</time>
      </trkpt>
      <trkpt lat="43.20327" lon="5.56934">
        <ele>288</ele>
        <time>2013-02-15T10:58:23Z</time>
      </trkpt>
      <trkpt lat="43.20321" lon="5.56931">
        <ele>289</ele>
        <time>2013-02-15T10:58:28Z</time>
      </trkpt>
      <trkpt lat="43.20315" lon="5.56929">
        <ele>288</ele>
        <time>2013-02-15T10:58:33Z</time>
      </trkpt>
      <trkpt lat="43.20308" lon="5.56926">
        <ele>288</ele>
        <time>2013-02-15T10:58:38Z</time>
      </trkpt>
      <trkpt lat="43.20302" lon="5.56922">
        <ele>288</ele>
        <time>2013-02-15T10:58:43Z</time>
      </trkpt>
      <trkpt lat="43.20298" lon="5.56919">
        <ele>289</ele>
        <time>2013-02-15T10:58:48Z</time>
      </trkpt>
      <trkpt lat="43.20293" lon="5.56915">
        <ele>289</ele>
        <time>2013-02-15T10:58:53Z</time>
      </trkpt>
      <trkpt lat="43.2029" lon="5.56911">
        <ele>288</ele>
        <time>2013-02-15T10:58:58Z</time>
      </trkpt>
      <trkpt lat="43.20286" lon="5.56906">
        <ele>289</ele>
        <time>2013-02-15T10:59:03Z</time>
      </trkpt>
      <trkpt lat="43.2028" lon="5.56902">
        <ele>289</ele>
        <time>2013-02-15T10:59:08Z</time>
      </trkpt>
      <trkpt lat="43.20278" lon="5.56898">
        <ele>289</ele>
        <time>2013-02-15T10:59:13Z</time>
      </trkpt>
      <trkpt lat="43.20274" lon="5.56893">
        <ele>290</ele>
        <time>2013-02-15T10:59:18Z</time>
      </trkpt>
      <trkpt lat="43.2027" lon="5.56884">
        <ele>290</ele>
        <time>2013-02-15T10:59:23Z</time>
      </trkpt>
      <trkpt lat="43.20267" lon="5.56877">
        <ele>290</ele>
        <time>2013-02-15T10:59:28Z</time>
      </trkpt>
      <trkpt lat="43.20263" lon="5.5687">
        <ele>290</ele>
        <time>2013-02-15T10:59:33Z</time>
      </trkpt>
      <trkpt lat="43.20262" lon="5.56864">
        <ele>291</ele>
        <time>2013-02-15T10:59:38Z</time>
      </trkpt>
      <trkpt lat="43.20259" lon="5.56859">
        <ele>291</ele>
        <time>2013-02-15T10:59:43Z</time>
      </trkpt>
      <trkpt lat="43.20255" lon="5.56854">
        <ele>292</ele>
        <time>2013-02-15T10:59:48Z</time>
      </trkpt>
      <trkpt lat="43.20252" lon="5.56848">
        <ele>292</ele>
        <time>2013-02-15T10:59:53Z</time>
      </trkpt>
      <trkpt lat="43.20246" lon="5.56842">
        <ele>292</ele>
        <time>2013-02-15T10:59:58Z</time>
      </trkpt>
      <trkpt lat="43.20241" lon="5.56839">
        <ele>293</ele>
        <time>2013-02-15T11:00:03Z</time>
      </trkpt>
      <trkpt lat="43.20235" lon="5.56838">
        <ele>293</ele>
        <time>2013-02-15T11:00:08Z</time>
      </trkpt>
      <trkpt lat="43.20229" lon="5.56838">
        <ele>294</ele>
        <time>2013-02-15T11:00:13Z</time>
      </trkpt>
      <trkpt lat="43.20224" lon="5.5684">
        <ele>295</ele>
        <time>2013-02-15T11:00:18Z</time>
      </trkpt>
      <trkpt lat="43.20219" lon="5.56842">
        <ele>295</ele>
        <time>2013-02-15T11:00:23Z</time>
      </trkpt>
      <trkpt lat="43.20215" lon="5.56843">
        <ele>296</ele>
        <time>2013-02-15T11:00:28Z</time>
      </trkpt>
      <trkpt lat="43.20212" lon="5.56847">
        <ele>296</ele>
        <time>2013-02-15T11:00:33Z</time>
      </trkpt>
      <trkpt lat="43.20208" lon="5.5685">
        <ele>296</ele>
        <time>2013-02-15T11:00:38Z</time>
      </trkpt>
      <trkpt lat="43.20205" lon="5.56854">
        <ele>297</ele>
        <time>2013-02-15T11:00:43Z</time>
      </trkpt>
      <trkpt lat="43.20202" lon="5.56855">
        <ele>297</ele>
        <time>2013-02-15T11:00:48Z</time>
      </trkpt>
      <trkpt lat="43.20198" lon="5.56854">
        <ele>297</ele>
        <time>2013-02-15T11:00:53Z</time>
      </trkpt>
      <trkpt lat="43.20199" lon="5.56855">
        <ele>297</ele>
        <time>2013-02-15T11:00:58Z</time>
      </trkpt>
      <trkpt lat="43.20199" lon="5.56855">
        <ele>297</ele>
        <time>2013-02-15T11:01:03Z</time>
      </trkpt>
      <trkpt lat="43.20199" lon="5.56854">
        <ele>298</ele>
        <time>2013-02-15T11:01:08Z</time>
      </trkpt>
      <trkpt lat="43.20202" lon="5.56854">
        <ele>298</ele>
        <time>2013-02-15T11:01:13Z</time>
      </trkpt>
      <trkpt lat="43.20205" lon="5.56854">
        <ele>298</ele>
        <time>2013-02-15T11:01:18Z</time>
      </trkpt>
      <trkpt lat="43.20203" lon="5.56854">
        <ele>298</ele>
        <time>2013-02-15T11:01:23Z</time>
      </trkpt>
      <trkpt lat="43.20201" lon="5.56852">
        <ele>298</ele>
        <time>2013-02-15T11:01:28Z</time>
      </trkpt>
      <trkpt lat="43.202" lon="5.56849">
        <ele>299</ele>
        <time>2013-02-15T11:01:33Z</time>
      </trkpt>
      <trkpt lat="43.202" lon="5.56849">
        <ele>299</ele>
        <time>2013-02-15T11:01:38Z</time>
      </trkpt>
      <trkpt lat="43.20201" lon="5.5685">
        <ele>299</ele>
        <time>2013-02-15T11:01:43Z</time>
      </trkpt>
      <trkpt lat="43.202" lon="5.56851">
        <ele>299</ele>
        <time>2013-02-15T11:01:48Z</time>
      </trkpt>
      <trkpt lat="43.20199" lon="5.56852">
        <ele>299</ele>
        <time>2013-02-15T11:01:53Z</time>
      </trkpt>
      <trkpt lat="43.20199" lon="5.5685">
        <ele>299</ele>
        <time>2013-02-15T11:01:58Z</time>
      </trkpt>
      <trkpt lat="43.20199" lon="5.56849">
        <ele>299</ele>
        <time>2013-02-15T11:02:03Z</time>
      </trkpt>
      <trkpt lat="43.20199" lon="5.56851">
        <ele>299</ele>
        <time>2013-02-15T11:02:08Z</time>
      </trkpt>
      <trkpt lat="43.20198" lon="5.56852">
        <ele>300</ele>
        <time>2013-02-15T11:02:13Z</time>
      </trkpt>
      <trkpt lat="43.20198" lon="5.56853">
        <ele>300</ele>
        <time>2013-02-15T11:02:18Z</time>
      </trkpt>
      <trkpt lat="43.20197" lon="5.56853">
        <ele>300</ele>
        <time>2013-02-15T11:02:23Z</time>
      </trkpt>
      <trkpt lat="43.20198" lon="5.56856">
        <ele>300</ele>
        <time>2013-02-15T11:02:28Z</time>
      </trkpt>
      <trkpt lat="43.20198" lon="5.56856">
        <ele>301</ele>
        <time>2013-02-15T11:02:33Z</time>
      </trkpt>
      <trkpt lat="43.20198" lon="5.56856">
        <ele>301</ele>
        <time>2013-02-15T11:02:38Z</time>
      </trkpt>
      <trkpt lat="43.20198" lon="5.56856">
        <ele>301</ele>
        <time>2013-02-15T11:02:43Z</time>
      </trkpt>
      <trkpt lat="43.20197" lon="5.56855">
        <ele>301</ele>
        <time>2013-02-15T11:02:48Z</time>
      </trkpt>
      <trkpt lat="43.20198" lon="5.56854">
        <ele>301</ele>
        <time>2013-02-15T11:02:53Z</time>
      </trkpt>
      <trkpt lat="43.20198" lon="5.56854">
        <ele>301</ele>
        <time>2013-02-15T11:02:58Z</time>
      </trkpt>
      <trkpt lat="43.20197" lon="5.56854">
        <ele>301</ele>
        <time>2013-02-15T11:03:03Z</time>
      </trkpt>
      <trkpt lat="43.20196" lon="5.56856">
        <ele>301</ele>
        <time>2013-02-15T11:03:08Z</time>
      </trkpt>
      <trkpt lat="43.20197" lon="5.56856">
        <ele>301</ele>
        <time>2013-02-15T11:03:13Z</time>
      </trkpt>
      <trkpt lat="43.20198" lon="5.56856">
        <ele>301</ele>
        <time>2013-02-15T11:03:18Z</time>
      </trkpt>
      <trkpt lat="43.20196" lon="5.56857">
        <ele>301</ele>
        <time>2013-02-15T11:03:23Z</time>
      </trkpt>
      <trkpt lat="43.20195" lon="5.56858">
        <ele>301</ele>
        <time>2013-02-15T11:03:28Z</time>
      </trkpt>
      <trkpt lat="43.20194" lon="5.56861">
        <ele>301</ele>
        <time>2013-02-15T11:03:33Z</time>
      </trkpt>
      <trkpt lat="43.20194" lon="5.56863">
        <ele>301</ele>
        <time>2013-02-15T11:03:38Z</time>
      </trkpt>
      <trkpt lat="43.20192" lon="5.56869">
        <ele>301</ele>
        <time>2013-02-15T11:03:43Z</time>
      </trkpt>
      <trkpt lat="43.2019" lon="5.56874">
        <ele>301</ele>
        <time>2013-02-15T11:03:48Z</time>
      </trkpt>
      <trkpt lat="43.20189" lon="5.56875">
        <ele>301</ele>
        <time>2013-02-15T11:03:53Z</time>
      </trkpt>
      <trkpt lat="43.20189" lon="5.56874">
        <ele>301</ele>
        <time>2013-02-15T11:03:58Z</time>
      </trkpt>
      <trkpt lat="43.20187" lon="5.56878">
        <ele>301</ele>
        <time>2013-02-15T11:04:03Z</time>
      </trkpt>
      <trkpt lat="43.20186" lon="5.56881">
        <ele>300</ele>
        <time>2013-02-15T11:04:08Z</time>
      </trkpt>
      <trkpt lat="43.20184" lon="5.56884">
        <ele>300</ele>
        <time>2013-02-15T11:04:13Z</time>
      </trkpt>
      <trkpt lat="43.20181" lon="5.5689">
        <ele>300</ele>
        <time>2013-02-15T11:04:18Z</time>
      </trkpt>
      <trkpt lat="43.20179" lon="5.56894">
        <ele>300</ele>
        <time>2013-02-15T11:04:23Z</time>
      </trkpt>
      <trkpt lat="43.20178" lon="5.56899">
        <ele>299</ele>
        <time>2013-02-15T11:04:28Z</time>
      </trkpt>
      <trkpt lat="43.20175" lon="5.56907">
        <ele>299</ele>
        <time>2013-02-15T11:04:33Z</time>
      </trkpt>
      <trkpt lat="43.20174" lon="5.56912">
        <ele>299</ele>
        <time>2013-02-15T11:04:38Z</time>
      </trkpt>
      <trkpt lat="43.20173" lon="5.56916">
        <ele>299</ele>
        <time>2013-02-15T11:04:43Z</time>
      </trkpt>
      <trkpt lat="43.20172" lon="5.5692">
        <ele>299</ele>
        <time>2013-02-15T11:04:48Z</time>
      </trkpt>
      <trkpt lat="43.20171" lon="5.56927">
        <ele>298</ele>
        <time>2013-02-15T11:04:53Z</time>
      </trkpt>
      <trkpt lat="43.20169" lon="5.56934">
        <ele>298</ele>
        <time>2013-02-15T11:04:58Z</time>
      </trkpt>
      <trkpt lat="43.20166" lon="5.5694">
        <ele>298</ele>
        <time>2013-02-15T11:05:03Z</time>
      </trkpt>
      <trkpt lat="43.20164" lon="5.5695">
        <ele>297</ele>
        <time>2013-02-15T11:05:08Z</time>
      </trkpt>
      <trkpt lat="43.20162" lon="5.56957">
        <ele>297</ele>
        <time>2013-02-15T11:05:13Z</time>
      </trkpt>
      <trkpt lat="43.20161" lon="5.56964">
        <ele>297</ele>
        <time>2013-02-15T11:05:18Z</time>
      </trkpt>
      <trkpt lat="43.2016" lon="5.5697">
        <ele>297</ele>
        <time>2013-02-15T11:05:23Z</time>
      </trkpt>
      <trkpt lat="43.20157" lon="5.56979">
        <ele>296</ele>
        <time>2013-02-15T11:05:28Z</time>
      </trkpt>
      <trkpt lat="43.20155" lon="5.56989">
        <ele>296</ele>
        <time>2013-02-15T11:05:33Z</time>
      </trkpt>
      <trkpt lat="43.20153" lon="5.56997">
        <ele>295</ele>
        <time>2013-02-15T11:05:38Z</time>
      </trkpt>
      <trkpt lat="43.2015" lon="5.57004">
        <ele>295</ele>
        <time>2013-02-15T11:05:43Z</time>
      </trkpt>
      <trkpt lat="43.20147" lon="5.57011">
        <ele>294</ele>
        <time>2013-02-15T11:05:48Z</time>
      </trkpt>
      <trkpt lat="43.20144" lon="5.57019">
        <ele>294</ele>
        <time>2013-02-15T11:05:53Z</time>
      </trkpt>
      <trkpt lat="43.20142" lon="5.57026">
        <ele>294</ele>
        <time>2013-02-15T11:05:58Z</time>
      </trkpt>
      <trkpt lat="43.2014" lon="5.57032">
        <ele>293</ele>
        <time>2013-02-15T11:06:03Z</time>
      </trkpt>
      <trkpt lat="43.20136" lon="5.57039">
        <ele>293</ele>
        <time>2013-02-15T11:06:08Z</time>
      </trkpt>
      <trkpt lat="43.20132" lon="5.57045">
        <ele>292</ele>
        <time>2013-02-15T11:06:13Z</time>
      </trkpt>
      <trkpt lat="43.20127" lon="5.57049">
        <ele>291</ele>
        <time>2013-02-15T11:06:18Z</time>
      </trkpt>
      <trkpt lat="43.20121" lon="5.57054">
        <ele>290</ele>
        <time>2013-02-15T11:06:23Z</time>
      </trkpt>
      <trkpt lat="43.20115" lon="5.57061">
        <ele>289</ele>
        <time>2013-02-15T11:06:28Z</time>
      </trkpt>
      <trkpt lat="43.20111" lon="5.57066">
        <ele>288</ele>
        <time>2013-02-15T11:06:33Z</time>
      </trkpt>
      <trkpt lat="43.20107" lon="5.57073">
        <ele>287</ele>
        <time>2013-02-15T11:06:38Z</time>
      </trkpt>
      <trkpt lat="43.20104" lon="5.5708">
        <ele>287</ele>
        <time>2013-02-15T11:06:43Z</time>
      </trkpt>
      <trkpt lat="43.20103" lon="5.57085">
        <ele>286</ele>
        <time>2013-02-15T11:06:48Z</time>
      </trkpt>
      <trkpt lat="43.20099" lon="5.57094">
        <ele>287</ele>
        <time>2013-02-15T11:06:53Z</time>
      </trkpt>
      <trkpt lat="43.20096" lon="5.57101">
        <ele>287</ele>
        <time>2013-02-15T11:06:58Z</time>
      </trkpt>
      <trkpt lat="43.20093" lon="5.57106">
        <ele>287</ele>
        <time>2013-02-15T11:07:03Z</time>
      </trkpt>
      <trkpt lat="43.20088" lon="5.57112">
        <ele>288</ele>
        <time>2013-02-15T11:07:08Z</time>
      </trkpt>
      <trkpt lat="43.20084" lon="5.57117">
        <ele>288</ele>
        <time>2013-02-15T11:07:13Z</time>
      </trkpt>
      <trkpt lat="43.20078" lon="5.57123">
        <ele>288</ele>
        <time>2013-02-15T11:07:18Z</time>
      </trkpt>
      <trkpt lat="43.20074" lon="5.57129">
        <ele>288</ele>
        <time>2013-02-15T11:07:23Z</time>
      </trkpt>
      <trkpt lat="43.2007" lon="5.57134">
        <ele>288</ele>
        <time>2013-02-15T11:07:28Z</time>
      </trkpt>
      <trkpt lat="43.20065" lon="5.57141">
        <ele>288</ele>
        <time>2013-02-15T11:07:33Z</time>
      </trkpt>
      <trkpt lat="43.20061" lon="5.57147">
        <ele>289</ele>
        <time>2013-02-15T11:07:38Z</time>
      </trkpt>
      <trkpt lat="43.20055" lon="5.57153">
        <ele>289</ele>
        <time>2013-02-15T11:07:43Z</time>
      </trkpt>
      <trkpt lat="43.20049" lon="5.57155">
        <ele>289</ele>
        <time>2013-02-15T11:07:48Z</time>
      </trkpt>
      <trkpt lat="43.20042" lon="5.5716">
        <ele>289</ele>
        <time>2013-02-15T11:07:53Z</time>
      </trkpt>
      <trkpt lat="43.20037" lon="5.57162">
        <ele>289</ele>
        <time>2013-02-15T11:07:58Z</time>
      </trkpt>
      <trkpt lat="43.20032" lon="5.57165">
        <ele>289</ele>
        <time>2013-02-15T11:08:03Z</time>
      </trkpt>
      <trkpt lat="43.20028" lon="5.57169">
        <ele>289</ele>
        <time>2013-02-15T11:08:08Z</time>
      </trkpt>
      <trkpt lat="43.20023" lon="5.57171">
        <ele>290</ele>
        <time>2013-02-15T11:08:13Z</time>
      </trkpt>
      <trkpt lat="43.20016" lon="5.57174">
        <ele>290</ele>
        <time>2013-02-15T11:08:18Z</time>
      </trkpt>
      <trkpt lat="43.20011" lon="5.57176">
        <ele>290</ele>
        <time>2013-02-15T11:08:23Z</time>
      </trkpt>
      <trkpt lat="43.20008" lon="5.57178">
        <ele>289</ele>
        <time>2013-02-15T11:08:28Z</time>
      </trkpt>
      <trkpt lat="43.20003" lon="5.57181">
        <ele>289</ele>
        <time>2013-02-15T11:08:33Z</time>
      </trkpt>
      <trkpt lat="43.19996" lon="5.57185">
        <ele>288</ele>
        <time>2013-02-15T11:08:38Z</time>
      </trkpt>
      <trkpt lat="43.19991" lon="5.57188">
        <ele>287</ele>
        <time>2013-02-15T11:08:43Z</time>
      </trkpt>
      <trkpt lat="43.19985" lon="5.57192">
        <ele>287</ele>
        <time>2013-02-15T11:08:48Z</time>
      </trkpt>
      <trkpt lat="43.1998" lon="5.57197">
        <ele>286</ele>
        <time>2013-02-15T11:08:53Z</time>
      </trkpt>
      <trkpt lat="43.19977" lon="5.572">
        <ele>285</ele>
        <time>2013-02-15T11:08:58Z</time>
      </trkpt>
      <trkpt lat="43.19971" lon="5.57206">
        <ele>285</ele>
        <time>2013-02-15T11:09:03Z</time>
      </trkpt>
      <trkpt lat="43.19966" lon="5.57213">
        <ele>284</ele>
        <time>2013-02-15T11:09:08Z</time>
      </trkpt>
      <trkpt lat="43.19962" lon="5.57219">
        <ele>283</ele>
        <time>2013-02-15T11:09:13Z</time>
      </trkpt>
      <trkpt lat="43.19958" lon="5.57226">
        <ele>282</ele>
        <time>2013-02-15T11:09:18Z</time>
      </trkpt>
      <trkpt lat="43.19955" lon="5.57231">
        <ele>281</ele>
        <time>2013-02-15T11:09:23Z</time>
      </trkpt>
      <trkpt lat="43.19952" lon="5.57236">
        <ele>280</ele>
        <time>2013-02-15T11:09:28Z</time>
      </trkpt>
      <trkpt lat="43.19949" lon="5.57242">
        <ele>279</ele>
        <time>2013-02-15T11:09:33Z</time>
      </trkpt>
      <trkpt lat="43.19946" lon="5.57249">
        <ele>277</ele>
        <time>2013-02-15T11:09:38Z</time>
      </trkpt>
      <trkpt lat="43.19941" lon="5.57257">
        <ele>277</ele>
        <time>2013-02-15T11:09:43Z</time>
      </trkpt>
      <trkpt lat="43.19936" lon="5.57262">
        <ele>276</ele>
        <time>2013-02-15T11:09:48Z</time>
      </trkpt>
      <trkpt lat="43.19931" lon="5.57268">
        <ele>276</ele>
        <time>2013-02-15T11:09:53Z</time>
      </trkpt>
      <trkpt lat="43.19925" lon="5.57272">
        <ele>275</ele>
        <time>2013-02-15T11:09:58Z</time>
      </trkpt>
      <trkpt lat="43.1992" lon="5.57277">
        <ele>274</ele>
        <time>2013-02-15T11:10:03Z</time>
      </trkpt>
      <trkpt lat="43.19916" lon="5.57282">
        <ele>273</ele>
        <time>2013-02-15T11:10:08Z</time>
      </trkpt>
      <trkpt lat="43.19911" lon="5.57288">
        <ele>272</ele>
        <time>2013-02-15T11:10:13Z</time>
      </trkpt>
      <trkpt lat="43.19907" lon="5.57294">
        <ele>271</ele>
        <time>2013-02-15T11:10:18Z</time>
      </trkpt>
      <trkpt lat="43.19903" lon="5.57301">
        <ele>271</ele>
        <time>2013-02-15T11:10:23Z</time>
      </trkpt>
      <trkpt lat="43.19896" lon="5.57308">
        <ele>271</ele>
        <time>2013-02-15T11:10:28Z</time>
      </trkpt>
      <trkpt lat="43.19892" lon="5.57314">
        <ele>271</ele>
        <time>2013-02-15T11:10:33Z</time>
      </trkpt>
      <trkpt lat="43.19885" lon="5.57316">
        <ele>271</ele>
        <time>2013-02-15T11:10:38Z</time>
      </trkpt>
      <trkpt lat="43.19879" lon="5.57318">
        <ele>270</ele>
        <time>2013-02-15T11:10:43Z</time>
      </trkpt>
      <trkpt lat="43.19874" lon="5.5732">
        <ele>270</ele>
        <time>2013-02-15T11:10:48Z</time>
      </trkpt>
      <trkpt lat="43.19868" lon="5.57324">
        <ele>269</ele>
        <time>2013-02-15T11:10:53Z</time>
      </trkpt>
      <trkpt lat="43.19861" lon="5.57328">
        <ele>269</ele>
        <time>2013-02-15T11:10:58Z</time>
      </trkpt>
      <trkpt lat="43.19857" lon="5.57331">
        <ele>269</ele>
        <time>2013-02-15T11:11:03Z</time>
      </trkpt>
      <trkpt lat="43.19851" lon="5.57335">
        <ele>269</ele>
        <time>2013-02-15T11:11:08Z</time>
      </trkpt>
      <trkpt lat="43.19845" lon="5.5734">
        <ele>268</ele>
        <time>2013-02-15T11:11:13Z</time>
      </trkpt>
      <trkpt lat="43.19839" lon="5.57344">
        <ele>267</ele>
        <time>2013-02-15T11:11:18Z</time>
      </trkpt>
      <trkpt lat="43.19833" lon="5.57348">
        <ele>266</ele>
        <time>2013-02-15T11:11:23Z</time>
      </trkpt>
      <trkpt lat="43.19828" lon="5.57354">
        <ele>266</ele>
        <time>2013-02-15T11:11:28Z</time>
      </trkpt>
      <trkpt lat="43.19824" lon="5.57356">
        <ele>265</ele>
        <time>2013-02-15T11:11:33Z</time>
      </trkpt>
      <trkpt lat="43.19819" lon="5.57363">
        <ele>264</ele>
        <time>2013-02-15T11:11:38Z</time>
      </trkpt>
      <trkpt lat="43.19814" lon="5.57369">
        <ele>264</ele>
        <time>2013-02-15T11:11:43Z</time>
      </trkpt>
      <trkpt lat="43.1981" lon="5.57375">
        <ele>263</ele>
        <time>2013-02-15T11:11:48Z</time>
      </trkpt>
      <trkpt lat="43.19806" lon="5.5738">
        <ele>262</ele>
        <time>2013-02-15T11:11:53Z</time>
      </trkpt>
      <trkpt lat="43.19802" lon="5.57385">
        <ele>262</ele>
        <time>2013-02-15T11:11:58Z</time>
      </trkpt>
      <trkpt lat="43.19797" lon="5.5739">
        <ele>261</ele>
        <time>2013-02-15T11:12:04Z</time>
      </trkpt>
      <trkpt lat="43.19794" lon="5.57392">
        <ele>260</ele>
        <time>2013-02-15T11:12:09Z</time>
      </trkpt>
      <trkpt lat="43.1979" lon="5.57397">
        <ele>259</ele>
        <time>2013-02-15T11:12:14Z</time>
      </trkpt>
      <trkpt lat="43.19784" lon="5.57404">
        <ele>257</ele>
        <time>2013-02-15T11:12:19Z</time>
      </trkpt>
      <trkpt lat="43.1978" lon="5.57409">
        <ele>256</ele>
        <time>2013-02-15T11:12:24Z</time>
      </trkpt>
      <trkpt lat="43.19776" lon="5.57416">
        <ele>255</ele>
        <time>2013-02-15T11:12:29Z</time>
      </trkpt>
      <trkpt lat="43.1977" lon="5.57423">
        <ele>254</ele>
        <time>2013-02-15T11:12:34Z</time>
      </trkpt>
      <trkpt lat="43.19765" lon="5.5743">
        <ele>253</ele>
        <time>2013-02-15T11:12:39Z</time>
      </trkpt>
      <trkpt lat="43.19759" lon="5.57438">
        <ele>252</ele>
        <time>2013-02-15T11:12:44Z</time>
      </trkpt>
      <trkpt lat="43.19756" lon="5.57445">
        <ele>252</ele>
        <time>2013-02-15T11:12:49Z</time>
      </trkpt>
      <trkpt lat="43.19753" lon="5.57451">
        <ele>252</ele>
        <time>2013-02-15T11:12:54Z</time>
      </trkpt>
      <trkpt lat="43.19748" lon="5.57459">
        <ele>251</ele>
        <time>2013-02-15T11:12:59Z</time>
      </trkpt>
      <trkpt lat="43.19744" lon="5.57467">
        <ele>252</ele>
        <time>2013-02-15T11:13:04Z</time>
      </trkpt>
      <trkpt lat="43.1974" lon="5.57474">
        <ele>251</ele>
        <time>2013-02-15T11:13:09Z</time>
      </trkpt>
      <trkpt lat="43.19737" lon="5.57478">
        <ele>251</ele>
        <time>2013-02-15T11:13:14Z</time>
      </trkpt>
      <trkpt lat="43.19732" lon="5.57483">
        <ele>251</ele>
        <time>2013-02-15T11:13:19Z</time>
      </trkpt>
      <trkpt lat="43.19728" lon="5.57488">
        <ele>251</ele>
        <time>2013-02-15T11:13:24Z</time>
      </trkpt>
      <trkpt lat="43.19725" lon="5.57495">
        <ele>250</ele>
        <time>2013-02-15T11:13:29Z</time>
      </trkpt>
      <trkpt lat="43.1972" lon="5.57501">
        <ele>250</ele>
        <time>2013-02-15T11:13:34Z</time>
      </trkpt>
      <trkpt lat="43.19717" lon="5.57507">
        <ele>249</ele>
        <time>2013-02-15T11:13:39Z</time>
      </trkpt>
      <trkpt lat="43.19714" lon="5.57516">
        <ele>249</ele>
        <time>2013-02-15T11:13:44Z</time>
      </trkpt>
      <trkpt lat="43.19711" lon="5.57522">
        <ele>248</ele>
        <time>2013-02-15T11:13:49Z</time>
      </trkpt>
      <trkpt lat="43.19707" lon="5.57532">
        <ele>248</ele>
        <time>2013-02-15T11:13:54Z</time>
      </trkpt>
      <trkpt lat="43.19704" lon="5.57538">
        <ele>247</ele>
        <time>2013-02-15T11:13:59Z</time>
      </trkpt>
      <trkpt lat="43.19701" lon="5.57543">
        <ele>247</ele>
        <time>2013-02-15T11:14:04Z</time>
      </trkpt>
      <trkpt lat="43.19697" lon="5.57551">
        <ele>246</ele>
        <time>2013-02-15T11:14:09Z</time>
      </trkpt>
      <trkpt lat="43.19694" lon="5.57557">
        <ele>246</ele>
        <time>2013-02-15T11:14:14Z</time>
      </trkpt>
      <trkpt lat="43.19692" lon="5.57563">
        <ele>246</ele>
        <time>2013-02-15T11:14:19Z</time>
      </trkpt>
      <trkpt lat="43.19687" lon="5.57569">
        <ele>245</ele>
        <time>2013-02-15T11:14:24Z</time>
      </trkpt>
      <trkpt lat="43.19683" lon="5.57576">
        <ele>245</ele>
        <time>2013-02-15T11:14:29Z</time>
      </trkpt>
      <trkpt lat="43.19678" lon="5.57582">
        <ele>244</ele>
        <time>2013-02-15T11:14:34Z</time>
      </trkpt>
      <trkpt lat="43.19674" lon="5.57588">
        <ele>244</ele>
        <time>2013-02-15T11:14:39Z</time>
      </trkpt>
      <trkpt lat="43.19671" lon="5.57596">
        <ele>243</ele>
        <time>2013-02-15T11:14:44Z</time>
      </trkpt>
      <trkpt lat="43.19668" lon="5.57604">
        <ele>243</ele>
        <time>2013-02-15T11:14:49Z</time>
      </trkpt>
      <trkpt lat="43.19664" lon="5.5761">
        <ele>243</ele>
        <time>2013-02-15T11:14:54Z</time>
      </trkpt>
      <trkpt lat="43.19658" lon="5.57618">
        <ele>242</ele>
        <time>2013-02-15T11:14:59Z</time>
      </trkpt>
      <trkpt lat="43.19653" lon="5.57623">
        <ele>242</ele>
        <time>2013-02-15T11:15:04Z</time>
      </trkpt>
      <trkpt lat="43.19648" lon="5.57628">
        <ele>241</ele>
        <time>2013-02-15T11:15:09Z</time>
      </trkpt>
      <trkpt lat="43.19642" lon="5.57632">
        <ele>241</ele>
        <time>2013-02-15T11:15:14Z</time>
      </trkpt>
      <trkpt lat="43.19637" lon="5.57639">
        <ele>240</ele>
        <time>2013-02-15T11:15:19Z</time>
      </trkpt>
      <trkpt lat="43.19634" lon="5.57644">
        <ele>240</ele>
        <time>2013-02-15T11:15:24Z</time>
      </trkpt>
      <trkpt lat="43.19632" lon="5.57648">
        <ele>240</ele>
        <time>2013-02-15T11:15:29Z</time>
      </trkpt>
      <trkpt lat="43.19629" lon="5.57655">
        <ele>239</ele>
        <time>2013-02-15T11:15:34Z</time>
      </trkpt>
      <trkpt lat="43.19626" lon="5.57662">
        <ele>239</ele>
        <time>2013-02-15T11:15:39Z</time>
      </trkpt>
      <trkpt lat="43.19626" lon="5.5767">
        <ele>238</ele>
        <time>2013-02-15T11:15:44Z</time>
      </trkpt>
      <trkpt lat="43.19624" lon="5.57676">
        <ele>237</ele>
        <time>2013-02-15T11:15:49Z</time>
      </trkpt>
      <trkpt lat="43.19622" lon="5.57683">
        <ele>237</ele>
        <time>2013-02-15T11:15:54Z</time>
      </trkpt>
      <trkpt lat="43.19621" lon="5.57693">
        <ele>236</ele>
        <time>2013-02-15T11:15:59Z</time>
      </trkpt>
      <trkpt lat="43.19618" lon="5.57702">
        <ele>236</ele>
        <time>2013-02-15T11:16:04Z</time>
      </trkpt>
      <trkpt lat="43.19616" lon="5.5771">
        <ele>235</ele>
        <time>2013-02-15T11:16:09Z</time>
      </trkpt>
      <trkpt lat="43.19614" lon="5.57716">
        <ele>235</ele>
        <time>2013-02-15T11:16:14Z</time>
      </trkpt>
      <trkpt lat="43.19611" lon="5.57725">
        <ele>235</ele>
        <time>2013-02-15T11:16:19Z</time>
      </trkpt>
      <trkpt lat="43.1961" lon="5.57733">
        <ele>234</ele>
        <time>2013-02-15T11:16:24Z</time>
      </trkpt>
      <trkpt lat="43.19609" lon="5.5774">
        <ele>234</ele>
        <time>2013-02-15T11:16:29Z</time>
      </trkpt>
      <trkpt lat="43.19606" lon="5.57746">
        <ele>233</ele>
        <time>2013-02-15T11:16:34Z</time>
      </trkpt>
      <trkpt lat="43.19604" lon="5.57752">
        <ele>232</ele>
        <time>2013-02-15T11:16:39Z</time>
      </trkpt>
      <trkpt lat="43.19603" lon="5.57757">
        <ele>231</ele>
        <time>2013-02-15T11:16:44Z</time>
      </trkpt>
      <trkpt lat="43.19601" lon="5.57765">
        <ele>230</ele>
        <time>2013-02-15T11:16:49Z</time>
      </trkpt>
      <trkpt lat="43.196" lon="5.57773">
        <ele>229</ele>
        <time>2013-02-15T11:16:54Z</time>
      </trkpt>
      <trkpt lat="43.19598" lon="5.57781">
        <ele>228</ele>
        <time>2013-02-15T11:16:59Z</time>
      </trkpt>
      <trkpt lat="43.19597" lon="5.5779">
        <ele>227</ele>
        <time>2013-02-15T11:17:04Z</time>
      </trkpt>
      <trkpt lat="43.19596" lon="5.57799">
        <ele>226</ele>
        <time>2013-02-15T11:17:09Z</time>
      </trkpt>
      <trkpt lat="43.19594" lon="5.5781">
        <ele>225</ele>
        <time>2013-02-15T11:17:14Z</time>
      </trkpt>
      <trkpt lat="43.19593" lon="5.57817">
        <ele>224</ele>
        <time>2013-02-15T11:17:19Z</time>
      </trkpt>
      <trkpt lat="43.19592" lon="5.57823">
        <ele>223</ele>
        <time>2013-02-15T11:17:24Z</time>
      </trkpt>
      <trkpt lat="43.1959" lon="5.5783">
        <ele>222</ele>
        <time>2013-02-15T11:17:29Z</time>
      </trkpt>
      <trkpt lat="43.19589" lon="5.57837">
        <ele>222</ele>
        <time>2013-02-15T11:17:34Z</time>
      </trkpt>
      <trkpt lat="43.19587" lon="5.57843">
        <ele>221</ele>
        <time>2013-02-15T11:17:39Z</time>
      </trkpt>
      <trkpt lat="43.19583" lon="5.57851">
        <ele>220</ele>
        <time>2013-02-15T11:17:44Z</time>
      </trkpt>
      <trkpt lat="43.19581" lon="5.57858">
        <ele>219</ele>
        <time>2013-02-15T11:17:49Z</time>
      </trkpt>
      <trkpt lat="43.19578" lon="5.57864">
        <ele>218</ele>
        <time>2013-02-15T11:17:54Z</time>
      </trkpt>
      <trkpt lat="43.19576" lon="5.57872">
        <ele>218</ele>
        <time>2013-02-15T11:17:59Z</time>
      </trkpt>
      <trkpt lat="43.19575" lon="5.57878">
        <ele>217</ele>
        <time>2013-02-15T11:18:04Z</time>
      </trkpt>
      <trkpt lat="43.19574" lon="5.57884">
        <ele>216</ele>
        <time>2013-02-15T11:18:09Z</time>
      </trkpt>
      <trkpt lat="43.19575" lon="5.57882">
        <ele>216</ele>
        <time>2013-02-15T11:18:14Z</time>
      </trkpt>
      <trkpt lat="43.19576" lon="5.57879">
        <ele>215</ele>
        <time>2013-02-15T11:18:19Z</time>
      </trkpt>
      <trkpt lat="43.19577" lon="5.57877">
        <ele>215</ele>
        <time>2013-02-15T11:18:24Z</time>
      </trkpt>
      <trkpt lat="43.19576" lon="5.57878">
        <ele>214</ele>
        <time>2013-02-15T11:18:29Z</time>
      </trkpt>
      <trkpt lat="43.19573" lon="5.5788">
        <ele>212</ele>
        <time>2013-02-15T11:18:34Z</time>
      </trkpt>
      <trkpt lat="43.1957" lon="5.5788">
        <ele>211</ele>
        <time>2013-02-15T11:18:39Z</time>
      </trkpt>
      <trkpt lat="43.19567" lon="5.57879">
        <ele>209</ele>
        <time>2013-02-15T11:18:44Z</time>
      </trkpt>
      <trkpt lat="43.19563" lon="5.57879">
        <ele>209</ele>
        <time>2013-02-15T11:18:49Z</time>
      </trkpt>
      <trkpt lat="43.19558" lon="5.57875">
        <ele>208</ele>
        <time>2013-02-15T11:18:54Z</time>
      </trkpt>
      <trkpt lat="43.19552" lon="5.57869">
        <ele>208</ele>
        <time>2013-02-15T11:18:59Z</time>
      </trkpt>
      <trkpt lat="43.1955" lon="5.57864">
        <ele>207</ele>
        <time>2013-02-15T11:19:04Z</time>
      </trkpt>
      <trkpt lat="43.19548" lon="5.57857">
        <ele>206</ele>
        <time>2013-02-15T11:19:09Z</time>
      </trkpt>
      <trkpt lat="43.19548" lon="5.57851">
        <ele>205</ele>
        <time>2013-02-15T11:19:14Z</time>
      </trkpt>
      <trkpt lat="43.19548" lon="5.57846">
        <ele>204</ele>
        <time>2013-02-15T11:19:19Z</time>
      </trkpt>
      <trkpt lat="43.19549" lon="5.5784">
        <ele>204</ele>
        <time>2013-02-15T11:19:24Z</time>
      </trkpt>
      <trkpt lat="43.1955" lon="5.57835">
        <ele>203</ele>
        <time>2013-02-15T11:19:29Z</time>
      </trkpt>
      <trkpt lat="43.19551" lon="5.57828">
        <ele>202</ele>
        <time>2013-02-15T11:19:34Z</time>
      </trkpt>
      <trkpt lat="43.19552" lon="5.57821">
        <ele>201</ele>
        <time>2013-02-15T11:19:39Z</time>
      </trkpt>
      <trkpt lat="43.1955" lon="5.57813">
        <ele>201</ele>
        <time>2013-02-15T11:19:44Z</time>
      </trkpt>
      <trkpt lat="43.19552" lon="5.57806">
        <ele>202</ele>
        <time>2013-02-15T11:19:49Z</time>
      </trkpt>
      <trkpt lat="43.19556" lon="5.57801">
        <ele>203</ele>
        <time>2013-02-15T11:19:54Z</time>
      </trkpt>
      <trkpt lat="43.19559" lon="5.57792">
        <ele>204</ele>
        <time>2013-02-15T11:19:59Z</time>
      </trkpt>
      <trkpt lat="43.19561" lon="5.57785">
        <ele>204</ele>
        <time>2013-02-15T11:20:04Z</time>
      </trkpt>
      <trkpt lat="43.19562" lon="5.57778">
        <ele>204</ele>
        <time>2013-02-15T11:20:09Z</time>
      </trkpt>
      <trkpt lat="43.19562" lon="5.57774">
        <ele>204</ele>
        <time>2013-02-15T11:20:14Z</time>
      </trkpt>
      <trkpt lat="43.19561" lon="5.57767">
        <ele>204</ele>
        <time>2013-02-15T11:20:19Z</time>
      </trkpt>
      <trkpt lat="43.19561" lon="5.57761">
        <ele>205</ele>
        <time>2013-02-15T11:20:24Z</time>
      </trkpt>
      <trkpt lat="43.19559" lon="5.57755">
        <ele>205</ele>
        <time>2013-02-15T11:20:29Z</time>
      </trkpt>
      <trkpt lat="43.19555" lon="5.57749">
        <ele>206</ele>
        <time>2013-02-15T11:20:34Z</time>
      </trkpt>
      <trkpt lat="43.19552" lon="5.57744">
        <ele>206</ele>
        <time>2013-02-15T11:20:39Z</time>
      </trkpt>
      <trkpt lat="43.19548" lon="5.57739">
        <ele>207</ele>
        <time>2013-02-15T11:20:44Z</time>
      </trkpt>
      <trkpt lat="43.19543" lon="5.57736">
        <ele>208</ele>
        <time>2013-02-15T11:20:49Z</time>
      </trkpt>
      <trkpt lat="43.19538" lon="5.57733">
        <ele>209</ele>
        <time>2013-02-15T11:20:54Z</time>
      </trkpt>
      <trkpt lat="43.19533" lon="5.5773">
        <ele>209</ele>
        <time>2013-02-15T11:20:59Z</time>
      </trkpt>
      <trkpt lat="43.19529" lon="5.57726">
        <ele>210</ele>
        <time>2013-02-15T11:21:04Z</time>
      </trkpt>
      <trkpt lat="43.19525" lon="5.5772">
        <ele>211</ele>
        <time>2013-02-15T11:21:09Z</time>
      </trkpt>
      <trkpt lat="43.1952" lon="5.57715">
        <ele>211</ele>
        <time>2013-02-15T11:21:14Z</time>
      </trkpt>
      <trkpt lat="43.19518" lon="5.57711">
        <ele>212</ele>
        <time>2013-02-15T11:21:19Z</time>
      </trkpt>
      <trkpt lat="43.19517" lon="5.57711">
        <ele>212</ele>
        <time>2013-02-15T11:21:24Z</time>
      </trkpt>
      <trkpt lat="43.19517" lon="5.5771">
        <ele>212</ele>
        <time>2013-02-15T11:21:29Z</time>
      </trkpt>
      <trkpt lat="43.19518" lon="5.57711">
        <ele>212</ele>
        <time>2013-02-15T11:21:34Z</time>
      </trkpt>
      <trkpt lat="43.19519" lon="5.57712">
        <ele>212</ele>
        <time>2013-02-15T11:21:39Z</time>
      </trkpt>
      <trkpt lat="43.19519" lon="5.57714">
        <ele>212</ele>
        <time>2013-02-15T11:21:44Z</time>
      </trkpt>
      <trkpt lat="43.19518" lon="5.57715">
        <ele>212</ele>
        <time>2013-02-15T11:21:49Z</time>
      </trkpt>
      <trkpt lat="43.19516" lon="5.57715">
        <ele>211</ele>
        <time>2013-02-15T11:21:54Z</time>
      </trkpt>
      <trkpt lat="43.19515" lon="5.57715">
        <ele>211</ele>
        <time>2013-02-15T11:21:59Z</time>
      </trkpt>
      <trkpt lat="43.19515" lon="5.57714">
        <ele>211</ele>
        <time>2013-02-15T11:22:04Z</time>
      </trkpt>
      <trkpt lat="43.19515" lon="5.57713">
        <ele>211</ele>
        <time>2013-02-15T11:22:09Z</time>
      </trkpt>
      <trkpt lat="43.19517" lon="5.57712">
        <ele>211</ele>
        <time>2013-02-15T11:22:14Z</time>
      </trkpt>
      <trkpt lat="43.19518" lon="5.57713">
        <ele>211</ele>
        <time>2013-02-15T11:22:19Z</time>
      </trkpt>
      <trkpt lat="43.19519" lon="5.57713">
        <ele>212</ele>
        <time>2013-02-15T11:22:24Z</time>
      </trkpt>
      <trkpt lat="43.1952" lon="5.57713">
        <ele>212</ele>
        <time>2013-02-15T11:22:29Z</time>
      </trkpt>
      <trkpt lat="43.19522" lon="5.57714">
        <ele>212</ele>
        <time>2013-02-15T11:22:34Z</time>
      </trkpt>
      <trkpt lat="43.19523" lon="5.57715">
        <ele>212</ele>
        <time>2013-02-15T11:22:39Z</time>
      </trkpt>
      <trkpt lat="43.19521" lon="5.57713">
        <ele>212</ele>
        <time>2013-02-15T11:22:44Z</time>
      </trkpt>
      <trkpt lat="43.1952" lon="5.57711">
        <ele>212</ele>
        <time>2013-02-15T11:22:49Z</time>
      </trkpt>
      <trkpt lat="43.19519" lon="5.5771">
        <ele>213</ele>
        <time>2013-02-15T11:22:54Z</time>
      </trkpt>
      <trkpt lat="43.19519" lon="5.57709">
        <ele>213</ele>
        <time>2013-02-15T11:22:59Z</time>
      </trkpt>
      <trkpt lat="43.19518" lon="5.57707">
        <ele>214</ele>
        <time>2013-02-15T11:23:04Z</time>
      </trkpt>
      <trkpt lat="43.19517" lon="5.57701">
        <ele>215</ele>
        <time>2013-02-15T11:23:09Z</time>
      </trkpt>
      <trkpt lat="43.19516" lon="5.57695">
        <ele>215</ele>
        <time>2013-02-15T11:23:14Z</time>
      </trkpt>
      <trkpt lat="43.19517" lon="5.57689">
        <ele>214</ele>
        <time>2013-02-15T11:23:19Z</time>
      </trkpt>
      <trkpt lat="43.19519" lon="5.57685">
        <ele>215</ele>
        <time>2013-02-15T11:23:24Z</time>
      </trkpt>
      <trkpt lat="43.19523" lon="5.57682">
        <ele>214</ele>
        <time>2013-02-15T11:23:29Z</time>
      </trkpt>
      <trkpt lat="43.19526" lon="5.57679">
        <ele>215</ele>
        <time>2013-02-15T11:23:34Z</time>
      </trkpt>
      <trkpt lat="43.1953" lon="5.57675">
        <ele>215</ele>
        <time>2013-02-15T11:23:39Z</time>
      </trkpt>
      <trkpt lat="43.19532" lon="5.57671">
        <ele>215</ele>
        <time>2013-02-15T11:23:44Z</time>
      </trkpt>
      <trkpt lat="43.19535" lon="5.57666">
        <ele>214</ele>
        <time>2013-02-15T11:23:49Z</time>
      </trkpt>
      <trkpt lat="43.19538" lon="5.57661">
        <ele>214</ele>
        <time>2013-02-15T11:23:54Z</time>
      </trkpt>
      <trkpt lat="43.1954" lon="5.57656">
        <ele>214</ele>
        <time>2013-02-15T11:23:59Z</time>
      </trkpt>
      <trkpt lat="43.19543" lon="5.5765">
        <ele>214</ele>
        <time>2013-02-15T11:24:04Z</time>
      </trkpt>
      <trkpt lat="43.19547" lon="5.57645">
        <ele>214</ele>
        <time>2013-02-15T11:24:09Z</time>
      </trkpt>
      <trkpt lat="43.19551" lon="5.5764">
        <ele>214</ele>
        <time>2013-02-15T11:24:14Z</time>
      </trkpt>
      <trkpt lat="43.19554" lon="5.57636">
        <ele>214</ele>
        <time>2013-02-15T11:24:19Z</time>
      </trkpt>
      <trkpt lat="43.19561" lon="5.57631">
        <ele>214</ele>
        <time>2013-02-15T11:24:24Z</time>
      </trkpt>
      <trkpt lat="43.19566" lon="5.57626">
        <ele>214</ele>
        <time>2013-02-15T11:24:29Z</time>
      </trkpt>
      <trkpt lat="43.19571" lon="5.57622">
        <ele>213</ele>
        <time>2013-02-15T11:24:34Z</time>
      </trkpt>
      <trkpt lat="43.19575" lon="5.57618">
        <ele>213</ele>
        <time>2013-02-15T11:24:39Z</time>
      </trkpt>
      <trkpt lat="43.19579" lon="5.57612">
        <ele>212</ele>
        <time>2013-02-15T11:24:44Z</time>
      </trkpt>
      <trkpt lat="43.19581" lon="5.57608">
        <ele>211</ele>
        <time>2013-02-15T11:24:49Z</time>
      </trkpt>
      <trkpt lat="43.19586" lon="5.57603">
        <ele>210</ele>
        <time>2013-02-15T11:24:54Z</time>
      </trkpt>
      <trkpt lat="43.19588" lon="5.57598">
        <ele>210</ele>
        <time>2013-02-15T11:24:59Z</time>
      </trkpt>
      <trkpt lat="43.1959" lon="5.57592">
        <ele>210</ele>
        <time>2013-02-15T11:25:04Z</time>
      </trkpt>
      <trkpt lat="43.19592" lon="5.57588">
        <ele>211</ele>
        <time>2013-02-15T11:25:09Z</time>
      </trkpt>
      <trkpt lat="43.19596" lon="5.57582">
        <ele>211</ele>
        <time>2013-02-15T11:25:14Z</time>
      </trkpt>
      <trkpt lat="43.19601" lon="5.57576">
        <ele>212</ele>
        <time>2013-02-15T11:25:19Z</time>
      </trkpt>
      <trkpt lat="43.19604" lon="5.57569">
        <ele>212</ele>
        <time>2013-02-15T11:25:24Z</time>
      </trkpt>
      <trkpt lat="43.19607" lon="5.57563">
        <ele>212</ele>
        <time>2013-02-15T11:25:29Z</time>
      </trkpt>
      <trkpt lat="43.1961" lon="5.5756">
        <ele>212</ele>
        <time>2013-02-15T11:25:34Z</time>
      </trkpt>
      <trkpt lat="43.19613" lon="5.57555">
        <ele>212</ele>
        <time>2013-02-15T11:25:39Z</time>
      </trkpt>
      <trkpt lat="43.19616" lon="5.57548">
        <ele>212</ele>
        <time>2013-02-15T11:25:44Z</time>
      </trkpt>
      <trkpt lat="43.19619" lon="5.57543">
        <ele>211</ele>
        <time>2013-02-15T11:25:49Z</time>
      </trkpt>
      <trkpt lat="43.19625" lon="5.57534">
        <ele>211</ele>
        <time>2013-02-15T11:25:54Z</time>
      </trkpt>
      <trkpt lat="43.19631" lon="5.57527">
        <ele>211</ele>
        <time>2013-02-15T11:25:59Z</time>
      </trkpt>
      <trkpt lat="43.19636" lon="5.57521">
        <ele>211</ele>
        <time>2013-02-15T11:26:04Z</time>
      </trkpt>
      <trkpt lat="43.1964" lon="5.57512">
        <ele>211</ele>
        <time>2013-02-15T11:26:09Z</time>
      </trkpt>
      <trkpt lat="43.19644" lon="5.57505">
        <ele>212</ele>
        <time>2013-02-15T11:26:14Z</time>
      </trkpt>
      <trkpt lat="43.19648" lon="5.57498">
        <ele>212</ele>
        <time>2013-02-15T11:26:19Z</time>
      </trkpt>
      <trkpt lat="43.19652" lon="5.57489">
        <ele>212</ele>
        <time>2013-02-15T11:26:24Z</time>
      </trkpt>
      <trkpt lat="43.19655" lon="5.57483">
        <ele>213</ele>
        <time>2013-02-15T11:26:29Z</time>
      </trkpt>
      <trkpt lat="43.19659" lon="5.57476">
        <ele>213</ele>
        <time>2013-02-15T11:26:34Z</time>
      </trkpt>
      <trkpt lat="43.19662" lon="5.5747">
        <ele>213</ele>
        <time>2013-02-15T11:26:39Z</time>
      </trkpt>
      <trkpt lat="43.19665" lon="5.57464">
        <ele>213</ele>
        <time>2013-02-15T11:26:44Z</time>
      </trkpt>
      <trkpt lat="43.19667" lon="5.5746">
        <ele>213</ele>
        <time>2013-02-15T11:26:49Z</time>
      </trkpt>
      <trkpt lat="43.1967" lon="5.57454">
        <ele>213</ele>
        <time>2013-02-15T11:26:54Z</time>
      </trkpt>
      <trkpt lat="43.19672" lon="5.57446">
        <ele>213</ele>
        <time>2013-02-15T11:26:59Z</time>
      </trkpt>
      <trkpt lat="43.19676" lon="5.57436">
        <ele>213</ele>
        <time>2013-02-15T11:27:04Z</time>
      </trkpt>
      <trkpt lat="43.19679" lon="5.5743">
        <ele>213</ele>
        <time>2013-02-15T11:27:09Z</time>
      </trkpt>
      <trkpt lat="43.19683" lon="5.57422">
        <ele>213</ele>
        <time>2013-02-15T11:27:14Z</time>
      </trkpt>
      <trkpt lat="43.19686" lon="5.57415">
        <ele>213</ele>
        <time>2013-02-15T11:27:19Z</time>
      </trkpt>
      <trkpt lat="43.1969" lon="5.57408">
        <ele>213</ele>
        <time>2013-02-15T11:27:24Z</time>
      </trkpt>
      <trkpt lat="43.19692" lon="5.57402">
        <ele>214</ele>
        <time>2013-02-15T11:27:29Z</time>
      </trkpt>
      <trkpt lat="43.19694" lon="5.57394">
        <ele>214</ele>
        <time>2013-02-15T11:27:34Z</time>
      </trkpt>
      <trkpt lat="43.19696" lon="5.57386">
        <ele>214</ele>
        <time>2013-02-15T11:27:39Z</time>
      </trkpt>
      <trkpt lat="43.19697" lon="5.57377">
        <ele>214</ele>
        <time>2013-02-15T11:27:44Z</time>
      </trkpt>
      <trkpt lat="43.19697" lon="5.57368">
        <ele>214</ele>
        <time>2013-02-15T11:27:49Z</time>
      </trkpt>
      <trkpt lat="43.19696" lon="5.57362">
        <ele>214</ele>
        <time>2013-02-15T11:27:54Z</time>
      </trkpt>
      <trkpt lat="43.19696" lon="5.57354">
        <ele>213</ele>
        <time>2013-02-15T11:27:59Z</time>
      </trkpt>
      <trkpt lat="43.19696" lon="5.57346">
        <ele>213</ele>
        <time>2013-02-15T11:28:04Z</time>
      </trkpt>
      <trkpt lat="43.19696" lon="5.57338">
        <ele>213</ele>
        <time>2013-02-15T11:28:09Z</time>
      </trkpt>
      <trkpt lat="43.19698" lon="5.57333">
        <ele>214</ele>
        <time>2013-02-15T11:28:14Z</time>
      </trkpt>
      <trkpt lat="43.197" lon="5.57329">
        <ele>214</ele>
        <time>2013-02-15T11:28:19Z</time>
      </trkpt>
      <trkpt lat="43.19702" lon="5.57323">
        <ele>214</ele>
        <time>2013-02-15T11:28:24Z</time>
      </trkpt>
      <trkpt lat="43.19703" lon="5.57314">
        <ele>213</ele>
        <time>2013-02-15T11:28:29Z</time>
      </trkpt>
      <trkpt lat="43.19704" lon="5.57305">
        <ele>213</ele>
        <time>2013-02-15T11:28:34Z</time>
      </trkpt>
      <trkpt lat="43.19704" lon="5.57297">
        <ele>213</ele>
        <time>2013-02-15T11:28:39Z</time>
      </trkpt>
      <trkpt lat="43.19704" lon="5.57287">
        <ele>213</ele>
        <time>2013-02-15T11:28:44Z</time>
      </trkpt>
      <trkpt lat="43.19704" lon="5.57282">
        <ele>213</ele>
        <time>2013-02-15T11:28:49Z</time>
      </trkpt>
      <trkpt lat="43.19704" lon="5.57276">
        <ele>213</ele>
        <time>2013-02-15T11:28:54Z</time>
      </trkpt>
      <trkpt lat="43.19705" lon="5.57268">
        <ele>213</ele>
        <time>2013-02-15T11:28:59Z</time>
      </trkpt>
      <trkpt lat="43.19706" lon="5.57262">
        <ele>212</ele>
        <time>2013-02-15T11:29:04Z</time>
      </trkpt>
      <trkpt lat="43.19706" lon="5.57255">
        <ele>212</ele>
        <time>2013-02-15T11:29:09Z</time>
      </trkpt>
      <trkpt lat="43.19705" lon="5.57248">
        <ele>211</ele>
        <time>2013-02-15T11:29:14Z</time>
      </trkpt>
      <trkpt lat="43.19704" lon="5.57241">
        <ele>211</ele>
        <time>2013-02-15T11:29:19Z</time>
      </trkpt>
      <trkpt lat="43.19704" lon="5.57237">
        <ele>210</ele>
        <time>2013-02-15T11:29:24Z</time>
      </trkpt>
      <trkpt lat="43.19704" lon="5.57231">
        <ele>209</ele>
        <time>2013-02-15T11:29:29Z</time>
      </trkpt>
      <trkpt lat="43.19705" lon="5.57225">
        <ele>208</ele>
        <time>2013-02-15T11:29:34Z</time>
      </trkpt>
      <trkpt lat="43.19705" lon="5.57218">
        <ele>207</ele>
        <time>2013-02-15T11:29:39Z</time>
      </trkpt>
      <trkpt lat="43.19707" lon="5.57211">
        <ele>206</ele>
        <time>2013-02-15T11:29:44Z</time>
      </trkpt>
      <trkpt lat="43.19709" lon="5.57207">
        <ele>205</ele>
        <time>2013-02-15T11:29:49Z</time>
      </trkpt>
      <trkpt lat="43.19714" lon="5.57203">
        <ele>205</ele>
        <time>2013-02-15T11:29:54Z</time>
      </trkpt>
      <trkpt lat="43.19718" lon="5.57203">
        <ele>205</ele>
        <time>2013-02-15T11:29:59Z</time>
      </trkpt>
      <trkpt lat="43.19724" lon="5.57207">
        <ele>204</ele>
        <time>2013-02-15T11:30:04Z</time>
      </trkpt>
      <trkpt lat="43.19731" lon="5.57209">
        <ele>204</ele>
        <time>2013-02-15T11:30:09Z</time>
      </trkpt>
      <trkpt lat="43.19737" lon="5.57211">
        <ele>203</ele>
        <time>2013-02-15T11:30:14Z</time>
      </trkpt>
      <trkpt lat="43.19743" lon="5.57211">
        <ele>203</ele>
        <time>2013-02-15T11:30:19Z</time>
      </trkpt>
      <trkpt lat="43.19749" lon="5.5721">
        <ele>202</ele>
        <time>2013-02-15T11:30:24Z</time>
      </trkpt>
      <trkpt lat="43.19754" lon="5.57208">
        <ele>202</ele>
        <time>2013-02-15T11:30:29Z</time>
      </trkpt>
      <trkpt lat="43.19759" lon="5.57204">
        <ele>202</ele>
        <time>2013-02-15T11:30:34Z</time>
      </trkpt>
      <trkpt lat="43.19765" lon="5.572">
        <ele>202</ele>
        <time>2013-02-15T11:30:39Z</time>
      </trkpt>
      <trkpt lat="43.19772" lon="5.57196">
        <ele>203</ele>
        <time>2013-02-15T11:30:44Z</time>
      </trkpt>
      <trkpt lat="43.19776" lon="5.57191">
        <ele>204</ele>
        <time>2013-02-15T11:30:49Z</time>
      </trkpt>
      <trkpt lat="43.19782" lon="5.57187">
        <ele>204</ele>
        <time>2013-02-15T11:30:54Z</time>
      </trkpt>
      <trkpt lat="43.19787" lon="5.57184">
        <ele>205</ele>
        <time>2013-02-15T11:30:59Z</time>
      </trkpt>
      <trkpt lat="43.19791" lon="5.57178">
        <ele>205</ele>
        <time>2013-02-15T11:31:04Z</time>
      </trkpt>
      <trkpt lat="43.19787" lon="5.57173">
        <ele>205</ele>
        <time>2013-02-15T11:31:09Z</time>
      </trkpt>
      <trkpt lat="43.1978" lon="5.57174">
        <ele>205</ele>
        <time>2013-02-15T11:31:14Z</time>
      </trkpt>
      <trkpt lat="43.19775" lon="5.57178">
        <ele>205</ele>
        <time>2013-02-15T11:31:19Z</time>
      </trkpt>
      <trkpt lat="43.19769" lon="5.57183">
        <ele>205</ele>
        <time>2013-02-15T11:31:24Z</time>
      </trkpt>
      <trkpt lat="43.19763" lon="5.57185">
        <ele>205</ele>
        <time>2013-02-15T11:31:29Z</time>
      </trkpt>
      <trkpt lat="43.19759" lon="5.57187">
        <ele>205</ele>
        <time>2013-02-15T11:31:34Z</time>
      </trkpt>
      <trkpt lat="43.19754" lon="5.57189">
        <ele>205</ele>
        <time>2013-02-15T11:31:39Z</time>
      </trkpt>
      <trkpt lat="43.1975" lon="5.57187">
        <ele>204</ele>
        <time>2013-02-15T11:31:44Z</time>
      </trkpt>
      <trkpt lat="43.19746" lon="5.57187">
        <ele>204</ele>
        <time>2013-02-15T11:31:49Z</time>
      </trkpt>
      <trkpt lat="43.19743" lon="5.57186">
        <ele>203</ele>
        <time>2013-02-15T11:31:54Z</time>
      </trkpt>
      <trkpt lat="43.19737" lon="5.57184">
        <ele>203</ele>
        <time>2013-02-15T11:31:59Z</time>
      </trkpt>
      <trkpt lat="43.19732" lon="5.57182">
        <ele>203</ele>
        <time>2013-02-15T11:32:04Z</time>
      </trkpt>
      <trkpt lat="43.19725" lon="5.57179">
        <ele>202</ele>
        <time>2013-02-15T11:32:09Z</time>
      </trkpt>
      <trkpt lat="43.19719" lon="5.57178">
        <ele>202</ele>
        <time>2013-02-15T11:32:14Z</time>
      </trkpt>
      <trkpt lat="43.19714" lon="5.57175">
        <ele>202</ele>
        <time>2013-02-15T11:32:19Z</time>
      </trkpt>
      <trkpt lat="43.19707" lon="5.57174">
        <ele>202</ele>
        <time>2013-02-15T11:32:24Z</time>
      </trkpt>
      <trkpt lat="43.197" lon="5.57173">
        <ele>201</ele>
        <time>2013-02-15T11:32:29Z</time>
      </trkpt>
      <trkpt lat="43.19695" lon="5.57175">
        <ele>201</ele>
        <time>2013-02-15T11:32:34Z</time>
      </trkpt>
      <trkpt lat="43.19691" lon="5.57178">
        <ele>202</ele>
        <time>2013-02-15T11:32:39Z</time>
      </trkpt>
      <trkpt lat="43.19687" lon="5.57183">
        <ele>201</ele>
        <time>2013-02-15T11:32:44Z</time>
      </trkpt>
      <trkpt lat="43.19684" lon="5.57188">
        <ele>201</ele>
        <time>2013-02-15T11:32:49Z</time>
      </trkpt>
      <trkpt lat="43.1968" lon="5.57195">
        <ele>201</ele>
        <time>2013-02-15T11:32:54Z</time>
      </trkpt>
      <trkpt lat="43.19677" lon="5.57202">
        <ele>201</ele>
        <time>2013-02-15T11:32:59Z</time>
      </trkpt>
      <trkpt lat="43.19676" lon="5.57211">
        <ele>201</ele>
        <time>2013-02-15T11:33:04Z</time>
      </trkpt>
      <trkpt lat="43.19676" lon="5.57219">
        <ele>200</ele>
        <time>2013-02-15T11:33:09Z</time>
      </trkpt>
      <trkpt lat="43.19676" lon="5.57227">
        <ele>200</ele>
        <time>2013-02-15T11:33:14Z</time>
      </trkpt>
      <trkpt lat="43.19676" lon="5.57234">
        <ele>199</ele>
        <time>2013-02-15T11:33:19Z</time>
      </trkpt>
      <trkpt lat="43.19676" lon="5.57243">
        <ele>199</ele>
        <time>2013-02-15T11:33:24Z</time>
      </trkpt>
      <trkpt lat="43.19676" lon="5.57253">
        <ele>199</ele>
        <time>2013-02-15T11:33:29Z</time>
      </trkpt>
      <trkpt lat="43.19676" lon="5.57263">
        <ele>198</ele>
        <time>2013-02-15T11:33:34Z</time>
      </trkpt>
      <trkpt lat="43.19676" lon="5.57268">
        <ele>198</ele>
        <time>2013-02-15T11:33:39Z</time>
      </trkpt>
      <trkpt lat="43.19675" lon="5.57273">
        <ele>198</ele>
        <time>2013-02-15T11:33:44Z</time>
      </trkpt>
      <trkpt lat="43.19673" lon="5.57283">
        <ele>197</ele>
        <time>2013-02-15T11:33:49Z</time>
      </trkpt>
      <trkpt lat="43.19671" lon="5.5729">
        <ele>197</ele>
        <time>2013-02-15T11:33:54Z</time>
      </trkpt>
      <trkpt lat="43.19667" lon="5.57296">
        <ele>197</ele>
        <time>2013-02-15T11:33:59Z</time>
      </trkpt>
      <trkpt lat="43.19663" lon="5.57304">
        <ele>196</ele>
        <time>2013-02-15T11:34:04Z</time>
      </trkpt>
      <trkpt lat="43.19661" lon="5.57311">
        <ele>196</ele>
        <time>2013-02-15T11:34:09Z</time>
      </trkpt>
      <trkpt lat="43.1966" lon="5.57316">
        <ele>196</ele>
        <time>2013-02-15T11:34:14Z</time>
      </trkpt>
      <trkpt lat="43.19656" lon="5.57321">
        <ele>196</ele>
        <time>2013-02-15T11:34:19Z</time>
      </trkpt>
      <trkpt lat="43.19652" lon="5.57322">
        <ele>195</ele>
        <time>2013-02-15T11:34:24Z</time>
      </trkpt>
      <trkpt lat="43.19648" lon="5.57324">
        <ele>195</ele>
        <time>2013-02-15T11:34:29Z</time>
      </trkpt>
      <trkpt lat="43.19644" lon="5.57327">
        <ele>194</ele>
        <time>2013-02-15T11:34:34Z</time>
      </trkpt>
      <trkpt lat="43.1964" lon="5.57332">
        <ele>194</ele>
        <time>2013-02-15T11:34:39Z</time>
      </trkpt>
      <trkpt lat="43.19638" lon="5.57338">
        <ele>193</ele>
        <time>2013-02-15T11:34:44Z</time>
      </trkpt>
      <trkpt lat="43.19636" lon="5.57347">
        <ele>193</ele>
        <time>2013-02-15T11:34:49Z</time>
      </trkpt>
      <trkpt lat="43.19636" lon="5.57355">
        <ele>193</ele>
        <time>2013-02-15T11:34:54Z</time>
      </trkpt>
      <trkpt lat="43.19636" lon="5.57358">
        <ele>193</ele>
        <time>2013-02-15T11:34:59Z</time>
      </trkpt>
      <trkpt lat="43.19638" lon="5.57358">
        <ele>193</ele>
        <time>2013-02-15T11:35:04Z</time>
      </trkpt>
      <trkpt lat="43.19639" lon="5.57355">
        <ele>193</ele>
        <time>2013-02-15T11:35:09Z</time>
      </trkpt>
      <trkpt lat="43.19638" lon="5.57354">
        <ele>193</ele>
        <time>2013-02-15T11:35:14Z</time>
      </trkpt>
      <trkpt lat="43.19637" lon="5.57354">
        <ele>193</ele>
        <time>2013-02-15T11:35:19Z</time>
      </trkpt>
      <trkpt lat="43.19636" lon="5.57354">
        <ele>193</ele>
        <time>2013-02-15T11:35:24Z</time>
      </trkpt>
      <trkpt lat="43.19635" lon="5.57354">
        <ele>193</ele>
        <time>2013-02-15T11:35:29Z</time>
      </trkpt>
      <trkpt lat="43.19635" lon="5.57354">
        <ele>193</ele>
        <time>2013-02-15T11:35:34Z</time>
      </trkpt>
      <trkpt lat="43.19633" lon="5.57353">
        <ele>193</ele>
        <time>2013-02-15T11:35:39Z</time>
      </trkpt>
      <trkpt lat="43.19633" lon="5.57352">
        <ele>193</ele>
        <time>2013-02-15T11:35:44Z</time>
      </trkpt>
      <trkpt lat="43.19633" lon="5.57352">
        <ele>193</ele>
        <time>2013-02-15T11:35:49Z</time>
      </trkpt>
      <trkpt lat="43.19634" lon="5.57354">
        <ele>192</ele>
        <time>2013-02-15T11:35:54Z</time>
      </trkpt>
      <trkpt lat="43.19634" lon="5.57354">
        <ele>192</ele>
        <time>2013-02-15T11:35:59Z</time>
      </trkpt>
      <trkpt lat="43.19634" lon="5.57353">
        <ele>192</ele>
        <time>2013-02-15T11:36:04Z</time>
      </trkpt>
      <trkpt lat="43.19633" lon="5.57354">
        <ele>191</ele>
        <time>2013-02-15T11:36:09Z</time>
      </trkpt>
      <trkpt lat="43.19634" lon="5.57354">
        <ele>191</ele>
        <time>2013-02-15T11:36:14Z</time>
      </trkpt>
      <trkpt lat="43.19635" lon="5.57355">
        <ele>191</ele>
        <time>2013-02-15T11:36:19Z</time>
      </trkpt>
      <trkpt lat="43.19635" lon="5.57358">
        <ele>190</ele>
        <time>2013-02-15T11:36:24Z</time>
      </trkpt>
      <trkpt lat="43.19636" lon="5.57362">
        <ele>190</ele>
        <time>2013-02-15T11:36:29Z</time>
      </trkpt>
      <trkpt lat="43.19636" lon="5.57365">
        <ele>190</ele>
        <time>2013-02-15T11:36:34Z</time>
      </trkpt>
      <trkpt lat="43.19636" lon="5.57373">
        <ele>190</ele>
        <time>2013-02-15T11:36:39Z</time>
      </trkpt>
      <trkpt lat="43.19636" lon="5.57383">
        <ele>190</ele>
        <time>2013-02-15T11:36:44Z</time>
      </trkpt>
      <trkpt lat="43.19635" lon="5.57388">
        <ele>190</ele>
        <time>2013-02-15T11:36:49Z</time>
      </trkpt>
      <trkpt lat="43.19634" lon="5.57391">
        <ele>189</ele>
        <time>2013-02-15T11:36:54Z</time>
      </trkpt>
      <trkpt lat="43.19631" lon="5.57395">
        <ele>189</ele>
        <time>2013-02-15T11:36:59Z</time>
      </trkpt>
      <trkpt lat="43.19628" lon="5.57401">
        <ele>189</ele>
        <time>2013-02-15T11:37:04Z</time>
      </trkpt>
      <trkpt lat="43.19624" lon="5.57405">
        <ele>189</ele>
        <time>2013-02-15T11:37:09Z</time>
      </trkpt>
      <trkpt lat="43.19621" lon="5.57409">
        <ele>189</ele>
        <time>2013-02-15T11:37:14Z</time>
      </trkpt>
      <trkpt lat="43.19617" lon="5.57412">
        <ele>188</ele>
        <time>2013-02-15T11:37:19Z</time>
      </trkpt>
      <trkpt lat="43.19614" lon="5.57415">
        <ele>188</ele>
        <time>2013-02-15T11:37:24Z</time>
      </trkpt>
      <trkpt lat="43.1961" lon="5.5742">
        <ele>188</ele>
        <time>2013-02-15T11:37:29Z</time>
      </trkpt>
      <trkpt lat="43.19606" lon="5.57425">
        <ele>187</ele>
        <time>2013-02-15T11:37:34Z</time>
      </trkpt>
      <trkpt lat="43.19603" lon="5.57431">
        <ele>186</ele>
        <time>2013-02-15T11:37:39Z</time>
      </trkpt>
      <trkpt lat="43.19601" lon="5.57438">
        <ele>185</ele>
        <time>2013-02-15T11:37:44Z</time>
      </trkpt>
      <trkpt lat="43.19599" lon="5.57446">
        <ele>185</ele>
        <time>2013-02-15T11:37:49Z</time>
      </trkpt>
      <trkpt lat="43.19595" lon="5.57454">
        <ele>184</ele>
        <time>2013-02-15T11:37:54Z</time>
      </trkpt>
      <trkpt lat="43.19591" lon="5.5746">
        <ele>184</ele>
        <time>2013-02-15T11:37:59Z</time>
      </trkpt>
      <trkpt lat="43.19587" lon="5.57464">
        <ele>183</ele>
        <time>2013-02-15T11:38:04Z</time>
      </trkpt>
      <trkpt lat="43.19582" lon="5.57467">
        <ele>183</ele>
        <time>2013-02-15T11:38:09Z</time>
      </trkpt>
      <trkpt lat="43.19577" lon="5.5747">
        <ele>182</ele>
        <time>2013-02-15T11:38:14Z</time>
      </trkpt>
      <trkpt lat="43.19573" lon="5.57474">
        <ele>182</ele>
        <time>2013-02-15T11:38:19Z</time>
      </trkpt>
      <trkpt lat="43.19569" lon="5.57478">
        <ele>181</ele>
        <time>2013-02-15T11:38:24Z</time>
      </trkpt>
      <trkpt lat="43.19564" lon="5.57483">
        <ele>181</ele>
        <time>2013-02-15T11:38:29Z</time>
      </trkpt>
      <trkpt lat="43.19559" lon="5.57488">
        <ele>180</ele>
        <time>2013-02-15T11:38:34Z</time>
      </trkpt>
      <trkpt lat="43.19553" lon="5.57493">
        <ele>180</ele>
        <time>2013-02-15T11:38:39Z</time>
      </trkpt>
      <trkpt lat="43.19547" lon="5.57499">
        <ele>180</ele>
        <time>2013-02-15T11:38:44Z</time>
      </trkpt>
      <trkpt lat="43.19542" lon="5.57503">
        <ele>179</ele>
        <time>2013-02-15T11:38:49Z</time>
      </trkpt>
      <trkpt lat="43.19537" lon="5.57508">
        <ele>179</ele>
        <time>2013-02-15T11:38:54Z</time>
      </trkpt>
      <trkpt lat="43.19533" lon="5.57515">
        <ele>178</ele>
        <time>2013-02-15T11:38:59Z</time>
      </trkpt>
      <trkpt lat="43.19529" lon="5.5752">
        <ele>178</ele>
        <time>2013-02-15T11:39:04Z</time>
      </trkpt>
      <trkpt lat="43.19525" lon="5.57526">
        <ele>178</ele>
        <time>2013-02-15T11:39:09Z</time>
      </trkpt>
      <trkpt lat="43.19521" lon="5.5753">
        <ele>179</ele>
        <time>2013-02-15T11:39:14Z</time>
      </trkpt>
      <trkpt lat="43.19517" lon="5.57532">
        <ele>179</ele>
        <time>2013-02-15T11:39:19Z</time>
      </trkpt>
      <trkpt lat="43.19511" lon="5.57537">
        <ele>178</ele>
        <time>2013-02-15T11:39:24Z</time>
      </trkpt>
      <trkpt lat="43.19506" lon="5.57542">
        <ele>178</ele>
        <time>2013-02-15T11:39:29Z</time>
      </trkpt>
      <trkpt lat="43.19501" lon="5.57547">
        <ele>178</ele>
        <time>2013-02-15T11:39:34Z</time>
      </trkpt>
      <trkpt lat="43.19495" lon="5.57554">
        <ele>179</ele>
        <time>2013-02-15T11:39:39Z</time>
      </trkpt>
      <trkpt lat="43.1949" lon="5.57559">
        <ele>179</ele>
        <time>2013-02-15T11:39:44Z</time>
      </trkpt>
      <trkpt lat="43.19486" lon="5.57562">
        <ele>179</ele>
        <time>2013-02-15T11:39:49Z</time>
      </trkpt>
      <trkpt lat="43.19482" lon="5.57566">
        <ele>178</ele>
        <time>2013-02-15T11:39:54Z</time>
      </trkpt>
      <trkpt lat="43.19477" lon="5.57572">
        <ele>178</ele>
        <time>2013-02-15T11:39:59Z</time>
      </trkpt>
      <trkpt lat="43.19472" lon="5.57578">
        <ele>178</ele>
        <time>2013-02-15T11:40:04Z</time>
      </trkpt>
      <trkpt lat="43.19467" lon="5.57585">
        <ele>178</ele>
        <time>2013-02-15T11:40:09Z</time>
      </trkpt>
      <trkpt lat="43.19461" lon="5.57592">
        <ele>178</ele>
        <time>2013-02-15T11:40:14Z</time>
      </trkpt>
      <trkpt lat="43.19458" lon="5.57595">
        <ele>178</ele>
        <time>2013-02-15T11:40:19Z</time>
      </trkpt>
      <trkpt lat="43.19455" lon="5.57601">
        <ele>178</ele>
        <time>2013-02-15T11:40:24Z</time>
      </trkpt>
      <trkpt lat="43.1945" lon="5.57608">
        <ele>178</ele>
        <time>2013-02-15T11:40:29Z</time>
      </trkpt>
      <trkpt lat="43.19445" lon="5.57613">
        <ele>177</ele>
        <time>2013-02-15T11:40:34Z</time>
      </trkpt>
      <trkpt lat="43.19441" lon="5.57615">
        <ele>177</ele>
        <time>2013-02-15T11:40:39Z</time>
      </trkpt>
      <trkpt lat="43.19435" lon="5.57618">
        <ele>177</ele>
        <time>2013-02-15T11:40:44Z</time>
      </trkpt>
      <trkpt lat="43.19431" lon="5.57619">
        <ele>177</ele>
        <time>2013-02-15T11:40:49Z</time>
      </trkpt>
      <trkpt lat="43.19425" lon="5.57622">
        <ele>176</ele>
        <time>2013-02-15T11:40:54Z</time>
      </trkpt>
      <trkpt lat="43.19418" lon="5.57623">
        <ele>176</ele>
        <time>2013-02-15T11:40:59Z</time>
      </trkpt>
      <trkpt lat="43.19412" lon="5.57625">
        <ele>176</ele>
        <time>2013-02-15T11:41:04Z</time>
      </trkpt>
      <trkpt lat="43.19407" lon="5.57626">
        <ele>176</ele>
        <time>2013-02-15T11:41:09Z</time>
      </trkpt>
      <trkpt lat="43.19401" lon="5.5763">
        <ele>176</ele>
        <time>2013-02-15T11:41:14Z</time>
      </trkpt>
      <trkpt lat="43.19396" lon="5.57634">
        <ele>176</ele>
        <time>2013-02-15T11:41:19Z</time>
      </trkpt>
      <trkpt lat="43.19392" lon="5.5764">
        <ele>175</ele>
        <time>2013-02-15T11:41:24Z</time>
      </trkpt>
      <trkpt lat="43.19388" lon="5.57648">
        <ele>175</ele>
        <time>2013-02-15T11:41:29Z</time>
      </trkpt>
      <trkpt lat="43.19386" lon="5.57655">
        <ele>174</ele>
        <time>2013-02-15T11:41:34Z</time>
      </trkpt>
      <trkpt lat="43.19385" lon="5.57663">
        <ele>174</ele>
        <time>2013-02-15T11:41:39Z</time>
      </trkpt>
      <trkpt lat="43.19383" lon="5.57669">
        <ele>173</ele>
        <time>2013-02-15T11:41:44Z</time>
      </trkpt>
      <trkpt lat="43.19381" lon="5.57677">
        <ele>173</ele>
        <time>2013-02-15T11:41:49Z</time>
      </trkpt>
      <trkpt lat="43.19379" lon="5.57684">
        <ele>173</ele>
        <time>2013-02-15T11:41:54Z</time>
      </trkpt>
      <trkpt lat="43.19376" lon="5.57691">
        <ele>173</ele>
        <time>2013-02-15T11:41:59Z</time>
      </trkpt>
      <trkpt lat="43.19373" lon="5.57698">
        <ele>173</ele>
        <time>2013-02-15T11:42:04Z</time>
      </trkpt>
      <trkpt lat="43.19371" lon="5.57705">
        <ele>173</ele>
        <time>2013-02-15T11:42:09Z</time>
      </trkpt>
      <trkpt lat="43.19367" lon="5.5771">
        <ele>172</ele>
        <time>2013-02-15T11:42:14Z</time>
      </trkpt>
      <trkpt lat="43.19363" lon="5.57717">
        <ele>172</ele>
        <time>2013-02-15T11:42:19Z</time>
      </trkpt>
      <trkpt lat="43.1936" lon="5.57723">
        <ele>172</ele>
        <time>2013-02-15T11:42:24Z</time>
      </trkpt>
      <trkpt lat="43.19357" lon="5.57729">
        <ele>171</ele>
        <time>2013-02-15T11:42:29Z</time>
      </trkpt>
      <trkpt lat="43.19353" lon="5.57735">
        <ele>171</ele>
        <time>2013-02-15T11:42:34Z</time>
      </trkpt>
      <trkpt lat="43.1935" lon="5.57742">
        <ele>171</ele>
        <time>2013-02-15T11:42:39Z</time>
      </trkpt>
      <trkpt lat="43.19346" lon="5.57749">
        <ele>171</ele>
        <time>2013-02-15T11:42:44Z</time>
      </trkpt>
      <trkpt lat="43.19343" lon="5.57755">
        <ele>171</ele>
        <time>2013-02-15T11:42:49Z</time>
      </trkpt>
      <trkpt lat="43.19342" lon="5.57761">
        <ele>170</ele>
        <time>2013-02-15T11:42:54Z</time>
      </trkpt>
      <trkpt lat="43.19341" lon="5.57768">
        <ele>170</ele>
        <time>2013-02-15T11:42:59Z</time>
      </trkpt>
      <trkpt lat="43.19338" lon="5.57778">
        <ele>169</ele>
        <time>2013-02-15T11:43:04Z</time>
      </trkpt>
      <trkpt lat="43.19337" lon="5.57787">
        <ele>168</ele>
        <time>2013-02-15T11:43:09Z</time>
      </trkpt>
      <trkpt lat="43.19336" lon="5.57796">
        <ele>168</ele>
        <time>2013-02-15T11:43:14Z</time>
      </trkpt>
      <trkpt lat="43.19335" lon="5.57804">
        <ele>168</ele>
        <time>2013-02-15T11:43:19Z</time>
      </trkpt>
      <trkpt lat="43.19335" lon="5.57812">
        <ele>167</ele>
        <time>2013-02-15T11:43:24Z</time>
      </trkpt>
      <trkpt lat="43.19333" lon="5.57823">
        <ele>168</ele>
        <time>2013-02-15T11:43:29Z</time>
      </trkpt>
      <trkpt lat="43.19332" lon="5.57829">
        <ele>167</ele>
        <time>2013-02-15T11:43:34Z</time>
      </trkpt>
      <trkpt lat="43.19333" lon="5.57836">
        <ele>167</ele>
        <time>2013-02-15T11:43:39Z</time>
      </trkpt>
      <trkpt lat="43.19333" lon="5.57844">
        <ele>166</ele>
        <time>2013-02-15T11:43:44Z</time>
      </trkpt>
      <trkpt lat="43.19332" lon="5.5785">
        <ele>167</ele>
        <time>2013-02-15T11:43:49Z</time>
      </trkpt>
      <trkpt lat="43.19329" lon="5.57858">
        <ele>166</ele>
        <time>2013-02-15T11:43:54Z</time>
      </trkpt>
      <trkpt lat="43.19328" lon="5.57867">
        <ele>166</ele>
        <time>2013-02-15T11:43:59Z</time>
      </trkpt>
      <trkpt lat="43.19327" lon="5.57876">
        <ele>165</ele>
        <time>2013-02-15T11:44:04Z</time>
      </trkpt>
      <trkpt lat="43.19327" lon="5.57885">
        <ele>165</ele>
        <time>2013-02-15T11:44:09Z</time>
      </trkpt>
      <trkpt lat="43.19328" lon="5.57892">
        <ele>164</ele>
        <time>2013-02-15T11:44:14Z</time>
      </trkpt>
      <trkpt lat="43.19329" lon="5.57902">
        <ele>164</ele>
        <time>2013-02-15T11:44:19Z</time>
      </trkpt>
      <trkpt lat="43.1933" lon="5.5791">
        <ele>164</ele>
        <time>2013-02-15T11:44:24Z</time>
      </trkpt>
      <trkpt lat="43.1933" lon="5.57918">
        <ele>163</ele>
        <time>2013-02-15T11:44:29Z</time>
      </trkpt>
      <trkpt lat="43.1933" lon="5.57927">
        <ele>163</ele>
        <time>2013-02-15T11:44:34Z</time>
      </trkpt>
      <trkpt lat="43.19331" lon="5.57934">
        <ele>163</ele>
        <time>2013-02-15T11:44:39Z</time>
      </trkpt>
      <trkpt lat="43.1933" lon="5.57941">
        <ele>163</ele>
        <time>2013-02-15T11:44:44Z</time>
      </trkpt>
      <trkpt lat="43.19328" lon="5.57949">
        <ele>163</ele>
        <time>2013-02-15T11:44:49Z</time>
      </trkpt>
      <trkpt lat="43.19327" lon="5.57956">
        <ele>162</ele>
        <time>2013-02-15T11:44:54Z</time>
      </trkpt>
      <trkpt lat="43.19326" lon="5.57963">
        <ele>162</ele>
        <time>2013-02-15T11:44:59Z</time>
      </trkpt>
      <trkpt lat="43.19323" lon="5.57969">
        <ele>162</ele>
        <time>2013-02-15T11:45:04Z</time>
      </trkpt>
      <trkpt lat="43.19321" lon="5.57976">
        <ele>162</ele>
        <time>2013-02-15T11:45:09Z</time>
      </trkpt>
      <trkpt lat="43.1932" lon="5.57985">
        <ele>162</ele>
        <time>2013-02-15T11:45:14Z</time>
      </trkpt>
      <trkpt lat="43.19321" lon="5.5799">
        <ele>162</ele>
        <time>2013-02-15T11:45:19Z</time>
      </trkpt>
      <trkpt lat="43.19321" lon="5.57996">
        <ele>161</ele>
        <time>2013-02-15T11:45:24Z</time>
      </trkpt>
      <trkpt lat="43.19319" lon="5.58001">
        <ele>161</ele>
        <time>2013-02-15T11:45:29Z</time>
      </trkpt>
      <trkpt lat="43.19314" lon="5.58006">
        <ele>160</ele>
        <time>2013-02-15T11:45:34Z</time>
      </trkpt>
      <trkpt lat="43.1931" lon="5.5801">
        <ele>159</ele>
        <time>2013-02-15T11:45:39Z</time>
      </trkpt>
      <trkpt lat="43.19307" lon="5.58011">
        <ele>159</ele>
        <time>2013-02-15T11:45:45Z</time>
      </trkpt>
      <trkpt lat="43.19301" lon="5.58013">
        <ele>158</ele>
        <time>2013-02-15T11:45:50Z</time>
      </trkpt>
      <trkpt lat="43.19295" lon="5.58013">
        <ele>157</ele>
        <time>2013-02-15T11:45:55Z</time>
      </trkpt>
      <trkpt lat="43.19291" lon="5.58014">
        <ele>156</ele>
        <time>2013-02-15T11:46:00Z</time>
      </trkpt>
      <trkpt lat="43.19284" lon="5.58016">
        <ele>156</ele>
        <time>2013-02-15T11:46:05Z</time>
      </trkpt>
      <trkpt lat="43.1928" lon="5.58021">
        <ele>155</ele>
        <time>2013-02-15T11:46:10Z</time>
      </trkpt>
      <trkpt lat="43.19277" lon="5.58029">
        <ele>155</ele>
        <time>2013-02-15T11:46:15Z</time>
      </trkpt>
      <trkpt lat="43.19278" lon="5.58037">
        <ele>154</ele>
        <time>2013-02-15T11:46:20Z</time>
      </trkpt>
      <trkpt lat="43.19279" lon="5.58044">
        <ele>153</ele>
        <time>2013-02-15T11:46:25Z</time>
      </trkpt>
      <trkpt lat="43.19281" lon="5.58053">
        <ele>153</ele>
        <time>2013-02-15T11:46:30Z</time>
      </trkpt>
      <trkpt lat="43.19282" lon="5.58061">
        <ele>152</ele>
        <time>2013-02-15T11:46:35Z</time>
      </trkpt>
      <trkpt lat="43.19285" lon="5.58068">
        <ele>151</ele>
        <time>2013-02-15T11:46:40Z</time>
      </trkpt>
      <trkpt lat="43.19287" lon="5.58073">
        <ele>151</ele>
        <time>2013-02-15T11:46:45Z</time>
      </trkpt>
      <trkpt lat="43.19287" lon="5.58078">
        <ele>150</ele>
        <time>2013-02-15T11:46:50Z</time>
      </trkpt>
      <trkpt lat="43.19288" lon="5.58086">
        <ele>150</ele>
        <time>2013-02-15T11:46:55Z</time>
      </trkpt>
      <trkpt lat="43.19286" lon="5.58094">
        <ele>150</ele>
        <time>2013-02-15T11:47:00Z</time>
      </trkpt>
      <trkpt lat="43.19286" lon="5.581">
        <ele>150</ele>
        <time>2013-02-15T11:47:05Z</time>
      </trkpt>
      <trkpt lat="43.19285" lon="5.58106">
        <ele>149</ele>
        <time>2013-02-15T11:47:10Z</time>
      </trkpt>
      <trkpt lat="43.19284" lon="5.58111">
        <ele>149</ele>
        <time>2013-02-15T11:47:15Z</time>
      </trkpt>
      <trkpt lat="43.19283" lon="5.58113">
        <ele>149</ele>
        <time>2013-02-15T11:47:20Z</time>
      </trkpt>
      <trkpt lat="43.19282" lon="5.58115">
        <ele>149</ele>
        <time>2013-02-15T11:47:25Z</time>
      </trkpt>
      <trkpt lat="43.19284" lon="5.58114">
        <ele>148</ele>
        <time>2013-02-15T11:47:30Z</time>
      </trkpt>
      <trkpt lat="43.19284" lon="5.58114">
        <ele>148</ele>
        <time>2013-02-15T11:47:35Z</time>
      </trkpt>
      <trkpt lat="43.19285" lon="5.58115">
        <ele>148</ele>
        <time>2013-02-15T11:47:40Z</time>
      </trkpt>
      <trkpt lat="43.19287" lon="5.58117">
        <ele>148</ele>
        <time>2013-02-15T11:47:45Z</time>
      </trkpt>
      <trkpt lat="43.19286" lon="5.58117">
        <ele>148</ele>
        <time>2013-02-15T11:47:50Z</time>
      </trkpt>
      <trkpt lat="43.19284" lon="5.58118">
        <ele>148</ele>
        <time>2013-02-15T11:47:55Z</time>
      </trkpt>
      <trkpt lat="43.19283" lon="5.58119">
        <ele>148</ele>
        <time>2013-02-15T11:48:00Z</time>
      </trkpt>
      <trkpt lat="43.19282" lon="5.5812">
        <ele>148</ele>
        <time>2013-02-15T11:48:05Z</time>
      </trkpt>
      <trkpt lat="43.19282" lon="5.58124">
        <ele>148</ele>
        <time>2013-02-15T11:48:10Z</time>
      </trkpt>
      <trkpt lat="43.19283" lon="5.58128">
        <ele>148</ele>
        <time>2013-02-15T11:48:15Z</time>
      </trkpt>
      <trkpt lat="43.19284" lon="5.58132">
        <ele>148</ele>
        <time>2013-02-15T11:48:20Z</time>
      </trkpt>
      <trkpt lat="43.19287" lon="5.58136">
        <ele>148</ele>
        <time>2013-02-15T11:48:25Z</time>
      </trkpt>
      <trkpt lat="43.1929" lon="5.5814">
        <ele>147</ele>
        <time>2013-02-15T11:48:30Z</time>
      </trkpt>
      <trkpt lat="43.19295" lon="5.58145">
        <ele>147</ele>
        <time>2013-02-15T11:48:35Z</time>
      </trkpt>
      <trkpt lat="43.19298" lon="5.58149">
        <ele>147</ele>
        <time>2013-02-15T11:48:40Z</time>
      </trkpt>
      <trkpt lat="43.193" lon="5.58154">
        <ele>146</ele>
        <time>2013-02-15T11:48:45Z</time>
      </trkpt>
      <trkpt lat="43.19301" lon="5.58158">
        <ele>145</ele>
        <time>2013-02-15T11:48:50Z</time>
      </trkpt>
      <trkpt lat="43.19304" lon="5.58166">
        <ele>144</ele>
        <time>2013-02-15T11:48:55Z</time>
      </trkpt>
      <trkpt lat="43.19307" lon="5.58172">
        <ele>144</ele>
        <time>2013-02-15T11:49:00Z</time>
      </trkpt>
      <trkpt lat="43.1931" lon="5.58179">
        <ele>144</ele>
        <time>2013-02-15T11:49:05Z</time>
      </trkpt>
      <trkpt lat="43.19312" lon="5.5819">
        <ele>144</ele>
        <time>2013-02-15T11:49:10Z</time>
      </trkpt>
      <trkpt lat="43.19315" lon="5.58198">
        <ele>144</ele>
        <time>2013-02-15T11:49:15Z</time>
      </trkpt>
      <trkpt lat="43.19316" lon="5.58207">
        <ele>144</ele>
        <time>2013-02-15T11:49:20Z</time>
      </trkpt>
      <trkpt lat="43.19316" lon="5.58214">
        <ele>145</ele>
        <time>2013-02-15T11:49:25Z</time>
      </trkpt>
      <trkpt lat="43.19315" lon="5.58223">
        <ele>145</ele>
        <time>2013-02-15T11:49:30Z</time>
      </trkpt>
      <trkpt lat="43.19312" lon="5.58233">
        <ele>145</ele>
        <time>2013-02-15T11:49:35Z</time>
      </trkpt>
      <trkpt lat="43.19309" lon="5.58241">
        <ele>144</ele>
        <time>2013-02-15T11:49:40Z</time>
      </trkpt>
      <trkpt lat="43.19305" lon="5.58249">
        <ele>144</ele>
        <time>2013-02-15T11:49:45Z</time>
      </trkpt>
      <trkpt lat="43.19302" lon="5.58255">
        <ele>144</ele>
        <time>2013-02-15T11:49:50Z</time>
      </trkpt>
      <trkpt lat="43.19299" lon="5.58261">
        <ele>144</ele>
        <time>2013-02-15T11:49:55Z</time>
      </trkpt>
      <trkpt lat="43.19293" lon="5.58266">
        <ele>145</ele>
        <time>2013-02-15T11:50:00Z</time>
      </trkpt>
      <trkpt lat="43.19286" lon="5.5827">
        <ele>145</ele>
        <time>2013-02-15T11:50:05Z</time>
      </trkpt>
      <trkpt lat="43.19281" lon="5.58276">
        <ele>145</ele>
        <time>2013-02-15T11:50:10Z</time>
      </trkpt>
      <trkpt lat="43.19277" lon="5.58282">
        <ele>145</ele>
        <time>2013-02-15T11:50:15Z</time>
      </trkpt>
      <trkpt lat="43.19274" lon="5.58289">
        <ele>145</ele>
        <time>2013-02-15T11:50:20Z</time>
      </trkpt>
      <trkpt lat="43.19273" lon="5.58296">
        <ele>145</ele>
        <time>2013-02-15T11:50:25Z</time>
      </trkpt>
      <trkpt lat="43.19272" lon="5.58304">
        <ele>145</ele>
        <time>2013-02-15T11:50:30Z</time>
      </trkpt>
      <trkpt lat="43.19271" lon="5.58314">
        <ele>145</ele>
        <time>2013-02-15T11:50:35Z</time>
      </trkpt>
      <trkpt lat="43.19272" lon="5.58326">
        <ele>145</ele>
        <time>2013-02-15T11:50:40Z</time>
      </trkpt>
      <trkpt lat="43.19273" lon="5.58332">
        <ele>145</ele>
        <time>2013-02-15T11:50:45Z</time>
      </trkpt>
      <trkpt lat="43.19273" lon="5.5834">
        <ele>144</ele>
        <time>2013-02-15T11:50:50Z</time>
      </trkpt>
      <trkpt lat="43.19273" lon="5.58348">
        <ele>143</ele>
        <time>2013-02-15T11:50:55Z</time>
      </trkpt>
      <trkpt lat="43.19274" lon="5.58354">
        <ele>143</ele>
        <time>2013-02-15T11:51:00Z</time>
      </trkpt>
      <trkpt lat="43.19275" lon="5.58363">
        <ele>142</ele>
        <time>2013-02-15T11:51:05Z</time>
      </trkpt>
      <trkpt lat="43.19273" lon="5.58373">
        <ele>141</ele>
        <time>2013-02-15T11:51:10Z</time>
      </trkpt>
      <trkpt lat="43.19273" lon="5.5838">
        <ele>141</ele>
        <time>2013-02-15T11:51:15Z</time>
      </trkpt>
      <trkpt lat="43.19273" lon="5.58388">
        <ele>140</ele>
        <time>2013-02-15T11:51:20Z</time>
      </trkpt>
      <trkpt lat="43.19273" lon="5.58398">
        <ele>139</ele>
        <time>2013-02-15T11:51:25Z</time>
      </trkpt>
      <trkpt lat="43.19274" lon="5.58407">
        <ele>139</ele>
        <time>2013-02-15T11:51:30Z</time>
      </trkpt>
      <trkpt lat="43.19275" lon="5.58416">
        <ele>138</ele>
        <time>2013-02-15T11:51:35Z</time>
      </trkpt>
      <trkpt lat="43.19277" lon="5.58424">
        <ele>138</ele>
        <time>2013-02-15T11:51:40Z</time>
      </trkpt>
      <trkpt lat="43.1928" lon="5.5843">
        <ele>138</ele>
        <time>2013-02-15T11:51:45Z</time>
      </trkpt>
      <trkpt lat="43.19285" lon="5.5844">
        <ele>137</ele>
        <time>2013-02-15T11:51:50Z</time>
      </trkpt>
      <trkpt lat="43.19289" lon="5.58447">
        <ele>136</ele>
        <time>2013-02-15T11:51:55Z</time>
      </trkpt>
      <trkpt lat="43.19293" lon="5.58453">
        <ele>136</ele>
        <time>2013-02-15T11:52:00Z</time>
      </trkpt>
      <trkpt lat="43.19297" lon="5.58459">
        <ele>136</ele>
        <time>2013-02-15T11:52:05Z</time>
      </trkpt>
      <trkpt lat="43.193" lon="5.58465">
        <ele>136</ele>
        <time>2013-02-15T11:52:10Z</time>
      </trkpt>
      <trkpt lat="43.19304" lon="5.58472">
        <ele>136</ele>
        <time>2013-02-15T11:52:15Z</time>
      </trkpt>
      <trkpt lat="43.19307" lon="5.5848">
        <ele>136</ele>
        <time>2013-02-15T11:52:20Z</time>
      </trkpt>
      <trkpt lat="43.1931" lon="5.58489">
        <ele>136</ele>
        <time>2013-02-15T11:52:25Z</time>
      </trkpt>
      <trkpt lat="43.19313" lon="5.58494">
        <ele>136</ele>
        <time>2013-02-15T11:52:30Z</time>
      </trkpt>
      <trkpt lat="43.19317" lon="5.58501">
        <ele>136</ele>
        <time>2013-02-15T11:52:35Z</time>
      </trkpt>
      <trkpt lat="43.19318" lon="5.58506">
        <ele>136</ele>
        <time>2013-02-15T11:52:40Z</time>
      </trkpt>
      <trkpt lat="43.19319" lon="5.58513">
        <ele>136</ele>
        <time>2013-02-15T11:52:45Z</time>
      </trkpt>
      <trkpt lat="43.1932" lon="5.58522">
        <ele>136</ele>
        <time>2013-02-15T11:52:50Z</time>
      </trkpt>
      <trkpt lat="43.19322" lon="5.58529">
        <ele>135</ele>
        <time>2013-02-15T11:52:55Z</time>
      </trkpt>
      <trkpt lat="43.19323" lon="5.58535">
        <ele>135</ele>
        <time>2013-02-15T11:53:00Z</time>
      </trkpt>
      <trkpt lat="43.19323" lon="5.58545">
        <ele>135</ele>
        <time>2013-02-15T11:53:05Z</time>
      </trkpt>
      <trkpt lat="43.19325" lon="5.58553">
        <ele>134</ele>
        <time>2013-02-15T11:53:10Z</time>
      </trkpt>
      <trkpt lat="43.19327" lon="5.58561">
        <ele>134</ele>
        <time>2013-02-15T11:53:15Z</time>
      </trkpt>
      <trkpt lat="43.19329" lon="5.58568">
        <ele>134</ele>
        <time>2013-02-15T11:53:20Z</time>
      </trkpt>
      <trkpt lat="43.19328" lon="5.58578">
        <ele>135</ele>
        <time>2013-02-15T11:53:25Z</time>
      </trkpt>
      <trkpt lat="43.19326" lon="5.58588">
        <ele>135</ele>
        <time>2013-02-15T11:53:30Z</time>
      </trkpt>
      <trkpt lat="43.19323" lon="5.58598">
        <ele>136</ele>
        <time>2013-02-15T11:53:35Z</time>
      </trkpt>
      <trkpt lat="43.19319" lon="5.58611">
        <ele>136</ele>
        <time>2013-02-15T11:53:40Z</time>
      </trkpt>
      <trkpt lat="43.19315" lon="5.58618">
        <ele>137</ele>
        <time>2013-02-15T11:53:45Z</time>
      </trkpt>
      <trkpt lat="43.19313" lon="5.58625">
        <ele>137</ele>
        <time>2013-02-15T11:53:50Z</time>
      </trkpt>
      <trkpt lat="43.19311" lon="5.58633">
        <ele>136</ele>
        <time>2013-02-15T11:53:55Z</time>
      </trkpt>
      <trkpt lat="43.19309" lon="5.58638">
        <ele>136</ele>
        <time>2013-02-15T11:54:00Z</time>
      </trkpt>
      <trkpt lat="43.19305" lon="5.58646">
        <ele>135</ele>
        <time>2013-02-15T11:54:05Z</time>
      </trkpt>
      <trkpt lat="43.19304" lon="5.58654">
        <ele>135</ele>
        <time>2013-02-15T11:54:10Z</time>
      </trkpt>
      <trkpt lat="43.19302" lon="5.58662">
        <ele>134</ele>
        <time>2013-02-15T11:54:15Z</time>
      </trkpt>
      <trkpt lat="43.19299" lon="5.58668">
        <ele>133</ele>
        <time>2013-02-15T11:54:20Z</time>
      </trkpt>
      <trkpt lat="43.19297" lon="5.58673">
        <ele>132</ele>
        <time>2013-02-15T11:54:25Z</time>
      </trkpt>
      <trkpt lat="43.19296" lon="5.58677">
        <ele>132</ele>
        <time>2013-02-15T11:54:30Z</time>
      </trkpt>
      <trkpt lat="43.19291" lon="5.58685">
        <ele>131</ele>
        <time>2013-02-15T11:54:35Z</time>
      </trkpt>
      <trkpt lat="43.19284" lon="5.58691">
        <ele>131</ele>
        <time>2013-02-15T11:54:40Z</time>
      </trkpt>
      <trkpt lat="43.19279" lon="5.58695">
        <ele>130</ele>
        <time>2013-02-15T11:54:45Z</time>
      </trkpt>
      <trkpt lat="43.19274" lon="5.58701">
        <ele>129</ele>
        <time>2013-02-15T11:54:50Z</time>
      </trkpt>
      <trkpt lat="43.19268" lon="5.58706">
        <ele>129</ele>
        <time>2013-02-15T11:54:55Z</time>
      </trkpt>
      <trkpt lat="43.19261" lon="5.58709">
        <ele>129</ele>
        <time>2013-02-15T11:55:00Z</time>
      </trkpt>
      <trkpt lat="43.19253" lon="5.58713">
        <ele>129</ele>
        <time>2013-02-15T11:55:05Z</time>
      </trkpt>
      <trkpt lat="43.19246" lon="5.58716">
        <ele>129</ele>
        <time>2013-02-15T11:55:10Z</time>
      </trkpt>
      <trkpt lat="43.19241" lon="5.58717">
        <ele>129</ele>
        <time>2013-02-15T11:55:15Z</time>
      </trkpt>
      <trkpt lat="43.19235" lon="5.58718">
        <ele>130</ele>
        <time>2013-02-15T11:55:20Z</time>
      </trkpt>
      <trkpt lat="43.19229" lon="5.58721">
        <ele>129</ele>
        <time>2013-02-15T11:55:25Z</time>
      </trkpt>
      <trkpt lat="43.19222" lon="5.58724">
        <ele>129</ele>
        <time>2013-02-15T11:55:30Z</time>
      </trkpt>
      <trkpt lat="43.19217" lon="5.58729">
        <ele>128</ele>
        <time>2013-02-15T11:55:35Z</time>
      </trkpt>
      <trkpt lat="43.19214" lon="5.58736">
        <ele>128</ele>
        <time>2013-02-15T11:55:40Z</time>
      </trkpt>
      <trkpt lat="43.19211" lon="5.58744">
        <ele>127</ele>
        <time>2013-02-15T11:55:45Z</time>
      </trkpt>
      <trkpt lat="43.1921" lon="5.58753">
        <ele>127</ele>
        <time>2013-02-15T11:55:50Z</time>
      </trkpt>
      <trkpt lat="43.1921" lon="5.58762">
        <ele>127</ele>
        <time>2013-02-15T11:55:55Z</time>
      </trkpt>
      <trkpt lat="43.19209" lon="5.58771">
        <ele>127</ele>
        <time>2013-02-15T11:56:00Z</time>
      </trkpt>
      <trkpt lat="43.19209" lon="5.58782">
        <ele>127</ele>
        <time>2013-02-15T11:56:05Z</time>
      </trkpt>
      <trkpt lat="43.19207" lon="5.58791">
        <ele>126</ele>
        <time>2013-02-15T11:56:10Z</time>
      </trkpt>
      <trkpt lat="43.19205" lon="5.58799">
        <ele>126</ele>
        <time>2013-02-15T11:56:15Z</time>
      </trkpt>
      <trkpt lat="43.19204" lon="5.58807">
        <ele>125</ele>
        <time>2013-02-15T11:56:20Z</time>
      </trkpt>
      <trkpt lat="43.19203" lon="5.58813">
        <ele>125</ele>
        <time>2013-02-15T11:56:25Z</time>
      </trkpt>
      <trkpt lat="43.19198" lon="5.58823">
        <ele>125</ele>
        <time>2013-02-15T11:56:30Z</time>
      </trkpt>
      <trkpt lat="43.19194" lon="5.5883">
        <ele>125</ele>
        <time>2013-02-15T11:56:35Z</time>
      </trkpt>
      <trkpt lat="43.19191" lon="5.58834">
        <ele>125</ele>
        <time>2013-02-15T11:56:40Z</time>
      </trkpt>
      <trkpt lat="43.19187" lon="5.58839">
        <ele>125</ele>
        <time>2013-02-15T11:56:45Z</time>
      </trkpt>
      <trkpt lat="43.19184" lon="5.58843">
        <ele>125</ele>
        <time>2013-02-15T11:56:50Z</time>
      </trkpt>
      <trkpt lat="43.19185" lon="5.58843">
        <ele>124</ele>
        <time>2013-02-15T11:56:55Z</time>
      </trkpt>
      <trkpt lat="43.19183" lon="5.58848">
        <ele>124</ele>
        <time>2013-02-15T11:57:00Z</time>
      </trkpt>
      <trkpt lat="43.19181" lon="5.58857">
        <ele>124</ele>
        <time>2013-02-15T11:57:05Z</time>
      </trkpt>
      <trkpt lat="43.19179" lon="5.58868">
        <ele>124</ele>
        <time>2013-02-15T11:57:10Z</time>
      </trkpt>
      <trkpt lat="43.19179" lon="5.58881">
        <ele>125</ele>
        <time>2013-02-15T11:57:15Z</time>
      </trkpt>
      <trkpt lat="43.1918" lon="5.58894">
        <ele>126</ele>
        <time>2013-02-15T11:57:20Z</time>
      </trkpt>
      <trkpt lat="43.19177" lon="5.58902">
        <ele>127</ele>
        <time>2013-02-15T11:57:25Z</time>
      </trkpt>
      <trkpt lat="43.19175" lon="5.58909">
        <ele>128</ele>
        <time>2013-02-15T11:57:30Z</time>
      </trkpt>
      <trkpt lat="43.19174" lon="5.58912">
        <ele>128</ele>
        <time>2013-02-15T11:57:35Z</time>
      </trkpt>
      <trkpt lat="43.19173" lon="5.5892">
        <ele>128</ele>
        <time>2013-02-15T11:57:40Z</time>
      </trkpt>
      <trkpt lat="43.1917" lon="5.58928">
        <ele>127</ele>
        <time>2013-02-15T11:57:45Z</time>
      </trkpt>
      <trkpt lat="43.19168" lon="5.58934">
        <ele>127</ele>
        <time>2013-02-15T11:57:50Z</time>
      </trkpt>
      <trkpt lat="43.19166" lon="5.58939">
        <ele>127</ele>
        <time>2013-02-15T11:57:55Z</time>
      </trkpt>
      <trkpt lat="43.19161" lon="5.58945">
        <ele>127</ele>
        <time>2013-02-15T11:58:00Z</time>
      </trkpt>
      <trkpt lat="43.19156" lon="5.5895">
        <ele>127</ele>
        <time>2013-02-15T11:58:05Z</time>
      </trkpt>
      <trkpt lat="43.19149" lon="5.58951">
        <ele>126</ele>
        <time>2013-02-15T11:58:10Z</time>
      </trkpt>
      <trkpt lat="43.19145" lon="5.58948">
        <ele>126</ele>
        <time>2013-02-15T11:58:15Z</time>
      </trkpt>
      <trkpt lat="43.19142" lon="5.58945">
        <ele>125</ele>
        <time>2013-02-15T11:58:20Z</time>
      </trkpt>
      <trkpt lat="43.19137" lon="5.5894">
        <ele>124</ele>
        <time>2013-02-15T11:58:25Z</time>
      </trkpt>
      <trkpt lat="43.19132" lon="5.58938">
        <ele>123</ele>
        <time>2013-02-15T11:58:30Z</time>
      </trkpt>
      <trkpt lat="43.19126" lon="5.58937">
        <ele>122</ele>
        <time>2013-02-15T11:58:35Z</time>
      </trkpt>
      <trkpt lat="43.19121" lon="5.58937">
        <ele>120</ele>
        <time>2013-02-15T11:58:40Z</time>
      </trkpt>
      <trkpt lat="43.19117" lon="5.58938">
        <ele>119</ele>
        <time>2013-02-15T11:58:45Z</time>
      </trkpt>
      <trkpt lat="43.19113" lon="5.58938">
        <ele>117</ele>
        <time>2013-02-15T11:58:50Z</time>
      </trkpt>
      <trkpt lat="43.19106" lon="5.58941">
        <ele>116</ele>
        <time>2013-02-15T11:58:55Z</time>
      </trkpt>
      <trkpt lat="43.19099" lon="5.58946">
        <ele>116</ele>
        <time>2013-02-15T11:59:00Z</time>
      </trkpt>
      <trkpt lat="43.19092" lon="5.5895">
        <ele>116</ele>
        <time>2013-02-15T11:59:05Z</time>
      </trkpt>
      <trkpt lat="43.19086" lon="5.58955">
        <ele>116</ele>
        <time>2013-02-15T11:59:10Z</time>
      </trkpt>
      <trkpt lat="43.19079" lon="5.5896">
        <ele>116</ele>
        <time>2013-02-15T11:59:15Z</time>
      </trkpt>
      <trkpt lat="43.19072" lon="5.58966">
        <ele>117</ele>
        <time>2013-02-15T11:59:20Z</time>
      </trkpt>
      <trkpt lat="43.19066" lon="5.5897">
        <ele>118</ele>
        <time>2013-02-15T11:59:25Z</time>
      </trkpt>
      <trkpt lat="43.19062" lon="5.58972">
        <ele>118</ele>
        <time>2013-02-15T11:59:30Z</time>
      </trkpt>
      <trkpt lat="43.19057" lon="5.58977">
        <ele>118</ele>
        <time>2013-02-15T11:59:35Z</time>
      </trkpt>
      <trkpt lat="43.19052" lon="5.58982">
        <ele>117</ele>
        <time>2013-02-15T11:59:40Z</time>
      </trkpt>
      <trkpt lat="43.19048" lon="5.58987">
        <ele>117</ele>
        <time>2013-02-15T11:59:45Z</time>
      </trkpt>
      <trkpt lat="43.19045" lon="5.58993">
        <ele>115</ele>
        <time>2013-02-15T11:59:50Z</time>
      </trkpt>
      <trkpt lat="43.19041" lon="5.59">
        <ele>115</ele>
        <time>2013-02-15T11:59:55Z</time>
      </trkpt>
      <trkpt lat="43.19039" lon="5.59003">
        <ele>114</ele>
        <time>2013-02-15T12:00:00Z</time>
      </trkpt>
      <trkpt lat="43.19031" lon="5.5901">
        <ele>115</ele>
        <time>2013-02-15T12:00:05Z</time>
      </trkpt>
      <trkpt lat="43.19022" lon="5.59015">
        <ele>116</ele>
        <time>2013-02-15T12:00:10Z</time>
      </trkpt>
      <trkpt lat="43.19015" lon="5.59019">
        <ele>116</ele>
        <time>2013-02-15T12:00:15Z</time>
      </trkpt>
      <trkpt lat="43.19008" lon="5.59022">
        <ele>117</ele>
        <time>2013-02-15T12:00:20Z</time>
      </trkpt>
      <trkpt lat="43.19001" lon="5.59022">
        <ele>118</ele>
        <time>2013-02-15T12:00:25Z</time>
      </trkpt>
      <trkpt lat="43.18995" lon="5.59021">
        <ele>118</ele>
        <time>2013-02-15T12:00:30Z</time>
      </trkpt>
      <trkpt lat="43.1899" lon="5.59023">
        <ele>119</ele>
        <time>2013-02-15T12:00:35Z</time>
      </trkpt>
      <trkpt lat="43.18987" lon="5.59023">
        <ele>120</ele>
        <time>2013-02-15T12:00:40Z</time>
      </trkpt>
      <trkpt lat="43.18979" lon="5.59027">
        <ele>120</ele>
        <time>2013-02-15T12:00:45Z</time>
      </trkpt>
      <trkpt lat="43.18971" lon="5.5903">
        <ele>119</ele>
        <time>2013-02-15T12:00:50Z</time>
      </trkpt>
      <trkpt lat="43.18963" lon="5.59035">
        <ele>119</ele>
        <time>2013-02-15T12:00:55Z</time>
      </trkpt>
      <trkpt lat="43.18957" lon="5.59039">
        <ele>119</ele>
        <time>2013-02-15T12:01:00Z</time>
      </trkpt>
      <trkpt lat="43.18953" lon="5.59044">
        <ele>119</ele>
        <time>2013-02-15T12:01:05Z</time>
      </trkpt>
      <trkpt lat="43.18946" lon="5.59054">
        <ele>120</ele>
        <time>2013-02-15T12:01:10Z</time>
      </trkpt>
      <trkpt lat="43.18946" lon="5.59062">
        <ele>121</ele>
        <time>2013-02-15T12:01:15Z</time>
      </trkpt>
      <trkpt lat="43.18945" lon="5.59069">
        <ele>121</ele>
        <time>2013-02-15T12:01:20Z</time>
      </trkpt>
      <trkpt lat="43.18942" lon="5.59078">
        <ele>121</ele>
        <time>2013-02-15T12:01:25Z</time>
      </trkpt>
      <trkpt lat="43.1894" lon="5.59086">
        <ele>121</ele>
        <time>2013-02-15T12:01:30Z</time>
      </trkpt>
      <trkpt lat="43.18938" lon="5.59093">
        <ele>120</ele>
        <time>2013-02-15T12:01:35Z</time>
      </trkpt>
      <trkpt lat="43.18935" lon="5.59101">
        <ele>120</ele>
        <time>2013-02-15T12:01:40Z</time>
      </trkpt>
      <trkpt lat="43.18931" lon="5.59109">
        <ele>120</ele>
        <time>2013-02-15T12:01:45Z</time>
      </trkpt>
      <trkpt lat="43.18928" lon="5.59114">
        <ele>120</ele>
        <time>2013-02-15T12:01:50Z</time>
      </trkpt>
      <trkpt lat="43.18924" lon="5.59124">
        <ele>121</ele>
        <time>2013-02-15T12:01:55Z</time>
      </trkpt>
      <trkpt lat="43.18918" lon="5.59133">
        <ele>121</ele>
        <time>2013-02-15T12:02:00Z</time>
      </trkpt>
      <trkpt lat="43.18914" lon="5.59141">
        <ele>121</ele>
        <time>2013-02-15T12:02:05Z</time>
      </trkpt>
      <trkpt lat="43.1891" lon="5.59148">
        <ele>120</ele>
        <time>2013-02-15T12:02:10Z</time>
      </trkpt>
      <trkpt lat="43.18906" lon="5.59149">
        <ele>119</ele>
        <time>2013-02-15T12:02:15Z</time>
      </trkpt>
      <trkpt lat="43.18902" lon="5.59153">
        <ele>118</ele>
        <time>2013-02-15T12:02:20Z</time>
      </trkpt>
      <trkpt lat="43.18897" lon="5.59159">
        <ele>117</ele>
        <time>2013-02-15T12:02:25Z</time>
      </trkpt>
      <trkpt lat="43.18892" lon="5.59165">
        <ele>116</ele>
        <time>2013-02-15T12:02:30Z</time>
      </trkpt>
      <trkpt lat="43.18888" lon="5.59173">
        <ele>115</ele>
        <time>2013-02-15T12:02:35Z</time>
      </trkpt>
      <trkpt lat="43.18885" lon="5.59178">
        <ele>115</ele>
        <time>2013-02-15T12:02:40Z</time>
      </trkpt>
      <trkpt lat="43.18879" lon="5.59182">
        <ele>115</ele>
        <time>2013-02-15T12:02:45Z</time>
      </trkpt>
      <trkpt lat="43.18873" lon="5.59187">
        <ele>116</ele>
        <time>2013-02-15T12:02:50Z</time>
      </trkpt>
      <trkpt lat="43.1887" lon="5.59191">
        <ele>116</ele>
        <time>2013-02-15T12:02:55Z</time>
      </trkpt>
      <trkpt lat="43.18863" lon="5.59199">
        <ele>116</ele>
        <time>2013-02-15T12:03:00Z</time>
      </trkpt>
      <trkpt lat="43.18859" lon="5.59205">
        <ele>116</ele>
        <time>2013-02-15T12:03:05Z</time>
      </trkpt>
      <trkpt lat="43.18856" lon="5.59207">
        <ele>115</ele>
        <time>2013-02-15T12:03:10Z</time>
      </trkpt>
      <trkpt lat="43.18852" lon="5.59211">
        <ele>115</ele>
        <time>2013-02-15T12:03:15Z</time>
      </trkpt>
      <trkpt lat="43.18848" lon="5.59215">
        <ele>114</ele>
        <time>2013-02-15T12:03:20Z</time>
      </trkpt>
      <trkpt lat="43.18844" lon="5.59218">
        <ele>113</ele>
        <time>2013-02-15T12:03:25Z</time>
      </trkpt>
      <trkpt lat="43.1884" lon="5.59222">
        <ele>113</ele>
        <time>2013-02-15T12:03:30Z</time>
      </trkpt>
      <trkpt lat="43.18836" lon="5.59227">
        <ele>112</ele>
        <time>2013-02-15T12:03:35Z</time>
      </trkpt>
      <trkpt lat="43.18832" lon="5.59228">
        <ele>111</ele>
        <time>2013-02-15T12:03:40Z</time>
      </trkpt>
      <trkpt lat="43.18825" lon="5.5923">
        <ele>111</ele>
        <time>2013-02-15T12:03:45Z</time>
      </trkpt>
      <trkpt lat="43.18819" lon="5.59234">
        <ele>111</ele>
        <time>2013-02-15T12:03:50Z</time>
      </trkpt>
      <trkpt lat="43.18813" lon="5.59236">
        <ele>110</ele>
        <time>2013-02-15T12:03:55Z</time>
      </trkpt>
      <trkpt lat="43.18808" lon="5.59237">
        <ele>109</ele>
        <time>2013-02-15T12:04:00Z</time>
      </trkpt>
      <trkpt lat="43.18803" lon="5.5924">
        <ele>108</ele>
        <time>2013-02-15T12:04:05Z</time>
      </trkpt>
      <trkpt lat="43.18796" lon="5.59244">
        <ele>107</ele>
        <time>2013-02-15T12:04:10Z</time>
      </trkpt>
      <trkpt lat="43.18789" lon="5.59248">
        <ele>107</ele>
        <time>2013-02-15T12:04:15Z</time>
      </trkpt>
      <trkpt lat="43.18784" lon="5.59254">
        <ele>107</ele>
        <time>2013-02-15T12:04:20Z</time>
      </trkpt>
      <trkpt lat="43.18779" lon="5.59258">
        <ele>106</ele>
        <time>2013-02-15T12:04:25Z</time>
      </trkpt>
      <trkpt lat="43.18773" lon="5.5926">
        <ele>106</ele>
        <time>2013-02-15T12:04:30Z</time>
      </trkpt>
      <trkpt lat="43.18767" lon="5.59263">
        <ele>105</ele>
        <time>2013-02-15T12:04:35Z</time>
      </trkpt>
      <trkpt lat="43.18763" lon="5.59268">
        <ele>105</ele>
        <time>2013-02-15T12:04:40Z</time>
      </trkpt>
      <trkpt lat="43.18759" lon="5.59273">
        <ele>104</ele>
        <time>2013-02-15T12:04:45Z</time>
      </trkpt>
      <trkpt lat="43.18756" lon="5.59279">
        <ele>104</ele>
        <time>2013-02-15T12:04:50Z</time>
      </trkpt>
      <trkpt lat="43.18754" lon="5.59287">
        <ele>103</ele>
        <time>2013-02-15T12:04:55Z</time>
      </trkpt>
      <trkpt lat="43.18751" lon="5.59294">
        <ele>103</ele>
        <time>2013-02-15T12:05:00Z</time>
      </trkpt>
      <trkpt lat="43.18747" lon="5.59302">
        <ele>103</ele>
        <time>2013-02-15T12:05:05Z</time>
      </trkpt>
      <trkpt lat="43.18743" lon="5.59312">
        <ele>104</ele>
        <time>2013-02-15T12:05:10Z</time>
      </trkpt>
      <trkpt lat="43.18738" lon="5.59319">
        <ele>104</ele>
        <time>2013-02-15T12:05:15Z</time>
      </trkpt>
      <trkpt lat="43.18733" lon="5.59327">
        <ele>105</ele>
        <time>2013-02-15T12:05:20Z</time>
      </trkpt>
      <trkpt lat="43.18729" lon="5.59336">
        <ele>106</ele>
        <time>2013-02-15T12:05:25Z</time>
      </trkpt>
      <trkpt lat="43.18722" lon="5.59344">
        <ele>106</ele>
        <time>2013-02-15T12:05:30Z</time>
      </trkpt>
      <trkpt lat="43.1872" lon="5.59347">
        <ele>106</ele>
        <time>2013-02-15T12:05:35Z</time>
      </trkpt>
      <trkpt lat="43.18715" lon="5.59351">
        <ele>106</ele>
        <time>2013-02-15T12:05:40Z</time>
      </trkpt>
      <trkpt lat="43.1871" lon="5.59354">
        <ele>106</ele>
        <time>2013-02-15T12:05:45Z</time>
      </trkpt>
      <trkpt lat="43.18705" lon="5.59355">
        <ele>106</ele>
        <time>2013-02-15T12:05:50Z</time>
      </trkpt>
      <trkpt lat="43.187" lon="5.59358">
        <ele>106</ele>
        <time>2013-02-15T12:05:55Z</time>
      </trkpt>
      <trkpt lat="43.18696" lon="5.59364">
        <ele>106</ele>
        <time>2013-02-15T12:06:00Z</time>
      </trkpt>
      <trkpt lat="43.18691" lon="5.59369">
        <ele>105</ele>
        <time>2013-02-15T12:06:05Z</time>
      </trkpt>
      <trkpt lat="43.18686" lon="5.59373">
        <ele>105</ele>
        <time>2013-02-15T12:06:10Z</time>
      </trkpt>
      <trkpt lat="43.18682" lon="5.59379">
        <ele>105</ele>
        <time>2013-02-15T12:06:15Z</time>
      </trkpt>
      <trkpt lat="43.18677" lon="5.59384">
        <ele>104</ele>
        <time>2013-02-15T12:06:20Z</time>
      </trkpt>
      <trkpt lat="43.18674" lon="5.5939">
        <ele>104</ele>
        <time>2013-02-15T12:06:25Z</time>
      </trkpt>
      <trkpt lat="43.1867" lon="5.59397">
        <ele>104</ele>
        <time>2013-02-15T12:06:30Z</time>
      </trkpt>
      <trkpt lat="43.18666" lon="5.59404">
        <ele>103</ele>
        <time>2013-02-15T12:06:35Z</time>
      </trkpt>
      <trkpt lat="43.18662" lon="5.59412">
        <ele>103</ele>
        <time>2013-02-15T12:06:40Z</time>
      </trkpt>
      <trkpt lat="43.1866" lon="5.59424">
        <ele>104</ele>
        <time>2013-02-15T12:06:45Z</time>
      </trkpt>
      <trkpt lat="43.18659" lon="5.59435">
        <ele>104</ele>
        <time>2013-02-15T12:06:50Z</time>
      </trkpt>
      <trkpt lat="43.18661" lon="5.59448">
        <ele>104</ele>
        <time>2013-02-15T12:06:55Z</time>
      </trkpt>
      <trkpt lat="43.18663" lon="5.59457">
        <ele>104</ele>
        <time>2013-02-15T12:07:00Z</time>
      </trkpt>
      <trkpt lat="43.18663" lon="5.59464">
        <ele>104</ele>
        <time>2013-02-15T12:07:05Z</time>
      </trkpt>
      <trkpt lat="43.1866" lon="5.5947">
        <ele>104</ele>
        <time>2013-02-15T12:07:10Z</time>
      </trkpt>
      <trkpt lat="43.18658" lon="5.59476">
        <ele>104</ele>
        <time>2013-02-15T12:07:15Z</time>
      </trkpt>
      <trkpt lat="43.18653" lon="5.59482">
        <ele>104</ele>
        <time>2013-02-15T12:07:20Z</time>
      </trkpt>
      <trkpt lat="43.1865" lon="5.59483">
        <ele>103</ele>
        <time>2013-02-15T12:07:25Z</time>
      </trkpt>
      <trkpt lat="43.18646" lon="5.59488">
        <ele>102</ele>
        <time>2013-02-15T12:07:30Z</time>
      </trkpt>
      <trkpt lat="43.1864" lon="5.5949">
        <ele>102</ele>
        <time>2013-02-15T12:07:35Z</time>
      </trkpt>
      <trkpt lat="43.18635" lon="5.59493">
        <ele>101</ele>
        <time>2013-02-15T12:07:40Z</time>
      </trkpt>
      <trkpt lat="43.1863" lon="5.59496">
        <ele>101</ele>
        <time>2013-02-15T12:07:45Z</time>
      </trkpt>
      <trkpt lat="43.18625" lon="5.59499">
        <ele>101</ele>
        <time>2013-02-15T12:07:50Z</time>
      </trkpt>
      <trkpt lat="43.18619" lon="5.59502">
        <ele>100</ele>
        <time>2013-02-15T12:07:55Z</time>
      </trkpt>
      <trkpt lat="43.18613" lon="5.59507">
        <ele>99</ele>
        <time>2013-02-15T12:08:00Z</time>
      </trkpt>
      <trkpt lat="43.18608" lon="5.59512">
        <ele>98</ele>
        <time>2013-02-15T12:08:05Z</time>
      </trkpt>
      <trkpt lat="43.18604" lon="5.59516">
        <ele>98</ele>
        <time>2013-02-15T12:08:10Z</time>
      </trkpt>
      <trkpt lat="43.186" lon="5.59518">
        <ele>98</ele>
        <time>2013-02-15T12:08:15Z</time>
      </trkpt>
      <trkpt lat="43.18595" lon="5.59519">
        <ele>98</ele>
        <time>2013-02-15T12:08:20Z</time>
      </trkpt>
      <trkpt lat="43.18587" lon="5.59521">
        <ele>98</ele>
        <time>2013-02-15T12:08:25Z</time>
      </trkpt>
      <trkpt lat="43.1858" lon="5.59524">
        <ele>98</ele>
        <time>2013-02-15T12:08:30Z</time>
      </trkpt>
      <trkpt lat="43.18575" lon="5.59527">
        <ele>98</ele>
        <time>2013-02-15T12:08:35Z</time>
      </trkpt>
      <trkpt lat="43.1857" lon="5.59531">
        <ele>98</ele>
        <time>2013-02-15T12:08:40Z</time>
      </trkpt>
      <trkpt lat="43.18561" lon="5.59537">
        <ele>99</ele>
        <time>2013-02-15T12:08:45Z</time>
      </trkpt>
      <trkpt lat="43.18555" lon="5.59543">
        <ele>99</ele>
        <time>2013-02-15T12:08:50Z</time>
      </trkpt>
      <trkpt lat="43.18549" lon="5.59548">
        <ele>99</ele>
        <time>2013-02-15T12:08:55Z</time>
      </trkpt>
      <trkpt lat="43.18544" lon="5.59553">
        <ele>99</ele>
        <time>2013-02-15T12:09:00Z</time>
      </trkpt>
      <trkpt lat="43.18538" lon="5.5956">
        <ele>99</ele>
        <time>2013-02-15T12:09:05Z</time>
      </trkpt>
      <trkpt lat="43.18534" lon="5.59566">
        <ele>99</ele>
        <time>2013-02-15T12:09:10Z</time>
      </trkpt>
      <trkpt lat="43.1853" lon="5.59571">
        <ele>99</ele>
        <time>2013-02-15T12:09:15Z</time>
      </trkpt>
      <trkpt lat="43.18526" lon="5.59575">
        <ele>99</ele>
        <time>2013-02-15T12:09:20Z</time>
      </trkpt>
      <trkpt lat="43.18521" lon="5.59579">
        <ele>99</ele>
        <time>2013-02-15T12:09:25Z</time>
      </trkpt>
      <trkpt lat="43.18518" lon="5.5958">
        <ele>99</ele>
        <time>2013-02-15T12:09:30Z</time>
      </trkpt>
      <trkpt lat="43.18513" lon="5.59585">
        <ele>98</ele>
        <time>2013-02-15T12:09:35Z</time>
      </trkpt>
      <trkpt lat="43.18507" lon="5.59591">
        <ele>97</ele>
        <time>2013-02-15T12:09:40Z</time>
      </trkpt>
      <trkpt lat="43.18504" lon="5.59595">
        <ele>97</ele>
        <time>2013-02-15T12:09:45Z</time>
      </trkpt>
      <trkpt lat="43.18501" lon="5.59602">
        <ele>98</ele>
        <time>2013-02-15T12:09:50Z</time>
      </trkpt>
      <trkpt lat="43.18498" lon="5.59609">
        <ele>98</ele>
        <time>2013-02-15T12:09:55Z</time>
      </trkpt>
      <trkpt lat="43.18496" lon="5.59613">
        <ele>97</ele>
        <time>2013-02-15T12:10:00Z</time>
      </trkpt>
      <trkpt lat="43.18492" lon="5.59617">
        <ele>97</ele>
        <time>2013-02-15T12:10:05Z</time>
      </trkpt>
      <trkpt lat="43.18489" lon="5.59621">
        <ele>96</ele>
        <time>2013-02-15T12:10:10Z</time>
      </trkpt>
      <trkpt lat="43.18486" lon="5.59626">
        <ele>95</ele>
        <time>2013-02-15T12:10:15Z</time>
      </trkpt>
      <trkpt lat="43.18484" lon="5.5963">
        <ele>95</ele>
        <time>2013-02-15T12:10:20Z</time>
      </trkpt>
      <trkpt lat="43.18484" lon="5.59631">
        <ele>95</ele>
        <time>2013-02-15T12:10:25Z</time>
      </trkpt>
      <trkpt lat="43.18483" lon="5.59635">
        <ele>95</ele>
        <time>2013-02-15T12:10:30Z</time>
      </trkpt>
      <trkpt lat="43.18485" lon="5.59641">
        <ele>94</ele>
        <time>2013-02-15T12:10:35Z</time>
      </trkpt>
      <trkpt lat="43.18486" lon="5.59645">
        <ele>93</ele>
        <time>2013-02-15T12:10:40Z</time>
      </trkpt>
      <trkpt lat="43.18485" lon="5.59652">
        <ele>92</ele>
        <time>2013-02-15T12:10:45Z</time>
      </trkpt>
      <trkpt lat="43.18484" lon="5.59659">
        <ele>91</ele>
        <time>2013-02-15T12:10:50Z</time>
      </trkpt>
      <trkpt lat="43.18483" lon="5.59669">
        <ele>90</ele>
        <time>2013-02-15T12:10:55Z</time>
      </trkpt>
      <trkpt lat="43.18481" lon="5.59674">
        <ele>90</ele>
        <time>2013-02-15T12:11:00Z</time>
      </trkpt>
      <trkpt lat="43.18479" lon="5.59685">
        <ele>89</ele>
        <time>2013-02-15T12:11:05Z</time>
      </trkpt>
      <trkpt lat="43.18479" lon="5.59692">
        <ele>89</ele>
        <time>2013-02-15T12:11:10Z</time>
      </trkpt>
      <trkpt lat="43.18476" lon="5.59702">
        <ele>89</ele>
        <time>2013-02-15T12:11:15Z</time>
      </trkpt>
      <trkpt lat="43.18473" lon="5.59709">
        <ele>89</ele>
        <time>2013-02-15T12:11:20Z</time>
      </trkpt>
      <trkpt lat="43.18471" lon="5.59717">
        <ele>88</ele>
        <time>2013-02-15T12:11:25Z</time>
      </trkpt>
      <trkpt lat="43.18471" lon="5.59726">
        <ele>88</ele>
        <time>2013-02-15T12:11:30Z</time>
      </trkpt>
      <trkpt lat="43.18471" lon="5.59732">
        <ele>88</ele>
        <time>2013-02-15T12:11:35Z</time>
      </trkpt>
      <trkpt lat="43.18468" lon="5.59742">
        <ele>87</ele>
        <time>2013-02-15T12:11:40Z</time>
      </trkpt>
      <trkpt lat="43.18468" lon="5.59751">
        <ele>87</ele>
        <time>2013-02-15T12:11:45Z</time>
      </trkpt>
      <trkpt lat="43.18466" lon="5.59756">
        <ele>86</ele>
        <time>2013-02-15T12:11:50Z</time>
      </trkpt>
      <trkpt lat="43.18464" lon="5.59764">
        <ele>85</ele>
        <time>2013-02-15T12:11:55Z</time>
      </trkpt>
      <trkpt lat="43.18463" lon="5.59772">
        <ele>84</ele>
        <time>2013-02-15T12:12:00Z</time>
      </trkpt>
      <trkpt lat="43.18461" lon="5.59781">
        <ele>84</ele>
        <time>2013-02-15T12:12:05Z</time>
      </trkpt>
      <trkpt lat="43.18461" lon="5.59789">
        <ele>84</ele>
        <time>2013-02-15T12:12:10Z</time>
      </trkpt>
      <trkpt lat="43.1846" lon="5.59796">
        <ele>83</ele>
        <time>2013-02-15T12:12:15Z</time>
      </trkpt>
      <trkpt lat="43.18459" lon="5.59801">
        <ele>84</ele>
        <time>2013-02-15T12:12:20Z</time>
      </trkpt>
      <trkpt lat="43.18458" lon="5.59813">
        <ele>84</ele>
        <time>2013-02-15T12:12:25Z</time>
      </trkpt>
      <trkpt lat="43.18457" lon="5.59823">
        <ele>84</ele>
        <time>2013-02-15T12:12:30Z</time>
      </trkpt>
      <trkpt lat="43.18456" lon="5.59831">
        <ele>84</ele>
        <time>2013-02-15T12:12:35Z</time>
      </trkpt>
      <trkpt lat="43.18454" lon="5.5984">
        <ele>84</ele>
        <time>2013-02-15T12:12:40Z</time>
      </trkpt>
      <trkpt lat="43.18454" lon="5.5985">
        <ele>84</ele>
        <time>2013-02-15T12:12:45Z</time>
      </trkpt>
      <trkpt lat="43.18453" lon="5.5986">
        <ele>83</ele>
        <time>2013-02-15T12:12:50Z</time>
      </trkpt>
      <trkpt lat="43.18454" lon="5.59864">
        <ele>83</ele>
        <time>2013-02-15T12:12:55Z</time>
      </trkpt>
      <trkpt lat="43.18458" lon="5.59868">
        <ele>84</ele>
        <time>2013-02-15T12:13:00Z</time>
      </trkpt>
      <trkpt lat="43.1846" lon="5.5987">
        <ele>84</ele>
        <time>2013-02-15T12:13:05Z</time>
      </trkpt>
      <trkpt lat="43.18461" lon="5.59871">
        <ele>84</ele>
        <time>2013-02-15T12:13:10Z</time>
      </trkpt>
      <trkpt lat="43.18462" lon="5.59875">
        <ele>83</ele>
        <time>2013-02-15T12:13:15Z</time>
      </trkpt>
      <trkpt lat="43.18463" lon="5.59878">
        <ele>83</ele>
        <time>2013-02-15T12:13:20Z</time>
      </trkpt>
      <trkpt lat="43.18464" lon="5.59884">
        <ele>82</ele>
        <time>2013-02-15T12:13:25Z</time>
      </trkpt>
      <trkpt lat="43.18462" lon="5.59889">
        <ele>82</ele>
        <time>2013-02-15T12:13:30Z</time>
      </trkpt>
      <trkpt lat="43.18464" lon="5.59894">
        <ele>82</ele>
        <time>2013-02-15T12:13:35Z</time>
      </trkpt>
      <trkpt lat="43.18464" lon="5.59902">
        <ele>82</ele>
        <time>2013-02-15T12:13:40Z</time>
      </trkpt>
      <trkpt lat="43.18465" lon="5.59908">
        <ele>82</ele>
        <time>2013-02-15T12:13:45Z</time>
      </trkpt>
      <trkpt lat="43.18467" lon="5.59913">
        <ele>82</ele>
        <time>2013-02-15T12:13:50Z</time>
      </trkpt>
      <trkpt lat="43.18468" lon="5.59916">
        <ele>82</ele>
        <time>2013-02-15T12:13:55Z</time>
      </trkpt>
      <trkpt lat="43.1847" lon="5.5992">
        <ele>82</ele>
        <time>2013-02-15T12:14:00Z</time>
      </trkpt>
      <trkpt lat="43.18471" lon="5.59923">
        <ele>83</ele>
        <time>2013-02-15T12:14:05Z</time>
      </trkpt>
      <trkpt lat="43.18469" lon="5.59923">
        <ele>83</ele>
        <time>2013-02-15T12:14:10Z</time>
      </trkpt>
      <trkpt lat="43.18464" lon="5.59922">
        <ele>84</ele>
        <time>2013-02-15T12:14:15Z</time>
      </trkpt>
      <trkpt lat="43.18459" lon="5.59919">
        <ele>84</ele>
        <time>2013-02-15T12:14:20Z</time>
      </trkpt>
      <trkpt lat="43.18456" lon="5.59919">
        <ele>84</ele>
        <time>2013-02-15T12:14:25Z</time>
      </trkpt>
      <trkpt lat="43.1845" lon="5.59919">
        <ele>84</ele>
        <time>2013-02-15T12:14:30Z</time>
      </trkpt>
      <trkpt lat="43.18444" lon="5.59919">
        <ele>84</ele>
        <time>2013-02-15T12:14:35Z</time>
      </trkpt>
      <trkpt lat="43.18437" lon="5.59918">
        <ele>85</ele>
        <time>2013-02-15T12:14:40Z</time>
      </trkpt>
      <trkpt lat="43.18431" lon="5.59917">
        <ele>85</ele>
        <time>2013-02-15T12:14:45Z</time>
      </trkpt>
      <trkpt lat="43.18425" lon="5.59915">
        <ele>85</ele>
        <time>2013-02-15T12:14:50Z</time>
      </trkpt>
      <trkpt lat="43.18418" lon="5.59913">
        <ele>85</ele>
        <time>2013-02-15T12:14:55Z</time>
      </trkpt>
    </trkseg>
  </trk>
</gpx>